<?xml version="1.0" encoding="UTF-8" standalone="no" ?>
<gpx xmlns="http://www.topografix.com/GPX/1/1" xmlns:xsi="http://www.w3.org/2001/XMLSchema-instance" xsi:schemaLocation="http://www.topografix.com/GPX/1/1 http://www.topografix.com/GPX/1/1/gpx.xsd" version="1.1" creator="VisuGPX - https://www.visugpx.com">
  <metadata>
    <name>voutezac 1</name>
    <desc><![CDATA[ https://www.visugpx.com/uhmaDNmPAB]]></desc>
  </metadata>
  <trk>
    <name><![CDATA[2017-02-26-08-28-31 on GPSies.com]]></name>
    <trkseg>
      <trkpt lat="45.30437" lon="1.44882">
        <ele>384</ele>
        <time>2017-02-26T08:28:31Z</time>
      </trkpt>
      <trkpt lat="45.30441" lon="1.449">
        <ele>386</ele>
        <time>2017-02-26T08:35:33Z</time>
      </trkpt>
      <trkpt lat="45.30444" lon="1.44899">
        <ele>386</ele>
        <time>2017-02-26T08:35:35Z</time>
      </trkpt>
      <trkpt lat="45.3044" lon="1.44896">
        <ele>386</ele>
        <time>2017-02-26T08:35:38Z</time>
      </trkpt>
      <trkpt lat="45.30437" lon="1.449">
        <ele>387</ele>
        <time>2017-02-26T08:35:40Z</time>
      </trkpt>
      <trkpt lat="45.30435" lon="1.44901">
        <ele>387</ele>
        <time>2017-02-26T08:35:41Z</time>
      </trkpt>
      <trkpt lat="45.30434" lon="1.44902">
        <ele>387</ele>
        <time>2017-02-26T08:35:42Z</time>
      </trkpt>
      <trkpt lat="45.30425" lon="1.44903">
        <ele>386</ele>
        <time>2017-02-26T08:37:35Z</time>
      </trkpt>
      <trkpt lat="45.30413" lon="1.44914">
        <ele>386</ele>
        <time>2017-02-26T08:37:40Z</time>
      </trkpt>
      <trkpt lat="45.30384" lon="1.4494">
        <ele>386</ele>
        <time>2017-02-26T08:37:49Z</time>
      </trkpt>
      <trkpt lat="45.30368" lon="1.44959">
        <ele>385</ele>
        <time>2017-02-26T08:37:54Z</time>
      </trkpt>
      <trkpt lat="45.30359" lon="1.44971">
        <ele>385</ele>
        <time>2017-02-26T08:37:57Z</time>
      </trkpt>
      <trkpt lat="45.30337" lon="1.4501">
        <ele>385</ele>
        <time>2017-02-26T08:38:05Z</time>
      </trkpt>
      <trkpt lat="45.30317" lon="1.45051">
        <ele>385</ele>
        <time>2017-02-26T08:38:13Z</time>
      </trkpt>
      <trkpt lat="45.30296" lon="1.45089">
        <ele>384</ele>
        <time>2017-02-26T08:38:20Z</time>
      </trkpt>
      <trkpt lat="45.30282" lon="1.45111">
        <ele>384</ele>
        <time>2017-02-26T08:38:25Z</time>
      </trkpt>
      <trkpt lat="45.30276" lon="1.45113">
        <ele>384</ele>
        <time>2017-02-26T08:38:27Z</time>
      </trkpt>
      <trkpt lat="45.30274" lon="1.45112">
        <ele>384</ele>
        <time>2017-02-26T08:38:28Z</time>
      </trkpt>
      <trkpt lat="45.30266" lon="1.45103">
        <ele>385</ele>
        <time>2017-02-26T08:38:32Z</time>
      </trkpt>
      <trkpt lat="45.30263" lon="1.45099">
        <ele>385</ele>
        <time>2017-02-26T08:38:33Z</time>
      </trkpt>
      <trkpt lat="45.30251" lon="1.45081">
        <ele>385</ele>
        <time>2017-02-26T08:38:37Z</time>
      </trkpt>
      <trkpt lat="45.30245" lon="1.45072">
        <ele>385</ele>
        <time>2017-02-26T08:38:39Z</time>
      </trkpt>
      <trkpt lat="45.30222" lon="1.45037">
        <ele>385</ele>
        <time>2017-02-26T08:38:46Z</time>
      </trkpt>
      <trkpt lat="45.30194" lon="1.44995">
        <ele>384</ele>
        <time>2017-02-26T08:38:53Z</time>
      </trkpt>
      <trkpt lat="45.30175" lon="1.44969">
        <ele>383</ele>
        <time>2017-02-26T08:38:57Z</time>
      </trkpt>
      <trkpt lat="45.30158" lon="1.44944">
        <ele>382</ele>
        <time>2017-02-26T08:39:01Z</time>
      </trkpt>
      <trkpt lat="45.30127" lon="1.44902">
        <ele>382</ele>
        <time>2017-02-26T08:39:09Z</time>
      </trkpt>
      <trkpt lat="45.30116" lon="1.44886">
        <ele>381</ele>
        <time>2017-02-26T08:39:12Z</time>
      </trkpt>
      <trkpt lat="45.30108" lon="1.44876">
        <ele>381</ele>
        <time>2017-02-26T08:39:14Z</time>
      </trkpt>
      <trkpt lat="45.30098" lon="1.44869">
        <ele>381</ele>
        <time>2017-02-26T08:39:16Z</time>
      </trkpt>
      <trkpt lat="45.30087" lon="1.44866">
        <ele>381</ele>
        <time>2017-02-26T08:39:18Z</time>
      </trkpt>
      <trkpt lat="45.30075" lon="1.44861">
        <ele>380</ele>
        <time>2017-02-26T08:39:20Z</time>
      </trkpt>
      <trkpt lat="45.30069" lon="1.44859">
        <ele>380</ele>
        <time>2017-02-26T08:39:21Z</time>
      </trkpt>
      <trkpt lat="45.30032" lon="1.44848">
        <ele>379</ele>
        <time>2017-02-26T08:39:27Z</time>
      </trkpt>
      <trkpt lat="45.30014" lon="1.44843">
        <ele>379</ele>
        <time>2017-02-26T08:39:30Z</time>
      </trkpt>
      <trkpt lat="45.2997" lon="1.44828">
        <ele>379</ele>
        <time>2017-02-26T08:39:38Z</time>
      </trkpt>
      <trkpt lat="45.29929" lon="1.44815">
        <ele>380</ele>
        <time>2017-02-26T08:39:46Z</time>
      </trkpt>
      <trkpt lat="45.29889" lon="1.44803">
        <ele>380</ele>
        <time>2017-02-26T08:39:55Z</time>
      </trkpt>
      <trkpt lat="45.29846" lon="1.44787">
        <ele>378</ele>
        <time>2017-02-26T08:40:04Z</time>
      </trkpt>
      <trkpt lat="45.29826" lon="1.44779">
        <ele>377</ele>
        <time>2017-02-26T08:40:08Z</time>
      </trkpt>
      <trkpt lat="45.29809" lon="1.44772">
        <ele>376</ele>
        <time>2017-02-26T08:40:11Z</time>
      </trkpt>
      <trkpt lat="45.29797" lon="1.44768">
        <ele>375</ele>
        <time>2017-02-26T08:40:13Z</time>
      </trkpt>
      <trkpt lat="45.29778" lon="1.44761">
        <ele>373</ele>
        <time>2017-02-26T08:40:16Z</time>
      </trkpt>
      <trkpt lat="45.29763" lon="1.44756">
        <ele>372</ele>
        <time>2017-02-26T08:40:18Z</time>
      </trkpt>
      <trkpt lat="45.29747" lon="1.4475">
        <ele>371</ele>
        <time>2017-02-26T08:40:20Z</time>
      </trkpt>
      <trkpt lat="45.29729" lon="1.44744">
        <ele>369</ele>
        <time>2017-02-26T08:40:22Z</time>
      </trkpt>
      <trkpt lat="45.2972" lon="1.44741">
        <ele>368</ele>
        <time>2017-02-26T08:40:23Z</time>
      </trkpt>
      <trkpt lat="45.2971" lon="1.44738">
        <ele>367</ele>
        <time>2017-02-26T08:40:24Z</time>
      </trkpt>
      <trkpt lat="45.29692" lon="1.44733">
        <ele>366</ele>
        <time>2017-02-26T08:40:26Z</time>
      </trkpt>
      <trkpt lat="45.29675" lon="1.44729">
        <ele>364</ele>
        <time>2017-02-26T08:40:28Z</time>
      </trkpt>
      <trkpt lat="45.29666" lon="1.44729">
        <ele>364</ele>
        <time>2017-02-26T08:40:29Z</time>
      </trkpt>
      <trkpt lat="45.29658" lon="1.44729">
        <ele>363</ele>
        <time>2017-02-26T08:40:30Z</time>
      </trkpt>
      <trkpt lat="45.29643" lon="1.44732">
        <ele>362</ele>
        <time>2017-02-26T08:40:32Z</time>
      </trkpt>
      <trkpt lat="45.29628" lon="1.44735">
        <ele>361</ele>
        <time>2017-02-26T08:40:34Z</time>
      </trkpt>
      <trkpt lat="45.29613" lon="1.44738">
        <ele>359</ele>
        <time>2017-02-26T08:40:36Z</time>
      </trkpt>
      <trkpt lat="45.29597" lon="1.44741">
        <ele>358</ele>
        <time>2017-02-26T08:40:38Z</time>
      </trkpt>
      <trkpt lat="45.29572" lon="1.44745">
        <ele>357</ele>
        <time>2017-02-26T08:40:41Z</time>
      </trkpt>
      <trkpt lat="45.29554" lon="1.44749">
        <ele>355</ele>
        <time>2017-02-26T08:40:43Z</time>
      </trkpt>
      <trkpt lat="45.29537" lon="1.44752">
        <ele>354</ele>
        <time>2017-02-26T08:40:45Z</time>
      </trkpt>
      <trkpt lat="45.29522" lon="1.44754">
        <ele>353</ele>
        <time>2017-02-26T08:40:47Z</time>
      </trkpt>
      <trkpt lat="45.29515" lon="1.44755">
        <ele>353</ele>
        <time>2017-02-26T08:40:48Z</time>
      </trkpt>
      <trkpt lat="45.295" lon="1.44754">
        <ele>352</ele>
        <time>2017-02-26T08:40:50Z</time>
      </trkpt>
      <trkpt lat="45.29486" lon="1.44749">
        <ele>351</ele>
        <time>2017-02-26T08:40:52Z</time>
      </trkpt>
      <trkpt lat="45.29474" lon="1.44744">
        <ele>349</ele>
        <time>2017-02-26T08:40:54Z</time>
      </trkpt>
      <trkpt lat="45.29464" lon="1.4474">
        <ele>347</ele>
        <time>2017-02-26T08:40:56Z</time>
      </trkpt>
      <trkpt lat="45.2946" lon="1.4474">
        <ele>346</ele>
        <time>2017-02-26T08:40:58Z</time>
      </trkpt>
      <trkpt lat="45.29456" lon="1.44741">
        <ele>345</ele>
        <time>2017-02-26T08:40:59Z</time>
      </trkpt>
      <trkpt lat="45.29452" lon="1.44745">
        <ele>344</ele>
        <time>2017-02-26T08:41:00Z</time>
      </trkpt>
      <trkpt lat="45.29449" lon="1.4475">
        <ele>343</ele>
        <time>2017-02-26T08:41:01Z</time>
      </trkpt>
      <trkpt lat="45.29444" lon="1.44761">
        <ele>342</ele>
        <time>2017-02-26T08:41:03Z</time>
      </trkpt>
      <trkpt lat="45.29441" lon="1.44765">
        <ele>342</ele>
        <time>2017-02-26T08:41:04Z</time>
      </trkpt>
      <trkpt lat="45.29438" lon="1.44769">
        <ele>341</ele>
        <time>2017-02-26T08:41:05Z</time>
      </trkpt>
      <trkpt lat="45.29432" lon="1.44777">
        <ele>340</ele>
        <time>2017-02-26T08:41:07Z</time>
      </trkpt>
      <trkpt lat="45.29431" lon="1.44782">
        <ele>339</ele>
        <time>2017-02-26T08:41:08Z</time>
      </trkpt>
      <trkpt lat="45.29434" lon="1.44791">
        <ele>339</ele>
        <time>2017-02-26T08:41:10Z</time>
      </trkpt>
      <trkpt lat="45.29437" lon="1.44795">
        <ele>338</ele>
        <time>2017-02-26T08:41:11Z</time>
      </trkpt>
      <trkpt lat="45.2945" lon="1.44807">
        <ele>338</ele>
        <time>2017-02-26T08:41:15Z</time>
      </trkpt>
      <trkpt lat="45.29458" lon="1.44812">
        <ele>338</ele>
        <time>2017-02-26T08:41:17Z</time>
      </trkpt>
      <trkpt lat="45.2947" lon="1.44817">
        <ele>338</ele>
        <time>2017-02-26T08:41:20Z</time>
      </trkpt>
      <trkpt lat="45.29478" lon="1.44817">
        <ele>338</ele>
        <time>2017-02-26T08:41:22Z</time>
      </trkpt>
      <trkpt lat="45.29498" lon="1.44818">
        <ele>340</ele>
        <time>2017-02-26T08:41:28Z</time>
      </trkpt>
      <trkpt lat="45.29501" lon="1.44819">
        <ele>340</ele>
        <time>2017-02-26T08:41:29Z</time>
      </trkpt>
      <trkpt lat="45.29518" lon="1.44822">
        <ele>341</ele>
        <time>2017-02-26T08:41:34Z</time>
      </trkpt>
      <trkpt lat="45.29528" lon="1.44824">
        <ele>342</ele>
        <time>2017-02-26T08:41:37Z</time>
      </trkpt>
      <trkpt lat="45.29535" lon="1.44826">
        <ele>342</ele>
        <time>2017-02-26T08:41:39Z</time>
      </trkpt>
      <trkpt lat="45.29547" lon="1.4483">
        <ele>343</ele>
        <time>2017-02-26T08:41:43Z</time>
      </trkpt>
      <trkpt lat="45.29553" lon="1.44831">
        <ele>343</ele>
        <time>2017-02-26T08:41:45Z</time>
      </trkpt>
      <trkpt lat="45.29565" lon="1.44835">
        <ele>345</ele>
        <time>2017-02-26T08:41:49Z</time>
      </trkpt>
      <trkpt lat="45.29574" lon="1.44838">
        <ele>345</ele>
        <time>2017-02-26T08:41:52Z</time>
      </trkpt>
      <trkpt lat="45.29587" lon="1.44841">
        <ele>346</ele>
        <time>2017-02-26T08:41:56Z</time>
      </trkpt>
      <trkpt lat="45.29599" lon="1.44843">
        <ele>346</ele>
        <time>2017-02-26T08:41:59Z</time>
      </trkpt>
      <trkpt lat="45.29618" lon="1.44848">
        <ele>346</ele>
        <time>2017-02-26T08:42:05Z</time>
      </trkpt>
      <trkpt lat="45.29623" lon="1.4485">
        <ele>347</ele>
        <time>2017-02-26T08:42:07Z</time>
      </trkpt>
      <trkpt lat="45.29631" lon="1.44853">
        <ele>348</ele>
        <time>2017-02-26T08:42:10Z</time>
      </trkpt>
      <trkpt lat="45.29638" lon="1.44857">
        <ele>349</ele>
        <time>2017-02-26T08:42:13Z</time>
      </trkpt>
      <trkpt lat="45.2965" lon="1.44864">
        <ele>350</ele>
        <time>2017-02-26T08:42:18Z</time>
      </trkpt>
      <trkpt lat="45.29653" lon="1.44867">
        <ele>351</ele>
        <time>2017-02-26T08:42:19Z</time>
      </trkpt>
      <trkpt lat="45.29658" lon="1.44871">
        <ele>352</ele>
        <time>2017-02-26T08:42:21Z</time>
      </trkpt>
      <trkpt lat="45.29668" lon="1.4488">
        <ele>353</ele>
        <time>2017-02-26T08:42:25Z</time>
      </trkpt>
      <trkpt lat="45.29671" lon="1.44881">
        <ele>353</ele>
        <time>2017-02-26T08:42:26Z</time>
      </trkpt>
      <trkpt lat="45.29677" lon="1.44886">
        <ele>354</ele>
        <time>2017-02-26T08:42:29Z</time>
      </trkpt>
      <trkpt lat="45.29682" lon="1.4489">
        <ele>355</ele>
        <time>2017-02-26T08:42:32Z</time>
      </trkpt>
      <trkpt lat="45.29685" lon="1.44894">
        <ele>356</ele>
        <time>2017-02-26T08:42:34Z</time>
      </trkpt>
      <trkpt lat="45.2969" lon="1.44898">
        <ele>357</ele>
        <time>2017-02-26T08:42:36Z</time>
      </trkpt>
      <trkpt lat="45.29696" lon="1.44905">
        <ele>358</ele>
        <time>2017-02-26T08:42:39Z</time>
      </trkpt>
      <trkpt lat="45.29704" lon="1.44912">
        <ele>360</ele>
        <time>2017-02-26T08:42:43Z</time>
      </trkpt>
      <trkpt lat="45.29708" lon="1.44915">
        <ele>360</ele>
        <time>2017-02-26T08:42:45Z</time>
      </trkpt>
      <trkpt lat="45.29714" lon="1.44918">
        <ele>361</ele>
        <time>2017-02-26T08:42:48Z</time>
      </trkpt>
      <trkpt lat="45.29721" lon="1.4492">
        <ele>361</ele>
        <time>2017-02-26T08:42:51Z</time>
      </trkpt>
      <trkpt lat="45.29727" lon="1.44922">
        <ele>362</ele>
        <time>2017-02-26T08:42:54Z</time>
      </trkpt>
      <trkpt lat="45.29736" lon="1.44922">
        <ele>363</ele>
        <time>2017-02-26T08:42:58Z</time>
      </trkpt>
      <trkpt lat="45.29748" lon="1.44924">
        <ele>362</ele>
        <time>2017-02-26T08:43:03Z</time>
      </trkpt>
      <trkpt lat="45.29764" lon="1.44931">
        <ele>363</ele>
        <time>2017-02-26T08:43:10Z</time>
      </trkpt>
      <trkpt lat="45.29777" lon="1.44942">
        <ele>363</ele>
        <time>2017-02-26T08:43:16Z</time>
      </trkpt>
      <trkpt lat="45.29781" lon="1.44944">
        <ele>363</ele>
        <time>2017-02-26T08:43:18Z</time>
      </trkpt>
      <trkpt lat="45.29797" lon="1.44951">
        <ele>362</ele>
        <time>2017-02-26T08:43:24Z</time>
      </trkpt>
      <trkpt lat="45.2981" lon="1.44954">
        <ele>364</ele>
        <time>2017-02-26T08:43:30Z</time>
      </trkpt>
      <trkpt lat="45.29816" lon="1.44955">
        <ele>364</ele>
        <time>2017-02-26T08:43:33Z</time>
      </trkpt>
      <trkpt lat="45.29823" lon="1.44954">
        <ele>364</ele>
        <time>2017-02-26T08:43:36Z</time>
      </trkpt>
      <trkpt lat="45.29837" lon="1.44958">
        <ele>365</ele>
        <time>2017-02-26T08:43:43Z</time>
      </trkpt>
      <trkpt lat="45.29839" lon="1.44959">
        <ele>365</ele>
        <time>2017-02-26T08:43:44Z</time>
      </trkpt>
      <trkpt lat="45.29851" lon="1.44962">
        <ele>367</ele>
        <time>2017-02-26T08:43:50Z</time>
      </trkpt>
      <trkpt lat="45.29853" lon="1.44963">
        <ele>367</ele>
        <time>2017-02-26T08:43:51Z</time>
      </trkpt>
      <trkpt lat="45.29872" lon="1.44966">
        <ele>368</ele>
        <time>2017-02-26T08:44:00Z</time>
      </trkpt>
      <trkpt lat="45.29874" lon="1.44966">
        <ele>368</ele>
        <time>2017-02-26T08:44:01Z</time>
      </trkpt>
      <trkpt lat="45.299" lon="1.4497">
        <ele>368</ele>
        <time>2017-02-26T08:44:12Z</time>
      </trkpt>
      <trkpt lat="45.29904" lon="1.4497">
        <ele>369</ele>
        <time>2017-02-26T08:44:14Z</time>
      </trkpt>
      <trkpt lat="45.29923" lon="1.44971">
        <ele>369</ele>
        <time>2017-02-26T08:44:22Z</time>
      </trkpt>
      <trkpt lat="45.2993" lon="1.44972">
        <ele>370</ele>
        <time>2017-02-26T08:44:25Z</time>
      </trkpt>
      <trkpt lat="45.29944" lon="1.44973">
        <ele>370</ele>
        <time>2017-02-26T08:44:31Z</time>
      </trkpt>
      <trkpt lat="45.29974" lon="1.44978">
        <ele>368</ele>
        <time>2017-02-26T08:44:40Z</time>
      </trkpt>
      <trkpt lat="45.29989" lon="1.44982">
        <ele>367</ele>
        <time>2017-02-26T08:44:43Z</time>
      </trkpt>
      <trkpt lat="45.29998" lon="1.44988">
        <ele>366</ele>
        <time>2017-02-26T08:44:45Z</time>
      </trkpt>
      <trkpt lat="45.30002" lon="1.44994">
        <ele>366</ele>
        <time>2017-02-26T08:44:46Z</time>
      </trkpt>
      <trkpt lat="45.30008" lon="1.45008">
        <ele>365</ele>
        <time>2017-02-26T08:44:48Z</time>
      </trkpt>
      <trkpt lat="45.30018" lon="1.45031">
        <ele>364</ele>
        <time>2017-02-26T08:44:52Z</time>
      </trkpt>
      <trkpt lat="45.3002" lon="1.45037">
        <ele>364</ele>
        <time>2017-02-26T08:44:53Z</time>
      </trkpt>
      <trkpt lat="45.30024" lon="1.45057">
        <ele>364</ele>
        <time>2017-02-26T08:44:58Z</time>
      </trkpt>
      <trkpt lat="45.30022" lon="1.45061">
        <ele>364</ele>
        <time>2017-02-26T08:44:59Z</time>
      </trkpt>
      <trkpt lat="45.30017" lon="1.45068">
        <ele>364</ele>
        <time>2017-02-26T08:45:01Z</time>
      </trkpt>
      <trkpt lat="45.30001" lon="1.45087">
        <ele>364</ele>
        <time>2017-02-26T08:45:06Z</time>
      </trkpt>
      <trkpt lat="45.29969" lon="1.4512">
        <ele>365</ele>
        <time>2017-02-26T08:45:16Z</time>
      </trkpt>
      <trkpt lat="45.29933" lon="1.45158">
        <ele>364</ele>
        <time>2017-02-26T08:45:25Z</time>
      </trkpt>
      <trkpt lat="45.29921" lon="1.45178">
        <ele>364</ele>
        <time>2017-02-26T08:45:28Z</time>
      </trkpt>
      <trkpt lat="45.29916" lon="1.45191">
        <ele>364</ele>
        <time>2017-02-26T08:45:30Z</time>
      </trkpt>
      <trkpt lat="45.29905" lon="1.45214">
        <ele>364</ele>
        <time>2017-02-26T08:45:35Z</time>
      </trkpt>
      <trkpt lat="45.29901" lon="1.45223">
        <ele>365</ele>
        <time>2017-02-26T08:45:38Z</time>
      </trkpt>
      <trkpt lat="45.29897" lon="1.45231">
        <ele>366</ele>
        <time>2017-02-26T08:45:41Z</time>
      </trkpt>
      <trkpt lat="45.29896" lon="1.45234">
        <ele>366</ele>
        <time>2017-02-26T08:45:42Z</time>
      </trkpt>
      <trkpt lat="45.2989" lon="1.4525">
        <ele>367</ele>
        <time>2017-02-26T08:45:47Z</time>
      </trkpt>
      <trkpt lat="45.29885" lon="1.45263">
        <ele>368</ele>
        <time>2017-02-26T08:45:51Z</time>
      </trkpt>
      <trkpt lat="45.29881" lon="1.45278">
        <ele>369</ele>
        <time>2017-02-26T08:45:56Z</time>
      </trkpt>
      <trkpt lat="45.29882" lon="1.45282">
        <ele>369</ele>
        <time>2017-02-26T08:45:58Z</time>
      </trkpt>
      <trkpt lat="45.29884" lon="1.45286">
        <ele>369</ele>
        <time>2017-02-26T08:46:53Z</time>
      </trkpt>
      <trkpt lat="45.29886" lon="1.45287">
        <ele>369</ele>
        <time>2017-02-26T08:46:54Z</time>
      </trkpt>
      <trkpt lat="45.29892" lon="1.45286">
        <ele>369</ele>
        <time>2017-02-26T08:46:57Z</time>
      </trkpt>
      <trkpt lat="45.29894" lon="1.45285">
        <ele>370</ele>
        <time>2017-02-26T08:46:58Z</time>
      </trkpt>
      <trkpt lat="45.29897" lon="1.45284">
        <ele>370</ele>
        <time>2017-02-26T08:46:59Z</time>
      </trkpt>
      <trkpt lat="45.29902" lon="1.45283">
        <ele>371</ele>
        <time>2017-02-26T08:47:01Z</time>
      </trkpt>
      <trkpt lat="45.29915" lon="1.45284">
        <ele>372</ele>
        <time>2017-02-26T08:47:06Z</time>
      </trkpt>
      <trkpt lat="45.29921" lon="1.45287">
        <ele>374</ele>
        <time>2017-02-26T08:47:09Z</time>
      </trkpt>
      <trkpt lat="45.29931" lon="1.45292">
        <ele>375</ele>
        <time>2017-02-26T08:47:13Z</time>
      </trkpt>
      <trkpt lat="45.29945" lon="1.45308">
        <ele>376</ele>
        <time>2017-02-26T08:47:19Z</time>
      </trkpt>
      <trkpt lat="45.29952" lon="1.45316">
        <ele>377</ele>
        <time>2017-02-26T08:47:22Z</time>
      </trkpt>
      <trkpt lat="45.29962" lon="1.45331">
        <ele>378</ele>
        <time>2017-02-26T08:47:27Z</time>
      </trkpt>
      <trkpt lat="45.29972" lon="1.45345">
        <ele>379</ele>
        <time>2017-02-26T08:47:32Z</time>
      </trkpt>
      <trkpt lat="45.29979" lon="1.45358">
        <ele>379</ele>
        <time>2017-02-26T08:47:36Z</time>
      </trkpt>
      <trkpt lat="45.29991" lon="1.45378">
        <ele>380</ele>
        <time>2017-02-26T08:47:43Z</time>
      </trkpt>
      <trkpt lat="45.29994" lon="1.45383">
        <ele>381</ele>
        <time>2017-02-26T08:47:45Z</time>
      </trkpt>
      <trkpt lat="45.30002" lon="1.45395">
        <ele>381</ele>
        <time>2017-02-26T08:47:50Z</time>
      </trkpt>
      <trkpt lat="45.30008" lon="1.45404">
        <ele>382</ele>
        <time>2017-02-26T08:47:54Z</time>
      </trkpt>
      <trkpt lat="45.30018" lon="1.45423">
        <ele>383</ele>
        <time>2017-02-26T08:48:02Z</time>
      </trkpt>
      <trkpt lat="45.30023" lon="1.45432">
        <ele>384</ele>
        <time>2017-02-26T08:48:06Z</time>
      </trkpt>
      <trkpt lat="45.30029" lon="1.45443">
        <ele>385</ele>
        <time>2017-02-26T08:48:11Z</time>
      </trkpt>
      <trkpt lat="45.3003" lon="1.45445">
        <ele>386</ele>
        <time>2017-02-26T08:48:12Z</time>
      </trkpt>
      <trkpt lat="45.30033" lon="1.45452">
        <ele>387</ele>
        <time>2017-02-26T08:48:15Z</time>
      </trkpt>
      <trkpt lat="45.30035" lon="1.45463">
        <ele>387</ele>
        <time>2017-02-26T08:48:19Z</time>
      </trkpt>
      <trkpt lat="45.30032" lon="1.4547">
        <ele>388</ele>
        <time>2017-02-26T08:48:22Z</time>
      </trkpt>
      <trkpt lat="45.30027" lon="1.45474">
        <ele>388</ele>
        <time>2017-02-26T08:48:24Z</time>
      </trkpt>
      <trkpt lat="45.30007" lon="1.45493">
        <ele>388</ele>
        <time>2017-02-26T08:48:32Z</time>
      </trkpt>
      <trkpt lat="45.29982" lon="1.45515">
        <ele>388</ele>
        <time>2017-02-26T08:48:40Z</time>
      </trkpt>
      <trkpt lat="45.29956" lon="1.45539">
        <ele>388</ele>
        <time>2017-02-26T08:48:48Z</time>
      </trkpt>
      <trkpt lat="45.29924" lon="1.45569">
        <ele>388</ele>
        <time>2017-02-26T08:48:57Z</time>
      </trkpt>
      <trkpt lat="45.29892" lon="1.4559">
        <ele>388</ele>
        <time>2017-02-26T08:49:05Z</time>
      </trkpt>
      <trkpt lat="45.29851" lon="1.45613">
        <ele>388</ele>
        <time>2017-02-26T08:49:14Z</time>
      </trkpt>
      <trkpt lat="45.29814" lon="1.45631">
        <ele>389</ele>
        <time>2017-02-26T08:49:22Z</time>
      </trkpt>
      <trkpt lat="45.2981" lon="1.45633">
        <ele>389</ele>
        <time>2017-02-26T08:49:23Z</time>
      </trkpt>
      <trkpt lat="45.29772" lon="1.45645">
        <ele>389</ele>
        <time>2017-02-26T08:49:32Z</time>
      </trkpt>
      <trkpt lat="45.29741" lon="1.45655">
        <ele>388</ele>
        <time>2017-02-26T08:49:38Z</time>
      </trkpt>
      <trkpt lat="45.29716" lon="1.45668">
        <ele>388</ele>
        <time>2017-02-26T08:49:43Z</time>
      </trkpt>
      <trkpt lat="45.2971" lon="1.45672">
        <ele>387</ele>
        <time>2017-02-26T08:49:44Z</time>
      </trkpt>
      <trkpt lat="45.29685" lon="1.45698">
        <ele>386</ele>
        <time>2017-02-26T08:49:49Z</time>
      </trkpt>
      <trkpt lat="45.29681" lon="1.45705">
        <ele>386</ele>
        <time>2017-02-26T08:49:50Z</time>
      </trkpt>
      <trkpt lat="45.29659" lon="1.45745">
        <ele>385</ele>
        <time>2017-02-26T08:49:56Z</time>
      </trkpt>
      <trkpt lat="45.29654" lon="1.4575">
        <ele>385</ele>
        <time>2017-02-26T08:49:57Z</time>
      </trkpt>
      <trkpt lat="45.29633" lon="1.45762">
        <ele>384</ele>
        <time>2017-02-26T08:50:01Z</time>
      </trkpt>
      <trkpt lat="45.29628" lon="1.45762">
        <ele>384</ele>
        <time>2017-02-26T08:50:02Z</time>
      </trkpt>
      <trkpt lat="45.29622" lon="1.45762">
        <ele>384</ele>
        <time>2017-02-26T08:50:03Z</time>
      </trkpt>
      <trkpt lat="45.29617" lon="1.45761">
        <ele>384</ele>
        <time>2017-02-26T08:50:04Z</time>
      </trkpt>
      <trkpt lat="45.29612" lon="1.4576">
        <ele>384</ele>
        <time>2017-02-26T08:50:05Z</time>
      </trkpt>
      <trkpt lat="45.29582" lon="1.45753">
        <ele>383</ele>
        <time>2017-02-26T08:50:12Z</time>
      </trkpt>
      <trkpt lat="45.29565" lon="1.45751">
        <ele>383</ele>
        <time>2017-02-26T08:50:18Z</time>
      </trkpt>
      <trkpt lat="45.29548" lon="1.45749">
        <ele>383</ele>
        <time>2017-02-26T08:51:26Z</time>
      </trkpt>
      <trkpt lat="45.29542" lon="1.4575">
        <ele>383</ele>
        <time>2017-02-26T08:51:29Z</time>
      </trkpt>
      <trkpt lat="45.29526" lon="1.45748">
        <ele>383</ele>
        <time>2017-02-26T08:51:35Z</time>
      </trkpt>
      <trkpt lat="45.29501" lon="1.45748">
        <ele>382</ele>
        <time>2017-02-26T08:51:41Z</time>
      </trkpt>
      <trkpt lat="45.29496" lon="1.45748">
        <ele>382</ele>
        <time>2017-02-26T08:51:42Z</time>
      </trkpt>
      <trkpt lat="45.2946" lon="1.4575">
        <ele>382</ele>
        <time>2017-02-26T08:51:49Z</time>
      </trkpt>
      <trkpt lat="45.29425" lon="1.45741">
        <ele>382</ele>
        <time>2017-02-26T08:51:56Z</time>
      </trkpt>
      <trkpt lat="45.29372" lon="1.45718">
        <ele>382</ele>
        <time>2017-02-26T08:52:07Z</time>
      </trkpt>
      <trkpt lat="45.29363" lon="1.45714">
        <ele>382</ele>
        <time>2017-02-26T08:52:09Z</time>
      </trkpt>
      <trkpt lat="45.29332" lon="1.45693">
        <ele>382</ele>
        <time>2017-02-26T08:52:16Z</time>
      </trkpt>
      <trkpt lat="45.29301" lon="1.45665">
        <ele>383</ele>
        <time>2017-02-26T08:52:25Z</time>
      </trkpt>
      <trkpt lat="45.29275" lon="1.45638">
        <ele>383</ele>
        <time>2017-02-26T08:52:33Z</time>
      </trkpt>
      <trkpt lat="45.29242" lon="1.45602">
        <ele>383</ele>
        <time>2017-02-26T08:52:41Z</time>
      </trkpt>
      <trkpt lat="45.2922" lon="1.45576">
        <ele>381</ele>
        <time>2017-02-26T08:52:45Z</time>
      </trkpt>
      <trkpt lat="45.29215" lon="1.45569">
        <ele>381</ele>
        <time>2017-02-26T08:52:46Z</time>
      </trkpt>
      <trkpt lat="45.29211" lon="1.45562">
        <ele>380</ele>
        <time>2017-02-26T08:52:47Z</time>
      </trkpt>
      <trkpt lat="45.29203" lon="1.45552">
        <ele>379</ele>
        <time>2017-02-26T08:52:49Z</time>
      </trkpt>
      <trkpt lat="45.29199" lon="1.45547">
        <ele>378</ele>
        <time>2017-02-26T08:52:50Z</time>
      </trkpt>
      <trkpt lat="45.29195" lon="1.45542">
        <ele>378</ele>
        <time>2017-02-26T08:52:51Z</time>
      </trkpt>
      <trkpt lat="45.2919" lon="1.4554">
        <ele>378</ele>
        <time>2017-02-26T08:52:52Z</time>
      </trkpt>
      <trkpt lat="45.29182" lon="1.45543">
        <ele>377</ele>
        <time>2017-02-26T08:52:54Z</time>
      </trkpt>
      <trkpt lat="45.2918" lon="1.45555">
        <ele>377</ele>
        <time>2017-02-26T08:52:57Z</time>
      </trkpt>
      <trkpt lat="45.29179" lon="1.45564">
        <ele>377</ele>
        <time>2017-02-26T08:52:59Z</time>
      </trkpt>
      <trkpt lat="45.29177" lon="1.45592">
        <ele>377</ele>
        <time>2017-02-26T08:53:04Z</time>
      </trkpt>
      <trkpt lat="45.29172" lon="1.45641">
        <ele>377</ele>
        <time>2017-02-26T08:53:13Z</time>
      </trkpt>
      <trkpt lat="45.29169" lon="1.45657">
        <ele>378</ele>
        <time>2017-02-26T08:53:16Z</time>
      </trkpt>
      <trkpt lat="45.29162" lon="1.45668">
        <ele>377</ele>
        <time>2017-02-26T08:53:18Z</time>
      </trkpt>
      <trkpt lat="45.29146" lon="1.45675">
        <ele>377</ele>
        <time>2017-02-26T08:53:21Z</time>
      </trkpt>
      <trkpt lat="45.29141" lon="1.45679">
        <ele>377</ele>
        <time>2017-02-26T08:53:22Z</time>
      </trkpt>
      <trkpt lat="45.29135" lon="1.45682">
        <ele>376</ele>
        <time>2017-02-26T08:53:23Z</time>
      </trkpt>
      <trkpt lat="45.29115" lon="1.45693">
        <ele>376</ele>
        <time>2017-02-26T08:53:26Z</time>
      </trkpt>
      <trkpt lat="45.29109" lon="1.45698">
        <ele>375</ele>
        <time>2017-02-26T08:53:27Z</time>
      </trkpt>
      <trkpt lat="45.2909" lon="1.45711">
        <ele>374</ele>
        <time>2017-02-26T08:53:30Z</time>
      </trkpt>
      <trkpt lat="45.29084" lon="1.45715">
        <ele>373</ele>
        <time>2017-02-26T08:53:31Z</time>
      </trkpt>
      <trkpt lat="45.29073" lon="1.45722">
        <ele>373</ele>
        <time>2017-02-26T08:53:33Z</time>
      </trkpt>
      <trkpt lat="45.29051" lon="1.45738">
        <ele>371</ele>
        <time>2017-02-26T08:53:37Z</time>
      </trkpt>
      <trkpt lat="45.29034" lon="1.45754">
        <ele>370</ele>
        <time>2017-02-26T08:53:40Z</time>
      </trkpt>
      <trkpt lat="45.29023" lon="1.45767">
        <ele>369</ele>
        <time>2017-02-26T08:53:42Z</time>
      </trkpt>
      <trkpt lat="45.29009" lon="1.45785">
        <ele>368</ele>
        <time>2017-02-26T08:53:45Z</time>
      </trkpt>
      <trkpt lat="45.29" lon="1.458">
        <ele>366</ele>
        <time>2017-02-26T08:53:47Z</time>
      </trkpt>
      <trkpt lat="45.2899" lon="1.4582">
        <ele>365</ele>
        <time>2017-02-26T08:53:49Z</time>
      </trkpt>
      <trkpt lat="45.28982" lon="1.45838">
        <ele>363</ele>
        <time>2017-02-26T08:53:51Z</time>
      </trkpt>
      <trkpt lat="45.28978" lon="1.45846">
        <ele>362</ele>
        <time>2017-02-26T08:53:52Z</time>
      </trkpt>
      <trkpt lat="45.28975" lon="1.45853">
        <ele>361</ele>
        <time>2017-02-26T08:53:53Z</time>
      </trkpt>
      <trkpt lat="45.28972" lon="1.45859">
        <ele>360</ele>
        <time>2017-02-26T08:53:54Z</time>
      </trkpt>
      <trkpt lat="45.28969" lon="1.45865">
        <ele>359</ele>
        <time>2017-02-26T08:53:55Z</time>
      </trkpt>
      <trkpt lat="45.28966" lon="1.45871">
        <ele>358</ele>
        <time>2017-02-26T08:53:56Z</time>
      </trkpt>
      <trkpt lat="45.28964" lon="1.45878">
        <ele>357</ele>
        <time>2017-02-26T08:53:57Z</time>
      </trkpt>
      <trkpt lat="45.28963" lon="1.45885">
        <ele>355</ele>
        <time>2017-02-26T08:53:58Z</time>
      </trkpt>
      <trkpt lat="45.28965" lon="1.45901">
        <ele>354</ele>
        <time>2017-02-26T08:54:00Z</time>
      </trkpt>
      <trkpt lat="45.28969" lon="1.45913">
        <ele>352</ele>
        <time>2017-02-26T08:54:02Z</time>
      </trkpt>
      <trkpt lat="45.2897" lon="1.45919">
        <ele>352</ele>
        <time>2017-02-26T08:54:03Z</time>
      </trkpt>
      <trkpt lat="45.28971" lon="1.45924">
        <ele>352</ele>
        <time>2017-02-26T08:54:04Z</time>
      </trkpt>
      <trkpt lat="45.2898" lon="1.45964">
        <ele>353</ele>
        <time>2017-02-26T08:54:12Z</time>
      </trkpt>
      <trkpt lat="45.28986" lon="1.4598">
        <ele>354</ele>
        <time>2017-02-26T08:54:15Z</time>
      </trkpt>
      <trkpt lat="45.28994" lon="1.45996">
        <ele>354</ele>
        <time>2017-02-26T08:54:18Z</time>
      </trkpt>
      <trkpt lat="45.29009" lon="1.46037">
        <ele>353</ele>
        <time>2017-02-26T08:54:25Z</time>
      </trkpt>
      <trkpt lat="45.29013" lon="1.46055">
        <ele>353</ele>
        <time>2017-02-26T08:54:29Z</time>
      </trkpt>
      <trkpt lat="45.2901" lon="1.46063">
        <ele>352</ele>
        <time>2017-02-26T08:54:31Z</time>
      </trkpt>
      <trkpt lat="45.29007" lon="1.46065">
        <ele>352</ele>
        <time>2017-02-26T08:54:32Z</time>
      </trkpt>
      <trkpt lat="45.29" lon="1.4607">
        <ele>351</ele>
        <time>2017-02-26T08:54:34Z</time>
      </trkpt>
      <trkpt lat="45.28995" lon="1.46074">
        <ele>350</ele>
        <time>2017-02-26T08:54:36Z</time>
      </trkpt>
      <trkpt lat="45.28993" lon="1.46077">
        <ele>350</ele>
        <time>2017-02-26T08:54:37Z</time>
      </trkpt>
      <trkpt lat="45.28993" lon="1.46081">
        <ele>349</ele>
        <time>2017-02-26T08:54:38Z</time>
      </trkpt>
      <trkpt lat="45.28995" lon="1.46084">
        <ele>349</ele>
        <time>2017-02-26T08:54:39Z</time>
      </trkpt>
      <trkpt lat="45.29" lon="1.46091">
        <ele>348</ele>
        <time>2017-02-26T08:54:41Z</time>
      </trkpt>
      <trkpt lat="45.29007" lon="1.46098">
        <ele>347</ele>
        <time>2017-02-26T08:54:43Z</time>
      </trkpt>
      <trkpt lat="45.29016" lon="1.46107">
        <ele>345</ele>
        <time>2017-02-26T08:54:45Z</time>
      </trkpt>
      <trkpt lat="45.29026" lon="1.46116">
        <ele>344</ele>
        <time>2017-02-26T08:54:47Z</time>
      </trkpt>
      <trkpt lat="45.29033" lon="1.46125">
        <ele>342</ele>
        <time>2017-02-26T08:54:49Z</time>
      </trkpt>
      <trkpt lat="45.29033" lon="1.46129">
        <ele>342</ele>
        <time>2017-02-26T08:54:50Z</time>
      </trkpt>
      <trkpt lat="45.29032" lon="1.46134">
        <ele>341</ele>
        <time>2017-02-26T08:54:51Z</time>
      </trkpt>
      <trkpt lat="45.2903" lon="1.46146">
        <ele>340</ele>
        <time>2017-02-26T08:54:54Z</time>
      </trkpt>
      <trkpt lat="45.29028" lon="1.4615">
        <ele>340</ele>
        <time>2017-02-26T08:54:55Z</time>
      </trkpt>
      <trkpt lat="45.29023" lon="1.46164">
        <ele>339</ele>
        <time>2017-02-26T08:54:58Z</time>
      </trkpt>
      <trkpt lat="45.29021" lon="1.46169">
        <ele>338</ele>
        <time>2017-02-26T08:54:59Z</time>
      </trkpt>
      <trkpt lat="45.29011" lon="1.46196">
        <ele>338</ele>
        <time>2017-02-26T08:55:05Z</time>
      </trkpt>
      <trkpt lat="45.29006" lon="1.46221">
        <ele>339</ele>
        <time>2017-02-26T08:55:12Z</time>
      </trkpt>
      <trkpt lat="45.28999" lon="1.46236">
        <ele>339</ele>
        <time>2017-02-26T08:55:17Z</time>
      </trkpt>
      <trkpt lat="45.28987" lon="1.46253">
        <ele>337</ele>
        <time>2017-02-26T08:55:22Z</time>
      </trkpt>
      <trkpt lat="45.28984" lon="1.46257">
        <ele>337</ele>
        <time>2017-02-26T08:55:23Z</time>
      </trkpt>
      <trkpt lat="45.2898" lon="1.46262">
        <ele>336</ele>
        <time>2017-02-26T08:55:24Z</time>
      </trkpt>
      <trkpt lat="45.28977" lon="1.46267">
        <ele>336</ele>
        <time>2017-02-26T08:55:25Z</time>
      </trkpt>
      <trkpt lat="45.28972" lon="1.4628">
        <ele>336</ele>
        <time>2017-02-26T08:55:27Z</time>
      </trkpt>
      <trkpt lat="45.28969" lon="1.46299">
        <ele>335</ele>
        <time>2017-02-26T08:55:30Z</time>
      </trkpt>
      <trkpt lat="45.28967" lon="1.46313">
        <ele>334</ele>
        <time>2017-02-26T08:55:32Z</time>
      </trkpt>
      <trkpt lat="45.28966" lon="1.4632">
        <ele>334</ele>
        <time>2017-02-26T08:55:33Z</time>
      </trkpt>
      <trkpt lat="45.28969" lon="1.46345">
        <ele>332</ele>
        <time>2017-02-26T08:55:37Z</time>
      </trkpt>
      <trkpt lat="45.28972" lon="1.46357">
        <ele>331</ele>
        <time>2017-02-26T08:55:39Z</time>
      </trkpt>
      <trkpt lat="45.28974" lon="1.46364">
        <ele>331</ele>
        <time>2017-02-26T08:55:40Z</time>
      </trkpt>
      <trkpt lat="45.28978" lon="1.46376">
        <ele>329</ele>
        <time>2017-02-26T08:55:42Z</time>
      </trkpt>
      <trkpt lat="45.2898" lon="1.46382">
        <ele>329</ele>
        <time>2017-02-26T08:55:43Z</time>
      </trkpt>
      <trkpt lat="45.28983" lon="1.46389">
        <ele>328</ele>
        <time>2017-02-26T08:55:44Z</time>
      </trkpt>
      <trkpt lat="45.2899" lon="1.46402">
        <ele>327</ele>
        <time>2017-02-26T08:55:46Z</time>
      </trkpt>
      <trkpt lat="45.28994" lon="1.46407">
        <ele>326</ele>
        <time>2017-02-26T08:55:47Z</time>
      </trkpt>
      <trkpt lat="45.28998" lon="1.46412">
        <ele>325</ele>
        <time>2017-02-26T08:55:48Z</time>
      </trkpt>
      <trkpt lat="45.29005" lon="1.4642">
        <ele>324</ele>
        <time>2017-02-26T08:55:50Z</time>
      </trkpt>
      <trkpt lat="45.29009" lon="1.46427">
        <ele>324</ele>
        <time>2017-02-26T08:55:51Z</time>
      </trkpt>
      <trkpt lat="45.29013" lon="1.46435">
        <ele>323</ele>
        <time>2017-02-26T08:55:52Z</time>
      </trkpt>
      <trkpt lat="45.29018" lon="1.46442">
        <ele>322</ele>
        <time>2017-02-26T08:55:53Z</time>
      </trkpt>
      <trkpt lat="45.29024" lon="1.46447">
        <ele>321</ele>
        <time>2017-02-26T08:55:54Z</time>
      </trkpt>
      <trkpt lat="45.29037" lon="1.46457">
        <ele>320</ele>
        <time>2017-02-26T08:55:56Z</time>
      </trkpt>
      <trkpt lat="45.29057" lon="1.46476">
        <ele>319</ele>
        <time>2017-02-26T08:55:59Z</time>
      </trkpt>
      <trkpt lat="45.2907" lon="1.46488">
        <ele>318</ele>
        <time>2017-02-26T08:56:01Z</time>
      </trkpt>
      <trkpt lat="45.29075" lon="1.46494">
        <ele>318</ele>
        <time>2017-02-26T08:56:02Z</time>
      </trkpt>
      <trkpt lat="45.29088" lon="1.46507">
        <ele>317</ele>
        <time>2017-02-26T08:56:05Z</time>
      </trkpt>
      <trkpt lat="45.29092" lon="1.4651">
        <ele>317</ele>
        <time>2017-02-26T08:56:06Z</time>
      </trkpt>
      <trkpt lat="45.29102" lon="1.46516">
        <ele>316</ele>
        <time>2017-02-26T08:56:09Z</time>
      </trkpt>
      <trkpt lat="45.2911" lon="1.46519">
        <ele>316</ele>
        <time>2017-02-26T08:56:12Z</time>
      </trkpt>
      <trkpt lat="45.29114" lon="1.4652">
        <ele>315</ele>
        <time>2017-02-26T08:56:13Z</time>
      </trkpt>
      <trkpt lat="45.29127" lon="1.46525">
        <ele>315</ele>
        <time>2017-02-26T08:56:16Z</time>
      </trkpt>
      <trkpt lat="45.29132" lon="1.46525">
        <ele>315</ele>
        <time>2017-02-26T08:56:17Z</time>
      </trkpt>
      <trkpt lat="45.29139" lon="1.46525">
        <ele>315</ele>
        <time>2017-02-26T08:56:20Z</time>
      </trkpt>
      <trkpt lat="45.29146" lon="1.46527">
        <ele>317</ele>
        <time>2017-02-26T08:56:23Z</time>
      </trkpt>
      <trkpt lat="45.29149" lon="1.46528">
        <ele>317</ele>
        <time>2017-02-26T08:56:24Z</time>
      </trkpt>
      <trkpt lat="45.29153" lon="1.46527">
        <ele>318</ele>
        <time>2017-02-26T08:56:25Z</time>
      </trkpt>
      <trkpt lat="45.29156" lon="1.46526">
        <ele>318</ele>
        <time>2017-02-26T08:56:26Z</time>
      </trkpt>
      <trkpt lat="45.29163" lon="1.46526">
        <ele>319</ele>
        <time>2017-02-26T08:56:28Z</time>
      </trkpt>
      <trkpt lat="45.29167" lon="1.46524">
        <ele>320</ele>
        <time>2017-02-26T08:56:29Z</time>
      </trkpt>
      <trkpt lat="45.29174" lon="1.46523">
        <ele>321</ele>
        <time>2017-02-26T08:56:31Z</time>
      </trkpt>
      <trkpt lat="45.29176" lon="1.46521">
        <ele>321</ele>
        <time>2017-02-26T08:56:32Z</time>
      </trkpt>
      <trkpt lat="45.29179" lon="1.4652">
        <ele>322</ele>
        <time>2017-02-26T08:56:33Z</time>
      </trkpt>
      <trkpt lat="45.29184" lon="1.46518">
        <ele>323</ele>
        <time>2017-02-26T08:56:35Z</time>
      </trkpt>
      <trkpt lat="45.29191" lon="1.46517">
        <ele>324</ele>
        <time>2017-02-26T08:56:37Z</time>
      </trkpt>
      <trkpt lat="45.29195" lon="1.46517">
        <ele>324</ele>
        <time>2017-02-26T08:56:38Z</time>
      </trkpt>
      <trkpt lat="45.29204" lon="1.46517">
        <ele>326</ele>
        <time>2017-02-26T08:56:41Z</time>
      </trkpt>
      <trkpt lat="45.29209" lon="1.46517">
        <ele>327</ele>
        <time>2017-02-26T08:56:43Z</time>
      </trkpt>
      <trkpt lat="45.29215" lon="1.46518">
        <ele>328</ele>
        <time>2017-02-26T08:56:45Z</time>
      </trkpt>
      <trkpt lat="45.29223" lon="1.46519">
        <ele>329</ele>
        <time>2017-02-26T08:56:48Z</time>
      </trkpt>
      <trkpt lat="45.29228" lon="1.4652">
        <ele>330</ele>
        <time>2017-02-26T08:56:50Z</time>
      </trkpt>
      <trkpt lat="45.29231" lon="1.46519">
        <ele>331</ele>
        <time>2017-02-26T08:56:51Z</time>
      </trkpt>
      <trkpt lat="45.29235" lon="1.46518">
        <ele>332</ele>
        <time>2017-02-26T08:56:53Z</time>
      </trkpt>
      <trkpt lat="45.29237" lon="1.46518">
        <ele>333</ele>
        <time>2017-02-26T08:56:54Z</time>
      </trkpt>
      <trkpt lat="45.29239" lon="1.46519">
        <ele>334</ele>
        <time>2017-02-26T08:56:55Z</time>
      </trkpt>
      <trkpt lat="45.29435" lon="1.46492">
        <ele>355</ele>
        <time>2017-02-26T09:01:31Z</time>
      </trkpt>
      <trkpt lat="45.29438" lon="1.46499">
        <ele>355</ele>
        <time>2017-02-26T09:01:33Z</time>
      </trkpt>
      <trkpt lat="45.2944" lon="1.46501">
        <ele>354</ele>
        <time>2017-02-26T09:01:34Z</time>
      </trkpt>
      <trkpt lat="45.29446" lon="1.46505">
        <ele>353</ele>
        <time>2017-02-26T09:01:36Z</time>
      </trkpt>
      <trkpt lat="45.2945" lon="1.46507">
        <ele>353</ele>
        <time>2017-02-26T09:01:37Z</time>
      </trkpt>
      <trkpt lat="45.29455" lon="1.4651">
        <ele>352</ele>
        <time>2017-02-26T09:01:38Z</time>
      </trkpt>
      <trkpt lat="45.29465" lon="1.46513">
        <ele>350</ele>
        <time>2017-02-26T09:01:40Z</time>
      </trkpt>
      <trkpt lat="45.29476" lon="1.46516">
        <ele>349</ele>
        <time>2017-02-26T09:01:42Z</time>
      </trkpt>
      <trkpt lat="45.2949" lon="1.46518">
        <ele>347</ele>
        <time>2017-02-26T09:01:44Z</time>
      </trkpt>
      <trkpt lat="45.29505" lon="1.46519">
        <ele>345</ele>
        <time>2017-02-26T09:01:46Z</time>
      </trkpt>
      <trkpt lat="45.29517" lon="1.46518">
        <ele>344</ele>
        <time>2017-02-26T09:01:48Z</time>
      </trkpt>
      <trkpt lat="45.29522" lon="1.46516">
        <ele>343</ele>
        <time>2017-02-26T09:01:49Z</time>
      </trkpt>
      <trkpt lat="45.29527" lon="1.46515">
        <ele>342</ele>
        <time>2017-02-26T09:01:50Z</time>
      </trkpt>
      <trkpt lat="45.29539" lon="1.46513">
        <ele>341</ele>
        <time>2017-02-26T09:01:52Z</time>
      </trkpt>
      <trkpt lat="45.29544" lon="1.46513">
        <ele>340</ele>
        <time>2017-02-26T09:01:53Z</time>
      </trkpt>
      <trkpt lat="45.29549" lon="1.46514">
        <ele>339</ele>
        <time>2017-02-26T09:01:54Z</time>
      </trkpt>
      <trkpt lat="45.29553" lon="1.46517">
        <ele>338</ele>
        <time>2017-02-26T09:01:55Z</time>
      </trkpt>
      <trkpt lat="45.29556" lon="1.46521">
        <ele>338</ele>
        <time>2017-02-26T09:01:56Z</time>
      </trkpt>
      <trkpt lat="45.29558" lon="1.46527">
        <ele>337</ele>
        <time>2017-02-26T09:01:58Z</time>
      </trkpt>
      <trkpt lat="45.2956" lon="1.46534">
        <ele>336</ele>
        <time>2017-02-26T09:02:00Z</time>
      </trkpt>
      <trkpt lat="45.29561" lon="1.46539">
        <ele>335</ele>
        <time>2017-02-26T09:02:01Z</time>
      </trkpt>
      <trkpt lat="45.29562" lon="1.46543">
        <ele>335</ele>
        <time>2017-02-26T09:02:02Z</time>
      </trkpt>
      <trkpt lat="45.29572" lon="1.46558">
        <ele>334</ele>
        <time>2017-02-26T09:02:07Z</time>
      </trkpt>
      <trkpt lat="45.29584" lon="1.46569">
        <ele>335</ele>
        <time>2017-02-26T09:02:12Z</time>
      </trkpt>
      <trkpt lat="45.29602" lon="1.46584">
        <ele>335</ele>
        <time>2017-02-26T09:02:17Z</time>
      </trkpt>
      <trkpt lat="45.2963" lon="1.46607">
        <ele>334</ele>
        <time>2017-02-26T09:02:23Z</time>
      </trkpt>
      <trkpt lat="45.29655" lon="1.46635">
        <ele>334</ele>
        <time>2017-02-26T09:02:27Z</time>
      </trkpt>
      <trkpt lat="45.29662" lon="1.4664">
        <ele>334</ele>
        <time>2017-02-26T09:02:28Z</time>
      </trkpt>
      <trkpt lat="45.29685" lon="1.46656">
        <ele>334</ele>
        <time>2017-02-26T09:02:31Z</time>
      </trkpt>
      <trkpt lat="45.29693" lon="1.4666">
        <ele>334</ele>
        <time>2017-02-26T09:02:32Z</time>
      </trkpt>
      <trkpt lat="45.29712" lon="1.46666">
        <ele>334</ele>
        <time>2017-02-26T09:02:35Z</time>
      </trkpt>
      <trkpt lat="45.29719" lon="1.46667">
        <ele>334</ele>
        <time>2017-02-26T09:02:36Z</time>
      </trkpt>
      <trkpt lat="45.29729" lon="1.46661">
        <ele>334</ele>
        <time>2017-02-26T09:02:38Z</time>
      </trkpt>
      <trkpt lat="45.29739" lon="1.46652">
        <ele>333</ele>
        <time>2017-02-26T09:02:40Z</time>
      </trkpt>
      <trkpt lat="45.29749" lon="1.46647">
        <ele>332</ele>
        <time>2017-02-26T09:02:42Z</time>
      </trkpt>
      <trkpt lat="45.29753" lon="1.46644">
        <ele>331</ele>
        <time>2017-02-26T09:02:43Z</time>
      </trkpt>
      <trkpt lat="45.29757" lon="1.46641">
        <ele>331</ele>
        <time>2017-02-26T09:02:44Z</time>
      </trkpt>
      <trkpt lat="45.29765" lon="1.46637">
        <ele>329</ele>
        <time>2017-02-26T09:02:46Z</time>
      </trkpt>
      <trkpt lat="45.29774" lon="1.46631">
        <ele>328</ele>
        <time>2017-02-26T09:02:48Z</time>
      </trkpt>
      <trkpt lat="45.29778" lon="1.46627">
        <ele>327</ele>
        <time>2017-02-26T09:02:49Z</time>
      </trkpt>
      <trkpt lat="45.29784" lon="1.46623">
        <ele>326</ele>
        <time>2017-02-26T09:02:50Z</time>
      </trkpt>
      <trkpt lat="45.29793" lon="1.46614">
        <ele>324</ele>
        <time>2017-02-26T09:02:52Z</time>
      </trkpt>
      <trkpt lat="45.29801" lon="1.46605">
        <ele>323</ele>
        <time>2017-02-26T09:02:54Z</time>
      </trkpt>
      <trkpt lat="45.29807" lon="1.46596">
        <ele>321</ele>
        <time>2017-02-26T09:02:56Z</time>
      </trkpt>
      <trkpt lat="45.29812" lon="1.4659">
        <ele>320</ele>
        <time>2017-02-26T09:02:58Z</time>
      </trkpt>
      <trkpt lat="45.29816" lon="1.46588">
        <ele>319</ele>
        <time>2017-02-26T09:02:59Z</time>
      </trkpt>
      <trkpt lat="45.29819" lon="1.46585">
        <ele>318</ele>
        <time>2017-02-26T09:03:00Z</time>
      </trkpt>
      <trkpt lat="45.29824" lon="1.4658">
        <ele>317</ele>
        <time>2017-02-26T09:03:02Z</time>
      </trkpt>
      <trkpt lat="45.29828" lon="1.46575">
        <ele>315</ele>
        <time>2017-02-26T09:03:04Z</time>
      </trkpt>
      <trkpt lat="45.2983" lon="1.46572">
        <ele>314</ele>
        <time>2017-02-26T09:03:05Z</time>
      </trkpt>
      <trkpt lat="45.29832" lon="1.4657">
        <ele>314</ele>
        <time>2017-02-26T09:03:06Z</time>
      </trkpt>
      <trkpt lat="45.29832" lon="1.46567">
        <ele>313</ele>
        <time>2017-02-26T09:03:07Z</time>
      </trkpt>
      <trkpt lat="45.29834" lon="1.46564">
        <ele>313</ele>
        <time>2017-02-26T09:03:08Z</time>
      </trkpt>
      <trkpt lat="45.29838" lon="1.46564">
        <ele>312</ele>
        <time>2017-02-26T09:03:10Z</time>
      </trkpt>
      <trkpt lat="45.2984" lon="1.46565">
        <ele>312</ele>
        <time>2017-02-26T09:03:11Z</time>
      </trkpt>
      <trkpt lat="45.29842" lon="1.4657">
        <ele>311</ele>
        <time>2017-02-26T09:03:13Z</time>
      </trkpt>
      <trkpt lat="45.29842" lon="1.46572">
        <ele>310</ele>
        <time>2017-02-26T09:03:14Z</time>
      </trkpt>
      <trkpt lat="45.29842" lon="1.46574">
        <ele>309</ele>
        <time>2017-02-26T09:03:15Z</time>
      </trkpt>
      <trkpt lat="45.29842" lon="1.46581">
        <ele>307</ele>
        <time>2017-02-26T09:03:17Z</time>
      </trkpt>
      <trkpt lat="45.2984" lon="1.46588">
        <ele>305</ele>
        <time>2017-02-26T09:03:19Z</time>
      </trkpt>
      <trkpt lat="45.29838" lon="1.46596">
        <ele>304</ele>
        <time>2017-02-26T09:03:21Z</time>
      </trkpt>
      <trkpt lat="45.29836" lon="1.466">
        <ele>302</ele>
        <time>2017-02-26T09:03:22Z</time>
      </trkpt>
      <trkpt lat="45.29836" lon="1.46605">
        <ele>301</ele>
        <time>2017-02-26T09:03:23Z</time>
      </trkpt>
      <trkpt lat="45.29836" lon="1.46609">
        <ele>300</ele>
        <time>2017-02-26T09:03:24Z</time>
      </trkpt>
      <trkpt lat="45.29836" lon="1.46613">
        <ele>299</ele>
        <time>2017-02-26T09:03:25Z</time>
      </trkpt>
      <trkpt lat="45.29835" lon="1.46618">
        <ele>298</ele>
        <time>2017-02-26T09:03:26Z</time>
      </trkpt>
      <trkpt lat="45.29835" lon="1.46623">
        <ele>297</ele>
        <time>2017-02-26T09:03:27Z</time>
      </trkpt>
      <trkpt lat="45.29835" lon="1.46627">
        <ele>296</ele>
        <time>2017-02-26T09:03:28Z</time>
      </trkpt>
      <trkpt lat="45.29834" lon="1.46631">
        <ele>295</ele>
        <time>2017-02-26T09:03:29Z</time>
      </trkpt>
      <trkpt lat="45.29834" lon="1.46638">
        <ele>293</ele>
        <time>2017-02-26T09:03:31Z</time>
      </trkpt>
      <trkpt lat="45.29833" lon="1.46644">
        <ele>291</ele>
        <time>2017-02-26T09:03:33Z</time>
      </trkpt>
      <trkpt lat="45.29833" lon="1.46649">
        <ele>290</ele>
        <time>2017-02-26T09:03:34Z</time>
      </trkpt>
      <trkpt lat="45.29832" lon="1.46654">
        <ele>289</ele>
        <time>2017-02-26T09:03:35Z</time>
      </trkpt>
      <trkpt lat="45.29832" lon="1.46657">
        <ele>288</ele>
        <time>2017-02-26T09:03:36Z</time>
      </trkpt>
      <trkpt lat="45.29832" lon="1.46661">
        <ele>287</ele>
        <time>2017-02-26T09:03:37Z</time>
      </trkpt>
      <trkpt lat="45.29831" lon="1.46665">
        <ele>286</ele>
        <time>2017-02-26T09:03:38Z</time>
      </trkpt>
      <trkpt lat="45.29829" lon="1.46671">
        <ele>286</ele>
        <time>2017-02-26T09:03:41Z</time>
      </trkpt>
      <trkpt lat="45.2983" lon="1.46677">
        <ele>288</ele>
        <time>2017-02-26T09:03:55Z</time>
      </trkpt>
      <trkpt lat="45.29831" lon="1.46676">
        <ele>287</ele>
        <time>2017-02-26T09:03:56Z</time>
      </trkpt>
      <trkpt lat="45.29837" lon="1.46669">
        <ele>286</ele>
        <time>2017-02-26T09:03:59Z</time>
      </trkpt>
      <trkpt lat="45.29845" lon="1.46661">
        <ele>285</ele>
        <time>2017-02-26T09:04:01Z</time>
      </trkpt>
      <trkpt lat="45.29852" lon="1.46653">
        <ele>283</ele>
        <time>2017-02-26T09:04:03Z</time>
      </trkpt>
      <trkpt lat="45.29857" lon="1.46645">
        <ele>282</ele>
        <time>2017-02-26T09:04:05Z</time>
      </trkpt>
      <trkpt lat="45.29861" lon="1.4664">
        <ele>281</ele>
        <time>2017-02-26T09:04:07Z</time>
      </trkpt>
      <trkpt lat="45.29905" lon="1.46624">
        <ele>279</ele>
        <time>2017-02-26T09:06:45Z</time>
      </trkpt>
      <trkpt lat="45.29938" lon="1.46617">
        <ele>286</ele>
        <time>2017-02-26T09:07:01Z</time>
      </trkpt>
      <trkpt lat="45.29941" lon="1.46619">
        <ele>286</ele>
        <time>2017-02-26T09:07:02Z</time>
      </trkpt>
      <trkpt lat="45.29946" lon="1.46622">
        <ele>287</ele>
        <time>2017-02-26T09:07:04Z</time>
      </trkpt>
      <trkpt lat="45.29948" lon="1.46623">
        <ele>287</ele>
        <time>2017-02-26T09:07:05Z</time>
      </trkpt>
      <trkpt lat="45.29953" lon="1.46623">
        <ele>288</ele>
        <time>2017-02-26T09:07:07Z</time>
      </trkpt>
      <trkpt lat="45.29957" lon="1.46624">
        <ele>289</ele>
        <time>2017-02-26T09:07:08Z</time>
      </trkpt>
      <trkpt lat="45.29963" lon="1.46626">
        <ele>289</ele>
        <time>2017-02-26T09:07:10Z</time>
      </trkpt>
      <trkpt lat="45.29971" lon="1.46626">
        <ele>290</ele>
        <time>2017-02-26T09:07:12Z</time>
      </trkpt>
      <trkpt lat="45.29973" lon="1.46627">
        <ele>291</ele>
        <time>2017-02-26T09:07:13Z</time>
      </trkpt>
      <trkpt lat="45.29975" lon="1.46627">
        <ele>291</ele>
        <time>2017-02-26T09:07:14Z</time>
      </trkpt>
      <trkpt lat="45.29989" lon="1.46629">
        <ele>293</ele>
        <time>2017-02-26T09:07:18Z</time>
      </trkpt>
      <trkpt lat="45.29995" lon="1.46628">
        <ele>293</ele>
        <time>2017-02-26T09:07:20Z</time>
      </trkpt>
      <trkpt lat="45.30013" lon="1.46622">
        <ele>294</ele>
        <time>2017-02-26T09:07:26Z</time>
      </trkpt>
      <trkpt lat="45.30015" lon="1.46622">
        <ele>294</ele>
        <time>2017-02-26T09:07:27Z</time>
      </trkpt>
      <trkpt lat="45.3002" lon="1.46621">
        <ele>295</ele>
        <time>2017-02-26T09:07:29Z</time>
      </trkpt>
      <trkpt lat="45.30026" lon="1.46623">
        <ele>298</ele>
        <time>2017-02-26T09:07:33Z</time>
      </trkpt>
      <trkpt lat="45.30027" lon="1.46624">
        <ele>299</ele>
        <time>2017-02-26T09:07:34Z</time>
      </trkpt>
      <trkpt lat="45.30029" lon="1.46625">
        <ele>299</ele>
        <time>2017-02-26T09:07:35Z</time>
      </trkpt>
      <trkpt lat="45.30035" lon="1.46626">
        <ele>301</ele>
        <time>2017-02-26T09:07:38Z</time>
      </trkpt>
      <trkpt lat="45.30039" lon="1.46626">
        <ele>303</ele>
        <time>2017-02-26T09:07:40Z</time>
      </trkpt>
      <trkpt lat="45.30041" lon="1.46625">
        <ele>304</ele>
        <time>2017-02-26T09:07:41Z</time>
      </trkpt>
      <trkpt lat="45.30043" lon="1.46624">
        <ele>304</ele>
        <time>2017-02-26T09:07:42Z</time>
      </trkpt>
      <trkpt lat="45.30047" lon="1.46622">
        <ele>305</ele>
        <time>2017-02-26T09:07:44Z</time>
      </trkpt>
      <trkpt lat="45.3008" lon="1.46611">
        <ele>315</ele>
        <time>2017-02-26T09:08:03Z</time>
      </trkpt>
      <trkpt lat="45.30083" lon="1.46612">
        <ele>316</ele>
        <time>2017-02-26T09:08:04Z</time>
      </trkpt>
      <trkpt lat="45.30089" lon="1.46614">
        <ele>316</ele>
        <time>2017-02-26T09:08:07Z</time>
      </trkpt>
      <trkpt lat="45.30093" lon="1.46616">
        <ele>317</ele>
        <time>2017-02-26T09:08:09Z</time>
      </trkpt>
      <trkpt lat="45.30113" lon="1.46631">
        <ele>314</ele>
        <time>2017-02-26T09:09:07Z</time>
      </trkpt>
      <trkpt lat="45.30114" lon="1.46634">
        <ele>313</ele>
        <time>2017-02-26T09:09:08Z</time>
      </trkpt>
      <trkpt lat="45.30117" lon="1.46644">
        <ele>312</ele>
        <time>2017-02-26T09:09:10Z</time>
      </trkpt>
      <trkpt lat="45.3012" lon="1.46653">
        <ele>311</ele>
        <time>2017-02-26T09:09:12Z</time>
      </trkpt>
      <trkpt lat="45.30122" lon="1.46657">
        <ele>311</ele>
        <time>2017-02-26T09:09:13Z</time>
      </trkpt>
      <trkpt lat="45.30125" lon="1.46665">
        <ele>309</ele>
        <time>2017-02-26T09:09:15Z</time>
      </trkpt>
      <trkpt lat="45.30127" lon="1.46669">
        <ele>308</ele>
        <time>2017-02-26T09:09:16Z</time>
      </trkpt>
      <trkpt lat="45.30128" lon="1.46673">
        <ele>307</ele>
        <time>2017-02-26T09:09:17Z</time>
      </trkpt>
      <trkpt lat="45.30134" lon="1.46686">
        <ele>306</ele>
        <time>2017-02-26T09:09:20Z</time>
      </trkpt>
      <trkpt lat="45.30139" lon="1.46697">
        <ele>304</ele>
        <time>2017-02-26T09:09:22Z</time>
      </trkpt>
      <trkpt lat="45.30146" lon="1.46708">
        <ele>303</ele>
        <time>2017-02-26T09:09:24Z</time>
      </trkpt>
      <trkpt lat="45.30155" lon="1.46713">
        <ele>301</ele>
        <time>2017-02-26T09:09:26Z</time>
      </trkpt>
      <trkpt lat="45.30163" lon="1.46716">
        <ele>300</ele>
        <time>2017-02-26T09:09:28Z</time>
      </trkpt>
      <trkpt lat="45.3017" lon="1.4672">
        <ele>299</ele>
        <time>2017-02-26T09:09:30Z</time>
      </trkpt>
      <trkpt lat="45.30174" lon="1.46721">
        <ele>298</ele>
        <time>2017-02-26T09:09:31Z</time>
      </trkpt>
      <trkpt lat="45.3019" lon="1.46724">
        <ele>297</ele>
        <time>2017-02-26T09:09:34Z</time>
      </trkpt>
      <trkpt lat="45.30199" lon="1.46726">
        <ele>296</ele>
        <time>2017-02-26T09:09:36Z</time>
      </trkpt>
      <trkpt lat="45.30215" lon="1.46731">
        <ele>295</ele>
        <time>2017-02-26T09:09:39Z</time>
      </trkpt>
      <trkpt lat="45.30219" lon="1.46732">
        <ele>295</ele>
        <time>2017-02-26T09:09:40Z</time>
      </trkpt>
      <trkpt lat="45.30226" lon="1.46734">
        <ele>294</ele>
        <time>2017-02-26T09:09:43Z</time>
      </trkpt>
      <trkpt lat="45.30228" lon="1.46734">
        <ele>294</ele>
        <time>2017-02-26T09:09:44Z</time>
      </trkpt>
      <trkpt lat="45.30236" lon="1.46737">
        <ele>293</ele>
        <time>2017-02-26T09:09:47Z</time>
      </trkpt>
      <trkpt lat="45.30243" lon="1.46741">
        <ele>293</ele>
        <time>2017-02-26T09:09:49Z</time>
      </trkpt>
      <trkpt lat="45.30249" lon="1.46746">
        <ele>292</ele>
        <time>2017-02-26T09:09:51Z</time>
      </trkpt>
      <trkpt lat="45.30262" lon="1.46753">
        <ele>292</ele>
        <time>2017-02-26T09:09:54Z</time>
      </trkpt>
      <trkpt lat="45.30271" lon="1.46761">
        <ele>291</ele>
        <time>2017-02-26T09:09:57Z</time>
      </trkpt>
      <trkpt lat="45.30274" lon="1.46764">
        <ele>290</ele>
        <time>2017-02-26T09:09:58Z</time>
      </trkpt>
      <trkpt lat="45.30279" lon="1.4677">
        <ele>290</ele>
        <time>2017-02-26T09:10:00Z</time>
      </trkpt>
      <trkpt lat="45.30292" lon="1.46781">
        <ele>288</ele>
        <time>2017-02-26T09:10:03Z</time>
      </trkpt>
      <trkpt lat="45.30315" lon="1.46798">
        <ele>287</ele>
        <time>2017-02-26T09:10:08Z</time>
      </trkpt>
      <trkpt lat="45.30323" lon="1.46802">
        <ele>287</ele>
        <time>2017-02-26T09:10:10Z</time>
      </trkpt>
      <trkpt lat="45.30338" lon="1.46811">
        <ele>286</ele>
        <time>2017-02-26T09:10:14Z</time>
      </trkpt>
      <trkpt lat="45.30342" lon="1.46812">
        <ele>286</ele>
        <time>2017-02-26T09:10:15Z</time>
      </trkpt>
      <trkpt lat="45.30351" lon="1.46814">
        <ele>285</ele>
        <time>2017-02-26T09:10:17Z</time>
      </trkpt>
      <trkpt lat="45.30368" lon="1.46818">
        <ele>286</ele>
        <time>2017-02-26T09:10:21Z</time>
      </trkpt>
      <trkpt lat="45.30378" lon="1.46819">
        <ele>286</ele>
        <time>2017-02-26T09:10:23Z</time>
      </trkpt>
      <trkpt lat="45.30392" lon="1.46817">
        <ele>286</ele>
        <time>2017-02-26T09:10:26Z</time>
      </trkpt>
      <trkpt lat="45.30406" lon="1.46812">
        <ele>285</ele>
        <time>2017-02-26T09:10:29Z</time>
      </trkpt>
      <trkpt lat="45.30411" lon="1.46809">
        <ele>284</ele>
        <time>2017-02-26T09:10:30Z</time>
      </trkpt>
      <trkpt lat="45.30419" lon="1.46804">
        <ele>283</ele>
        <time>2017-02-26T09:10:32Z</time>
      </trkpt>
      <trkpt lat="45.30429" lon="1.46798">
        <ele>282</ele>
        <time>2017-02-26T09:10:35Z</time>
      </trkpt>
      <trkpt lat="45.3044" lon="1.46788">
        <ele>280</ele>
        <time>2017-02-26T09:10:38Z</time>
      </trkpt>
      <trkpt lat="45.30448" lon="1.4678">
        <ele>279</ele>
        <time>2017-02-26T09:10:40Z</time>
      </trkpt>
      <trkpt lat="45.30454" lon="1.46774">
        <ele>278</ele>
        <time>2017-02-26T09:10:41Z</time>
      </trkpt>
      <trkpt lat="45.30459" lon="1.4677">
        <ele>277</ele>
        <time>2017-02-26T09:10:42Z</time>
      </trkpt>
      <trkpt lat="45.30467" lon="1.46762">
        <ele>275</ele>
        <time>2017-02-26T09:10:44Z</time>
      </trkpt>
      <trkpt lat="45.3047" lon="1.46758">
        <ele>274</ele>
        <time>2017-02-26T09:10:45Z</time>
      </trkpt>
      <trkpt lat="45.30473" lon="1.46755">
        <ele>273</ele>
        <time>2017-02-26T09:10:46Z</time>
      </trkpt>
      <trkpt lat="45.30478" lon="1.46749">
        <ele>272</ele>
        <time>2017-02-26T09:10:48Z</time>
      </trkpt>
      <trkpt lat="45.30482" lon="1.46744">
        <ele>270</ele>
        <time>2017-02-26T09:10:50Z</time>
      </trkpt>
      <trkpt lat="45.30484" lon="1.46742">
        <ele>269</ele>
        <time>2017-02-26T09:10:51Z</time>
      </trkpt>
      <trkpt lat="45.30485" lon="1.4674">
        <ele>269</ele>
        <time>2017-02-26T09:10:52Z</time>
      </trkpt>
      <trkpt lat="45.30488" lon="1.46729">
        <ele>266</ele>
        <time>2017-02-26T09:11:08Z</time>
      </trkpt>
      <trkpt lat="45.30488" lon="1.46719">
        <ele>265</ele>
        <time>2017-02-26T09:11:11Z</time>
      </trkpt>
      <trkpt lat="45.30488" lon="1.46715">
        <ele>265</ele>
        <time>2017-02-26T09:11:12Z</time>
      </trkpt>
      <trkpt lat="45.30488" lon="1.46707">
        <ele>264</ele>
        <time>2017-02-26T09:11:14Z</time>
      </trkpt>
      <trkpt lat="45.30488" lon="1.467">
        <ele>262</ele>
        <time>2017-02-26T09:11:16Z</time>
      </trkpt>
      <trkpt lat="45.30487" lon="1.46692">
        <ele>261</ele>
        <time>2017-02-26T09:11:18Z</time>
      </trkpt>
      <trkpt lat="45.30487" lon="1.46684">
        <ele>260</ele>
        <time>2017-02-26T09:11:20Z</time>
      </trkpt>
      <trkpt lat="45.30487" lon="1.4667">
        <ele>259</ele>
        <time>2017-02-26T09:11:24Z</time>
      </trkpt>
      <trkpt lat="45.30485" lon="1.46649">
        <ele>259</ele>
        <time>2017-02-26T09:11:30Z</time>
      </trkpt>
      <trkpt lat="45.30482" lon="1.46628">
        <ele>258</ele>
        <time>2017-02-26T09:11:36Z</time>
      </trkpt>
      <trkpt lat="45.30482" lon="1.46624">
        <ele>258</ele>
        <time>2017-02-26T09:11:37Z</time>
      </trkpt>
      <trkpt lat="45.30482" lon="1.4661">
        <ele>259</ele>
        <time>2017-02-26T09:11:41Z</time>
      </trkpt>
      <trkpt lat="45.30482" lon="1.46607">
        <ele>259</ele>
        <time>2017-02-26T09:11:42Z</time>
      </trkpt>
      <trkpt lat="45.30482" lon="1.46602">
        <ele>259</ele>
        <time>2017-02-26T09:11:44Z</time>
      </trkpt>
      <trkpt lat="45.30486" lon="1.46596">
        <ele>260</ele>
        <time>2017-02-26T09:11:48Z</time>
      </trkpt>
      <trkpt lat="45.30493" lon="1.46591">
        <ele>262</ele>
        <time>2017-02-26T09:11:52Z</time>
      </trkpt>
      <trkpt lat="45.30495" lon="1.4659">
        <ele>263</ele>
        <time>2017-02-26T09:11:53Z</time>
      </trkpt>
      <trkpt lat="45.30497" lon="1.46589">
        <ele>264</ele>
        <time>2017-02-26T09:11:54Z</time>
      </trkpt>
      <trkpt lat="45.30499" lon="1.46588">
        <ele>265</ele>
        <time>2017-02-26T09:11:55Z</time>
      </trkpt>
      <trkpt lat="45.30501" lon="1.46587">
        <ele>266</ele>
        <time>2017-02-26T09:11:56Z</time>
      </trkpt>
      <trkpt lat="45.30503" lon="1.46587">
        <ele>267</ele>
        <time>2017-02-26T09:11:57Z</time>
      </trkpt>
      <trkpt lat="45.30505" lon="1.46586">
        <ele>268</ele>
        <time>2017-02-26T09:11:58Z</time>
      </trkpt>
      <trkpt lat="45.30507" lon="1.46586">
        <ele>270</ele>
        <time>2017-02-26T09:11:59Z</time>
      </trkpt>
      <trkpt lat="45.30509" lon="1.46586">
        <ele>271</ele>
        <time>2017-02-26T09:12:00Z</time>
      </trkpt>
      <trkpt lat="45.30511" lon="1.46586">
        <ele>272</ele>
        <time>2017-02-26T09:12:01Z</time>
      </trkpt>
      <trkpt lat="45.30515" lon="1.46586">
        <ele>274</ele>
        <time>2017-02-26T09:12:03Z</time>
      </trkpt>
      <trkpt lat="45.30517" lon="1.46587">
        <ele>276</ele>
        <time>2017-02-26T09:12:05Z</time>
      </trkpt>
      <trkpt lat="45.30519" lon="1.46587">
        <ele>277</ele>
        <time>2017-02-26T09:12:06Z</time>
      </trkpt>
      <trkpt lat="45.30521" lon="1.46587">
        <ele>277</ele>
        <time>2017-02-26T09:12:07Z</time>
      </trkpt>
      <trkpt lat="45.30549" lon="1.46579">
        <ele>283</ele>
        <time>2017-02-26T09:12:20Z</time>
      </trkpt>
      <trkpt lat="45.30551" lon="1.46578">
        <ele>283</ele>
        <time>2017-02-26T09:12:21Z</time>
      </trkpt>
      <trkpt lat="45.30564" lon="1.46572">
        <ele>284</ele>
        <time>2017-02-26T09:12:26Z</time>
      </trkpt>
      <trkpt lat="45.30566" lon="1.46572">
        <ele>284</ele>
        <time>2017-02-26T09:12:27Z</time>
      </trkpt>
      <trkpt lat="45.30576" lon="1.46566">
        <ele>284</ele>
        <time>2017-02-26T09:12:33Z</time>
      </trkpt>
      <trkpt lat="45.30579" lon="1.46565">
        <ele>285</ele>
        <time>2017-02-26T09:12:35Z</time>
      </trkpt>
      <trkpt lat="45.30584" lon="1.46562">
        <ele>286</ele>
        <time>2017-02-26T09:12:38Z</time>
      </trkpt>
      <trkpt lat="45.30586" lon="1.46561">
        <ele>287</ele>
        <time>2017-02-26T09:12:39Z</time>
      </trkpt>
      <trkpt lat="45.30592" lon="1.46558">
        <ele>286</ele>
        <time>2017-02-26T09:12:43Z</time>
      </trkpt>
      <trkpt lat="45.30597" lon="1.46552">
        <ele>287</ele>
        <time>2017-02-26T09:12:45Z</time>
      </trkpt>
      <trkpt lat="45.30603" lon="1.46545">
        <ele>287</ele>
        <time>2017-02-26T09:12:47Z</time>
      </trkpt>
      <trkpt lat="45.30611" lon="1.4654">
        <ele>287</ele>
        <time>2017-02-26T09:12:49Z</time>
      </trkpt>
      <trkpt lat="45.30614" lon="1.46541">
        <ele>287</ele>
        <time>2017-02-26T09:12:50Z</time>
      </trkpt>
      <trkpt lat="45.30615" lon="1.46551">
        <ele>286</ele>
        <time>2017-02-26T09:12:53Z</time>
      </trkpt>
      <trkpt lat="45.30612" lon="1.46561">
        <ele>285</ele>
        <time>2017-02-26T09:12:55Z</time>
      </trkpt>
      <trkpt lat="45.30608" lon="1.46574">
        <ele>284</ele>
        <time>2017-02-26T09:12:57Z</time>
      </trkpt>
      <trkpt lat="45.30605" lon="1.46585">
        <ele>283</ele>
        <time>2017-02-26T09:12:59Z</time>
      </trkpt>
      <trkpt lat="45.306" lon="1.46595">
        <ele>281</ele>
        <time>2017-02-26T09:13:01Z</time>
      </trkpt>
      <trkpt lat="45.30595" lon="1.46602">
        <ele>280</ele>
        <time>2017-02-26T09:13:03Z</time>
      </trkpt>
      <trkpt lat="45.3059" lon="1.46607">
        <ele>278</ele>
        <time>2017-02-26T09:13:05Z</time>
      </trkpt>
      <trkpt lat="45.30588" lon="1.46609">
        <ele>277</ele>
        <time>2017-02-26T09:13:06Z</time>
      </trkpt>
      <trkpt lat="45.30587" lon="1.46612">
        <ele>277</ele>
        <time>2017-02-26T09:13:07Z</time>
      </trkpt>
      <trkpt lat="45.30588" lon="1.46617">
        <ele>275</ele>
        <time>2017-02-26T09:13:09Z</time>
      </trkpt>
      <trkpt lat="45.30591" lon="1.46618">
        <ele>274</ele>
        <time>2017-02-26T09:13:10Z</time>
      </trkpt>
      <trkpt lat="45.30594" lon="1.46618">
        <ele>273</ele>
        <time>2017-02-26T09:13:11Z</time>
      </trkpt>
      <trkpt lat="45.30599" lon="1.46614">
        <ele>272</ele>
        <time>2017-02-26T09:13:13Z</time>
      </trkpt>
      <trkpt lat="45.30602" lon="1.46612">
        <ele>271</ele>
        <time>2017-02-26T09:13:14Z</time>
      </trkpt>
      <trkpt lat="45.30605" lon="1.4661">
        <ele>270</ele>
        <time>2017-02-26T09:13:15Z</time>
      </trkpt>
      <trkpt lat="45.30612" lon="1.46604">
        <ele>268</ele>
        <time>2017-02-26T09:13:17Z</time>
      </trkpt>
      <trkpt lat="45.30618" lon="1.46598">
        <ele>267</ele>
        <time>2017-02-26T09:13:19Z</time>
      </trkpt>
      <trkpt lat="45.30621" lon="1.46595">
        <ele>266</ele>
        <time>2017-02-26T09:13:20Z</time>
      </trkpt>
      <trkpt lat="45.30623" lon="1.46592">
        <ele>266</ele>
        <time>2017-02-26T09:13:21Z</time>
      </trkpt>
      <trkpt lat="45.30628" lon="1.46583">
        <ele>264</ele>
        <time>2017-02-26T09:13:23Z</time>
      </trkpt>
      <trkpt lat="45.30629" lon="1.4658">
        <ele>264</ele>
        <time>2017-02-26T09:13:24Z</time>
      </trkpt>
      <trkpt lat="45.30631" lon="1.46578">
        <ele>263</ele>
        <time>2017-02-26T09:13:25Z</time>
      </trkpt>
      <trkpt lat="45.30633" lon="1.46577">
        <ele>263</ele>
        <time>2017-02-26T09:13:26Z</time>
      </trkpt>
      <trkpt lat="45.30638" lon="1.46577">
        <ele>262</ele>
        <time>2017-02-26T09:13:28Z</time>
      </trkpt>
      <trkpt lat="45.30646" lon="1.46583">
        <ele>260</ele>
        <time>2017-02-26T09:13:31Z</time>
      </trkpt>
      <trkpt lat="45.3065" lon="1.46586">
        <ele>260</ele>
        <time>2017-02-26T09:13:32Z</time>
      </trkpt>
      <trkpt lat="45.30653" lon="1.4659">
        <ele>259</ele>
        <time>2017-02-26T09:13:33Z</time>
      </trkpt>
      <trkpt lat="45.30659" lon="1.46598">
        <ele>257</ele>
        <time>2017-02-26T09:13:35Z</time>
      </trkpt>
      <trkpt lat="45.30662" lon="1.46601">
        <ele>256</ele>
        <time>2017-02-26T09:13:36Z</time>
      </trkpt>
      <trkpt lat="45.30665" lon="1.46603">
        <ele>255</ele>
        <time>2017-02-26T09:13:37Z</time>
      </trkpt>
      <trkpt lat="45.30668" lon="1.46605">
        <ele>254</ele>
        <time>2017-02-26T09:13:38Z</time>
      </trkpt>
      <trkpt lat="45.30673" lon="1.46607">
        <ele>252</ele>
        <time>2017-02-26T09:13:40Z</time>
      </trkpt>
      <trkpt lat="45.30675" lon="1.46608">
        <ele>251</ele>
        <time>2017-02-26T09:13:41Z</time>
      </trkpt>
      <trkpt lat="45.30678" lon="1.46608">
        <ele>250</ele>
        <time>2017-02-26T09:13:42Z</time>
      </trkpt>
      <trkpt lat="45.30681" lon="1.46609">
        <ele>249</ele>
        <time>2017-02-26T09:13:43Z</time>
      </trkpt>
      <trkpt lat="45.30687" lon="1.46609">
        <ele>247</ele>
        <time>2017-02-26T09:13:45Z</time>
      </trkpt>
      <trkpt lat="45.30693" lon="1.46608">
        <ele>246</ele>
        <time>2017-02-26T09:13:47Z</time>
      </trkpt>
      <trkpt lat="45.30697" lon="1.46607">
        <ele>245</ele>
        <time>2017-02-26T09:13:48Z</time>
      </trkpt>
      <trkpt lat="45.30704" lon="1.46606">
        <ele>243</ele>
        <time>2017-02-26T09:13:50Z</time>
      </trkpt>
      <trkpt lat="45.30713" lon="1.46605">
        <ele>241</ele>
        <time>2017-02-26T09:13:52Z</time>
      </trkpt>
      <trkpt lat="45.30717" lon="1.46604">
        <ele>240</ele>
        <time>2017-02-26T09:13:53Z</time>
      </trkpt>
      <trkpt lat="45.30726" lon="1.46604">
        <ele>238</ele>
        <time>2017-02-26T09:13:55Z</time>
      </trkpt>
      <trkpt lat="45.30733" lon="1.46603">
        <ele>236</ele>
        <time>2017-02-26T09:13:57Z</time>
      </trkpt>
      <trkpt lat="45.3074" lon="1.46602">
        <ele>234</ele>
        <time>2017-02-26T09:13:59Z</time>
      </trkpt>
      <trkpt lat="45.30742" lon="1.46601">
        <ele>233</ele>
        <time>2017-02-26T09:14:00Z</time>
      </trkpt>
      <trkpt lat="45.30745" lon="1.466">
        <ele>231</ele>
        <time>2017-02-26T09:14:01Z</time>
      </trkpt>
      <trkpt lat="45.30748" lon="1.466">
        <ele>230</ele>
        <time>2017-02-26T09:14:02Z</time>
      </trkpt>
      <trkpt lat="45.30753" lon="1.46601">
        <ele>228</ele>
        <time>2017-02-26T09:14:04Z</time>
      </trkpt>
      <trkpt lat="45.30762" lon="1.46601">
        <ele>225</ele>
        <time>2017-02-26T09:14:08Z</time>
      </trkpt>
      <trkpt lat="45.30769" lon="1.466">
        <ele>225</ele>
        <time>2017-02-26T09:14:10Z</time>
      </trkpt>
      <trkpt lat="45.30772" lon="1.46599">
        <ele>224</ele>
        <time>2017-02-26T09:14:11Z</time>
      </trkpt>
      <trkpt lat="45.30779" lon="1.46595">
        <ele>223</ele>
        <time>2017-02-26T09:14:13Z</time>
      </trkpt>
      <trkpt lat="45.30787" lon="1.46592">
        <ele>221</ele>
        <time>2017-02-26T09:14:15Z</time>
      </trkpt>
      <trkpt lat="45.3079" lon="1.46591">
        <ele>220</ele>
        <time>2017-02-26T09:14:16Z</time>
      </trkpt>
      <trkpt lat="45.30793" lon="1.46591">
        <ele>219</ele>
        <time>2017-02-26T09:14:17Z</time>
      </trkpt>
      <trkpt lat="45.308" lon="1.4659">
        <ele>218</ele>
        <time>2017-02-26T09:14:19Z</time>
      </trkpt>
      <trkpt lat="45.30803" lon="1.4659">
        <ele>217</ele>
        <time>2017-02-26T09:14:20Z</time>
      </trkpt>
      <trkpt lat="45.30811" lon="1.46591">
        <ele>216</ele>
        <time>2017-02-26T09:14:22Z</time>
      </trkpt>
      <trkpt lat="45.30817" lon="1.4659">
        <ele>215</ele>
        <time>2017-02-26T09:14:24Z</time>
      </trkpt>
      <trkpt lat="45.30823" lon="1.46589">
        <ele>213</ele>
        <time>2017-02-26T09:14:26Z</time>
      </trkpt>
      <trkpt lat="45.30827" lon="1.46589">
        <ele>212</ele>
        <time>2017-02-26T09:14:27Z</time>
      </trkpt>
      <trkpt lat="45.3083" lon="1.46587">
        <ele>212</ele>
        <time>2017-02-26T09:14:28Z</time>
      </trkpt>
      <trkpt lat="45.30836" lon="1.46586">
        <ele>210</ele>
        <time>2017-02-26T09:14:30Z</time>
      </trkpt>
      <trkpt lat="45.3084" lon="1.46586">
        <ele>209</ele>
        <time>2017-02-26T09:14:31Z</time>
      </trkpt>
      <trkpt lat="45.30844" lon="1.46585">
        <ele>208</ele>
        <time>2017-02-26T09:14:32Z</time>
      </trkpt>
      <trkpt lat="45.30848" lon="1.46584">
        <ele>207</ele>
        <time>2017-02-26T09:14:33Z</time>
      </trkpt>
      <trkpt lat="45.30851" lon="1.46583">
        <ele>207</ele>
        <time>2017-02-26T09:14:34Z</time>
      </trkpt>
      <trkpt lat="45.30855" lon="1.46582">
        <ele>206</ele>
        <time>2017-02-26T09:14:35Z</time>
      </trkpt>
      <trkpt lat="45.30861" lon="1.46582">
        <ele>205</ele>
        <time>2017-02-26T09:14:37Z</time>
      </trkpt>
      <trkpt lat="45.30865" lon="1.46582">
        <ele>205</ele>
        <time>2017-02-26T09:14:38Z</time>
      </trkpt>
      <trkpt lat="45.30873" lon="1.46579">
        <ele>203</ele>
        <time>2017-02-26T09:14:40Z</time>
      </trkpt>
      <trkpt lat="45.30879" lon="1.46575">
        <ele>202</ele>
        <time>2017-02-26T09:14:42Z</time>
      </trkpt>
      <trkpt lat="45.30883" lon="1.46572">
        <ele>201</ele>
        <time>2017-02-26T09:14:43Z</time>
      </trkpt>
      <trkpt lat="45.30886" lon="1.4657">
        <ele>201</ele>
        <time>2017-02-26T09:14:44Z</time>
      </trkpt>
      <trkpt lat="45.30898" lon="1.46559">
        <ele>200</ele>
        <time>2017-02-26T09:14:47Z</time>
      </trkpt>
      <trkpt lat="45.30901" lon="1.46556">
        <ele>199</ele>
        <time>2017-02-26T09:14:48Z</time>
      </trkpt>
      <trkpt lat="45.3091" lon="1.4655">
        <ele>198</ele>
        <time>2017-02-26T09:14:51Z</time>
      </trkpt>
      <trkpt lat="45.30914" lon="1.46547">
        <ele>198</ele>
        <time>2017-02-26T09:14:52Z</time>
      </trkpt>
      <trkpt lat="45.30923" lon="1.46543">
        <ele>197</ele>
        <time>2017-02-26T09:14:55Z</time>
      </trkpt>
      <trkpt lat="45.3093" lon="1.46538">
        <ele>196</ele>
        <time>2017-02-26T09:14:57Z</time>
      </trkpt>
      <trkpt lat="45.30935" lon="1.46533">
        <ele>195</ele>
        <time>2017-02-26T09:14:59Z</time>
      </trkpt>
      <trkpt lat="45.30939" lon="1.46528">
        <ele>194</ele>
        <time>2017-02-26T09:15:01Z</time>
      </trkpt>
      <trkpt lat="45.30946" lon="1.46526">
        <ele>193</ele>
        <time>2017-02-26T09:15:04Z</time>
      </trkpt>
      <trkpt lat="45.30949" lon="1.46525">
        <ele>192</ele>
        <time>2017-02-26T09:15:05Z</time>
      </trkpt>
      <trkpt lat="45.30952" lon="1.46525">
        <ele>192</ele>
        <time>2017-02-26T09:15:06Z</time>
      </trkpt>
      <trkpt lat="45.30961" lon="1.46525">
        <ele>192</ele>
        <time>2017-02-26T09:15:09Z</time>
      </trkpt>
      <trkpt lat="45.3097" lon="1.46525">
        <ele>191</ele>
        <time>2017-02-26T09:15:11Z</time>
      </trkpt>
      <trkpt lat="45.30995" lon="1.46525">
        <ele>190</ele>
        <time>2017-02-26T09:15:16Z</time>
      </trkpt>
      <trkpt lat="45.30999" lon="1.46526">
        <ele>190</ele>
        <time>2017-02-26T09:15:17Z</time>
      </trkpt>
      <trkpt lat="45.31007" lon="1.46528">
        <ele>189</ele>
        <time>2017-02-26T09:15:19Z</time>
      </trkpt>
      <trkpt lat="45.31019" lon="1.46531">
        <ele>188</ele>
        <time>2017-02-26T09:15:22Z</time>
      </trkpt>
      <trkpt lat="45.31022" lon="1.46531">
        <ele>187</ele>
        <time>2017-02-26T09:15:23Z</time>
      </trkpt>
      <trkpt lat="45.31028" lon="1.4653">
        <ele>187</ele>
        <time>2017-02-26T09:15:25Z</time>
      </trkpt>
      <trkpt lat="45.31035" lon="1.4653">
        <ele>186</ele>
        <time>2017-02-26T09:15:28Z</time>
      </trkpt>
      <trkpt lat="45.31049" lon="1.46527">
        <ele>187</ele>
        <time>2017-02-26T09:15:34Z</time>
      </trkpt>
      <trkpt lat="45.3106" lon="1.46523">
        <ele>188</ele>
        <time>2017-02-26T09:15:40Z</time>
      </trkpt>
      <trkpt lat="45.31061" lon="1.46523">
        <ele>189</ele>
        <time>2017-02-26T09:15:41Z</time>
      </trkpt>
      <trkpt lat="45.31062" lon="1.46524">
        <ele>190</ele>
        <time>2017-02-26T09:15:42Z</time>
      </trkpt>
      <trkpt lat="45.31068" lon="1.46525">
        <ele>192</ele>
        <time>2017-02-26T09:15:45Z</time>
      </trkpt>
      <trkpt lat="45.31072" lon="1.46525">
        <ele>193</ele>
        <time>2017-02-26T09:15:47Z</time>
      </trkpt>
      <trkpt lat="45.31074" lon="1.46525">
        <ele>194</ele>
        <time>2017-02-26T09:15:48Z</time>
      </trkpt>
      <trkpt lat="45.31075" lon="1.46526">
        <ele>194</ele>
        <time>2017-02-26T09:15:49Z</time>
      </trkpt>
      <trkpt lat="45.31077" lon="1.46525">
        <ele>195</ele>
        <time>2017-02-26T09:15:50Z</time>
      </trkpt>
      <trkpt lat="45.31083" lon="1.46522">
        <ele>195</ele>
        <time>2017-02-26T09:15:53Z</time>
      </trkpt>
      <trkpt lat="45.31088" lon="1.46519">
        <ele>195</ele>
        <time>2017-02-26T09:15:55Z</time>
      </trkpt>
      <trkpt lat="45.3109" lon="1.46518">
        <ele>194</ele>
        <time>2017-02-26T09:15:56Z</time>
      </trkpt>
      <trkpt lat="45.31098" lon="1.46516">
        <ele>195</ele>
        <time>2017-02-26T09:16:00Z</time>
      </trkpt>
      <trkpt lat="45.311" lon="1.46517">
        <ele>195</ele>
        <time>2017-02-26T09:16:01Z</time>
      </trkpt>
      <trkpt lat="45.31112" lon="1.46522">
        <ele>195</ele>
        <time>2017-02-26T09:16:08Z</time>
      </trkpt>
      <trkpt lat="45.31114" lon="1.46523">
        <ele>195</ele>
        <time>2017-02-26T09:16:09Z</time>
      </trkpt>
      <trkpt lat="45.31118" lon="1.46527">
        <ele>195</ele>
        <time>2017-02-26T09:16:11Z</time>
      </trkpt>
      <trkpt lat="45.3112" lon="1.46528">
        <ele>195</ele>
        <time>2017-02-26T09:16:12Z</time>
      </trkpt>
      <trkpt lat="45.31125" lon="1.4653">
        <ele>194</ele>
        <time>2017-02-26T09:16:15Z</time>
      </trkpt>
      <trkpt lat="45.3114" lon="1.46537">
        <ele>194</ele>
        <time>2017-02-26T09:16:20Z</time>
      </trkpt>
      <trkpt lat="45.31152" lon="1.46543">
        <ele>195</ele>
        <time>2017-02-26T09:16:24Z</time>
      </trkpt>
      <trkpt lat="45.31155" lon="1.46544">
        <ele>196</ele>
        <time>2017-02-26T09:16:25Z</time>
      </trkpt>
      <trkpt lat="45.31158" lon="1.46545">
        <ele>196</ele>
        <time>2017-02-26T09:16:26Z</time>
      </trkpt>
      <trkpt lat="45.31165" lon="1.46544">
        <ele>198</ele>
        <time>2017-02-26T09:16:28Z</time>
      </trkpt>
      <trkpt lat="45.3117" lon="1.46544">
        <ele>198</ele>
        <time>2017-02-26T09:16:30Z</time>
      </trkpt>
      <trkpt lat="45.31172" lon="1.46545">
        <ele>198</ele>
        <time>2017-02-26T09:16:31Z</time>
      </trkpt>
      <trkpt lat="45.31178" lon="1.46548">
        <ele>199</ele>
        <time>2017-02-26T09:16:34Z</time>
      </trkpt>
      <trkpt lat="45.31196" lon="1.46544">
        <ele>198</ele>
        <time>2017-02-26T09:17:29Z</time>
      </trkpt>
      <trkpt lat="45.31202" lon="1.4654">
        <ele>199</ele>
        <time>2017-02-26T09:17:31Z</time>
      </trkpt>
      <trkpt lat="45.31219" lon="1.46532">
        <ele>197</ele>
        <time>2017-02-26T09:17:37Z</time>
      </trkpt>
      <trkpt lat="45.31232" lon="1.46526">
        <ele>196</ele>
        <time>2017-02-26T09:17:41Z</time>
      </trkpt>
      <trkpt lat="45.31235" lon="1.46524">
        <ele>196</ele>
        <time>2017-02-26T09:17:42Z</time>
      </trkpt>
      <trkpt lat="45.31241" lon="1.4652">
        <ele>195</ele>
        <time>2017-02-26T09:17:44Z</time>
      </trkpt>
      <trkpt lat="45.3125" lon="1.46516">
        <ele>195</ele>
        <time>2017-02-26T09:17:47Z</time>
      </trkpt>
      <trkpt lat="45.31271" lon="1.46502">
        <ele>194</ele>
        <time>2017-02-26T09:17:54Z</time>
      </trkpt>
      <trkpt lat="45.3129" lon="1.4649">
        <ele>196</ele>
        <time>2017-02-26T09:18:00Z</time>
      </trkpt>
      <trkpt lat="45.31292" lon="1.46487">
        <ele>196</ele>
        <time>2017-02-26T09:18:01Z</time>
      </trkpt>
      <trkpt lat="45.31304" lon="1.46479">
        <ele>197</ele>
        <time>2017-02-26T09:18:05Z</time>
      </trkpt>
      <trkpt lat="45.3131" lon="1.46475">
        <ele>197</ele>
        <time>2017-02-26T09:18:07Z</time>
      </trkpt>
      <trkpt lat="45.3132" lon="1.46469">
        <ele>198</ele>
        <time>2017-02-26T09:18:11Z</time>
      </trkpt>
      <trkpt lat="45.31326" lon="1.46464">
        <ele>199</ele>
        <time>2017-02-26T09:18:14Z</time>
      </trkpt>
      <trkpt lat="45.31334" lon="1.46457">
        <ele>199</ele>
        <time>2017-02-26T09:18:18Z</time>
      </trkpt>
      <trkpt lat="45.31338" lon="1.46452">
        <ele>200</ele>
        <time>2017-02-26T09:18:20Z</time>
      </trkpt>
      <trkpt lat="45.31343" lon="1.46447">
        <ele>200</ele>
        <time>2017-02-26T09:18:23Z</time>
      </trkpt>
      <trkpt lat="45.31344" lon="1.46446">
        <ele>201</ele>
        <time>2017-02-26T09:18:24Z</time>
      </trkpt>
      <trkpt lat="45.31347" lon="1.46444">
        <ele>201</ele>
        <time>2017-02-26T09:18:25Z</time>
      </trkpt>
      <trkpt lat="45.31351" lon="1.46439">
        <ele>200</ele>
        <time>2017-02-26T09:18:27Z</time>
      </trkpt>
      <trkpt lat="45.31354" lon="1.46434">
        <ele>200</ele>
        <time>2017-02-26T09:18:29Z</time>
      </trkpt>
      <trkpt lat="45.31356" lon="1.46432">
        <ele>200</ele>
        <time>2017-02-26T09:18:30Z</time>
      </trkpt>
      <trkpt lat="45.31365" lon="1.46423">
        <ele>199</ele>
        <time>2017-02-26T09:18:35Z</time>
      </trkpt>
      <trkpt lat="45.31408" lon="1.46368">
        <ele>195</ele>
        <time>2017-02-26T09:19:59Z</time>
      </trkpt>
      <trkpt lat="45.3141" lon="1.46366">
        <ele>195</ele>
        <time>2017-02-26T09:20:00Z</time>
      </trkpt>
      <trkpt lat="45.31433" lon="1.46335">
        <ele>196</ele>
        <time>2017-02-26T09:20:26Z</time>
      </trkpt>
      <trkpt lat="45.31434" lon="1.46332">
        <ele>196</ele>
        <time>2017-02-26T09:20:27Z</time>
      </trkpt>
      <trkpt lat="45.31445" lon="1.46323">
        <ele>197</ele>
        <time>2017-02-26T09:20:34Z</time>
      </trkpt>
      <trkpt lat="45.31451" lon="1.46316">
        <ele>196</ele>
        <time>2017-02-26T09:20:37Z</time>
      </trkpt>
      <trkpt lat="45.31465" lon="1.46305">
        <ele>195</ele>
        <time>2017-02-26T09:20:43Z</time>
      </trkpt>
      <trkpt lat="45.31469" lon="1.46302">
        <ele>195</ele>
        <time>2017-02-26T09:20:45Z</time>
      </trkpt>
      <trkpt lat="45.31479" lon="1.46294">
        <ele>195</ele>
        <time>2017-02-26T09:20:49Z</time>
      </trkpt>
      <trkpt lat="45.31487" lon="1.4629">
        <ele>194</ele>
        <time>2017-02-26T09:20:52Z</time>
      </trkpt>
      <trkpt lat="45.31494" lon="1.46285">
        <ele>194</ele>
        <time>2017-02-26T09:20:55Z</time>
      </trkpt>
      <trkpt lat="45.31525" lon="1.46272">
        <ele>193</ele>
        <time>2017-02-26T09:21:27Z</time>
      </trkpt>
      <trkpt lat="45.31531" lon="1.46268">
        <ele>193</ele>
        <time>2017-02-26T09:21:31Z</time>
      </trkpt>
      <trkpt lat="45.31534" lon="1.46267">
        <ele>193</ele>
        <time>2017-02-26T09:21:33Z</time>
      </trkpt>
      <trkpt lat="45.31578" lon="1.46244">
        <ele>192</ele>
        <time>2017-02-26T09:22:10Z</time>
      </trkpt>
      <trkpt lat="45.3159" lon="1.46241">
        <ele>193</ele>
        <time>2017-02-26T09:22:16Z</time>
      </trkpt>
      <trkpt lat="45.31606" lon="1.46237">
        <ele>194</ele>
        <time>2017-02-26T09:22:24Z</time>
      </trkpt>
      <trkpt lat="45.31608" lon="1.46237">
        <ele>194</ele>
        <time>2017-02-26T09:22:25Z</time>
      </trkpt>
      <trkpt lat="45.31635" lon="1.46233">
        <ele>196</ele>
        <time>2017-02-26T09:22:47Z</time>
      </trkpt>
      <trkpt lat="45.31639" lon="1.46231">
        <ele>197</ele>
        <time>2017-02-26T09:22:49Z</time>
      </trkpt>
      <trkpt lat="45.31641" lon="1.4623">
        <ele>197</ele>
        <time>2017-02-26T09:22:50Z</time>
      </trkpt>
      <trkpt lat="45.31644" lon="1.46229">
        <ele>198</ele>
        <time>2017-02-26T09:22:52Z</time>
      </trkpt>
      <trkpt lat="45.31646" lon="1.46229">
        <ele>198</ele>
        <time>2017-02-26T09:22:53Z</time>
      </trkpt>
      <trkpt lat="45.31654" lon="1.46228">
        <ele>199</ele>
        <time>2017-02-26T09:22:57Z</time>
      </trkpt>
      <trkpt lat="45.3166" lon="1.46232">
        <ele>199</ele>
        <time>2017-02-26T09:23:00Z</time>
      </trkpt>
      <trkpt lat="45.31667" lon="1.46236">
        <ele>199</ele>
        <time>2017-02-26T09:23:02Z</time>
      </trkpt>
      <trkpt lat="45.31678" lon="1.46239">
        <ele>198</ele>
        <time>2017-02-26T09:23:07Z</time>
      </trkpt>
      <trkpt lat="45.3169" lon="1.46241">
        <ele>199</ele>
        <time>2017-02-26T09:23:13Z</time>
      </trkpt>
      <trkpt lat="45.31692" lon="1.46243">
        <ele>199</ele>
        <time>2017-02-26T09:23:14Z</time>
      </trkpt>
      <trkpt lat="45.31697" lon="1.4625">
        <ele>199</ele>
        <time>2017-02-26T09:23:19Z</time>
      </trkpt>
      <trkpt lat="45.31698" lon="1.46252">
        <ele>199</ele>
        <time>2017-02-26T09:23:20Z</time>
      </trkpt>
      <trkpt lat="45.317" lon="1.46253">
        <ele>199</ele>
        <time>2017-02-26T09:23:21Z</time>
      </trkpt>
      <trkpt lat="45.31728" lon="1.46314">
        <ele>208</ele>
        <time>2017-02-26T09:24:26Z</time>
      </trkpt>
      <trkpt lat="45.31729" lon="1.46319">
        <ele>208</ele>
        <time>2017-02-26T09:24:28Z</time>
      </trkpt>
      <trkpt lat="45.31732" lon="1.46337">
        <ele>209</ele>
        <time>2017-02-26T09:24:34Z</time>
      </trkpt>
      <trkpt lat="45.31734" lon="1.46345">
        <ele>209</ele>
        <time>2017-02-26T09:24:36Z</time>
      </trkpt>
      <trkpt lat="45.31737" lon="1.46368">
        <ele>210</ele>
        <time>2017-02-26T09:24:42Z</time>
      </trkpt>
      <trkpt lat="45.31738" lon="1.4639">
        <ele>210</ele>
        <time>2017-02-26T09:24:47Z</time>
      </trkpt>
      <trkpt lat="45.31738" lon="1.46393">
        <ele>210</ele>
        <time>2017-02-26T09:24:48Z</time>
      </trkpt>
      <trkpt lat="45.31741" lon="1.46411">
        <ele>210</ele>
        <time>2017-02-26T09:24:53Z</time>
      </trkpt>
      <trkpt lat="45.31747" lon="1.46421">
        <ele>209</ele>
        <time>2017-02-26T09:24:56Z</time>
      </trkpt>
      <trkpt lat="45.31748" lon="1.46421">
        <ele>209</ele>
        <time>2017-02-26T09:24:57Z</time>
      </trkpt>
      <trkpt lat="45.31756" lon="1.46432">
        <ele>208</ele>
        <time>2017-02-26T09:25:06Z</time>
      </trkpt>
      <trkpt lat="45.31757" lon="1.46434">
        <ele>207</ele>
        <time>2017-02-26T09:25:07Z</time>
      </trkpt>
      <trkpt lat="45.31761" lon="1.46442">
        <ele>207</ele>
        <time>2017-02-26T09:25:10Z</time>
      </trkpt>
      <trkpt lat="45.31764" lon="1.46448">
        <ele>206</ele>
        <time>2017-02-26T09:25:12Z</time>
      </trkpt>
      <trkpt lat="45.31764" lon="1.46451">
        <ele>206</ele>
        <time>2017-02-26T09:25:13Z</time>
      </trkpt>
      <trkpt lat="45.31762" lon="1.46464">
        <ele>206</ele>
        <time>2017-02-26T09:25:17Z</time>
      </trkpt>
      <trkpt lat="45.31762" lon="1.46469">
        <ele>207</ele>
        <time>2017-02-26T09:25:19Z</time>
      </trkpt>
      <trkpt lat="45.31763" lon="1.46478">
        <ele>207</ele>
        <time>2017-02-26T09:25:21Z</time>
      </trkpt>
      <trkpt lat="45.31763" lon="1.46483">
        <ele>208</ele>
        <time>2017-02-26T09:25:22Z</time>
      </trkpt>
      <trkpt lat="45.31764" lon="1.46494">
        <ele>209</ele>
        <time>2017-02-26T09:25:25Z</time>
      </trkpt>
      <trkpt lat="45.31766" lon="1.46501">
        <ele>210</ele>
        <time>2017-02-26T09:25:27Z</time>
      </trkpt>
      <trkpt lat="45.31771" lon="1.46516">
        <ele>211</ele>
        <time>2017-02-26T09:25:32Z</time>
      </trkpt>
      <trkpt lat="45.31779" lon="1.46533">
        <ele>211</ele>
        <time>2017-02-26T09:25:37Z</time>
      </trkpt>
      <trkpt lat="45.31785" lon="1.4654">
        <ele>213</ele>
        <time>2017-02-26T09:25:42Z</time>
      </trkpt>
      <trkpt lat="45.31791" lon="1.46551">
        <ele>214</ele>
        <time>2017-02-26T09:25:47Z</time>
      </trkpt>
      <trkpt lat="45.31802" lon="1.46562">
        <ele>214</ele>
        <time>2017-02-26T09:25:54Z</time>
      </trkpt>
      <trkpt lat="45.31825" lon="1.4653">
        <ele>221</ele>
        <time>2017-02-26T09:27:31Z</time>
      </trkpt>
      <trkpt lat="45.31826" lon="1.46528">
        <ele>221</ele>
        <time>2017-02-26T09:27:32Z</time>
      </trkpt>
      <trkpt lat="45.31831" lon="1.46525">
        <ele>222</ele>
        <time>2017-02-26T09:27:36Z</time>
      </trkpt>
      <trkpt lat="45.31833" lon="1.46523">
        <ele>223</ele>
        <time>2017-02-26T09:27:37Z</time>
      </trkpt>
      <trkpt lat="45.3184" lon="1.46504">
        <ele>223</ele>
        <time>2017-02-26T09:27:44Z</time>
      </trkpt>
      <trkpt lat="45.31841" lon="1.46502">
        <ele>224</ele>
        <time>2017-02-26T09:27:45Z</time>
      </trkpt>
      <trkpt lat="45.31845" lon="1.46495">
        <ele>225</ele>
        <time>2017-02-26T09:27:48Z</time>
      </trkpt>
      <trkpt lat="45.31849" lon="1.4649">
        <ele>226</ele>
        <time>2017-02-26T09:27:51Z</time>
      </trkpt>
      <trkpt lat="45.3185" lon="1.4649">
        <ele>226</ele>
        <time>2017-02-26T09:27:52Z</time>
      </trkpt>
      <trkpt lat="45.31858" lon="1.46484">
        <ele>226</ele>
        <time>2017-02-26T09:27:58Z</time>
      </trkpt>
      <trkpt lat="45.31867" lon="1.46476">
        <ele>227</ele>
        <time>2017-02-26T09:28:03Z</time>
      </trkpt>
      <trkpt lat="45.31868" lon="1.46474">
        <ele>228</ele>
        <time>2017-02-26T09:28:04Z</time>
      </trkpt>
      <trkpt lat="45.31871" lon="1.46469">
        <ele>229</ele>
        <time>2017-02-26T09:28:06Z</time>
      </trkpt>
      <trkpt lat="45.31873" lon="1.46468">
        <ele>229</ele>
        <time>2017-02-26T09:28:07Z</time>
      </trkpt>
      <trkpt lat="45.31877" lon="1.46464">
        <ele>230</ele>
        <time>2017-02-26T09:28:10Z</time>
      </trkpt>
      <trkpt lat="45.31878" lon="1.46462">
        <ele>230</ele>
        <time>2017-02-26T09:28:11Z</time>
      </trkpt>
      <trkpt lat="45.3188" lon="1.46457">
        <ele>231</ele>
        <time>2017-02-26T09:28:13Z</time>
      </trkpt>
      <trkpt lat="45.31881" lon="1.46453">
        <ele>232</ele>
        <time>2017-02-26T09:28:15Z</time>
      </trkpt>
      <trkpt lat="45.31882" lon="1.46451">
        <ele>233</ele>
        <time>2017-02-26T09:28:16Z</time>
      </trkpt>
      <trkpt lat="45.31883" lon="1.46449">
        <ele>233</ele>
        <time>2017-02-26T09:28:17Z</time>
      </trkpt>
      <trkpt lat="45.31885" lon="1.46442">
        <ele>235</ele>
        <time>2017-02-26T09:28:20Z</time>
      </trkpt>
      <trkpt lat="45.31886" lon="1.46438">
        <ele>235</ele>
        <time>2017-02-26T09:28:22Z</time>
      </trkpt>
      <trkpt lat="45.31888" lon="1.46434">
        <ele>236</ele>
        <time>2017-02-26T09:28:24Z</time>
      </trkpt>
      <trkpt lat="45.31889" lon="1.4643">
        <ele>237</ele>
        <time>2017-02-26T09:28:27Z</time>
      </trkpt>
      <trkpt lat="45.31891" lon="1.46424">
        <ele>239</ele>
        <time>2017-02-26T09:28:31Z</time>
      </trkpt>
      <trkpt lat="45.31893" lon="1.4642">
        <ele>240</ele>
        <time>2017-02-26T09:28:34Z</time>
      </trkpt>
      <trkpt lat="45.31895" lon="1.46416">
        <ele>241</ele>
        <time>2017-02-26T09:28:37Z</time>
      </trkpt>
      <trkpt lat="45.31897" lon="1.46408">
        <ele>242</ele>
        <time>2017-02-26T09:28:43Z</time>
      </trkpt>
      <trkpt lat="45.31899" lon="1.46405">
        <ele>244</ele>
        <time>2017-02-26T09:28:46Z</time>
      </trkpt>
      <trkpt lat="45.319" lon="1.46402">
        <ele>244</ele>
        <time>2017-02-26T09:28:48Z</time>
      </trkpt>
      <trkpt lat="45.31901" lon="1.46398">
        <ele>245</ele>
        <time>2017-02-26T09:28:50Z</time>
      </trkpt>
      <trkpt lat="45.31905" lon="1.46388">
        <ele>246</ele>
        <time>2017-02-26T09:28:55Z</time>
      </trkpt>
      <trkpt lat="45.31909" lon="1.46381">
        <ele>247</ele>
        <time>2017-02-26T09:28:58Z</time>
      </trkpt>
      <trkpt lat="45.31914" lon="1.46375">
        <ele>248</ele>
        <time>2017-02-26T09:29:02Z</time>
      </trkpt>
      <trkpt lat="45.31921" lon="1.4637">
        <ele>248</ele>
        <time>2017-02-26T09:29:06Z</time>
      </trkpt>
      <trkpt lat="45.31924" lon="1.46367">
        <ele>248</ele>
        <time>2017-02-26T09:29:08Z</time>
      </trkpt>
      <trkpt lat="45.31931" lon="1.4636">
        <ele>249</ele>
        <time>2017-02-26T09:29:13Z</time>
      </trkpt>
      <trkpt lat="45.31933" lon="1.46358">
        <ele>250</ele>
        <time>2017-02-26T09:29:15Z</time>
      </trkpt>
      <trkpt lat="45.31938" lon="1.4635">
        <ele>250</ele>
        <time>2017-02-26T09:29:19Z</time>
      </trkpt>
      <trkpt lat="45.31941" lon="1.46348">
        <ele>250</ele>
        <time>2017-02-26T09:29:21Z</time>
      </trkpt>
      <trkpt lat="45.31946" lon="1.46341">
        <ele>251</ele>
        <time>2017-02-26T09:29:26Z</time>
      </trkpt>
      <trkpt lat="45.31947" lon="1.46339">
        <ele>252</ele>
        <time>2017-02-26T09:29:27Z</time>
      </trkpt>
      <trkpt lat="45.31949" lon="1.46337">
        <ele>253</ele>
        <time>2017-02-26T09:29:29Z</time>
      </trkpt>
      <trkpt lat="45.31951" lon="1.46334">
        <ele>253</ele>
        <time>2017-02-26T09:29:31Z</time>
      </trkpt>
      <trkpt lat="45.31952" lon="1.46333">
        <ele>254</ele>
        <time>2017-02-26T09:29:32Z</time>
      </trkpt>
      <trkpt lat="45.31956" lon="1.46327">
        <ele>255</ele>
        <time>2017-02-26T09:29:36Z</time>
      </trkpt>
      <trkpt lat="45.31958" lon="1.46325">
        <ele>256</ele>
        <time>2017-02-26T09:29:38Z</time>
      </trkpt>
      <trkpt lat="45.31958" lon="1.46323">
        <ele>256</ele>
        <time>2017-02-26T09:29:39Z</time>
      </trkpt>
      <trkpt lat="45.31997" lon="1.46288">
        <ele>265</ele>
        <time>2017-02-26T09:34:26Z</time>
      </trkpt>
      <trkpt lat="45.32001" lon="1.46286">
        <ele>265</ele>
        <time>2017-02-26T09:34:28Z</time>
      </trkpt>
      <trkpt lat="45.32005" lon="1.46286">
        <ele>265</ele>
        <time>2017-02-26T09:34:30Z</time>
      </trkpt>
      <trkpt lat="45.32011" lon="1.46284">
        <ele>265</ele>
        <time>2017-02-26T09:34:33Z</time>
      </trkpt>
      <trkpt lat="45.32027" lon="1.46278">
        <ele>265</ele>
        <time>2017-02-26T09:34:38Z</time>
      </trkpt>
      <trkpt lat="45.3203" lon="1.46276">
        <ele>264</ele>
        <time>2017-02-26T09:34:39Z</time>
      </trkpt>
      <trkpt lat="45.32042" lon="1.46272">
        <ele>263</ele>
        <time>2017-02-26T09:34:43Z</time>
      </trkpt>
      <trkpt lat="45.32057" lon="1.46271">
        <ele>263</ele>
        <time>2017-02-26T09:34:48Z</time>
      </trkpt>
      <trkpt lat="45.3206" lon="1.46271">
        <ele>263</ele>
        <time>2017-02-26T09:34:49Z</time>
      </trkpt>
      <trkpt lat="45.32076" lon="1.46271">
        <ele>263</ele>
        <time>2017-02-26T09:34:54Z</time>
      </trkpt>
      <trkpt lat="45.32093" lon="1.46271">
        <ele>263</ele>
        <time>2017-02-26T09:35:00Z</time>
      </trkpt>
      <trkpt lat="45.32095" lon="1.46274">
        <ele>263</ele>
        <time>2017-02-26T09:35:01Z</time>
      </trkpt>
      <trkpt lat="45.32096" lon="1.46283">
        <ele>264</ele>
        <time>2017-02-26T09:35:04Z</time>
      </trkpt>
      <trkpt lat="45.32095" lon="1.46287">
        <ele>264</ele>
        <time>2017-02-26T09:35:05Z</time>
      </trkpt>
      <trkpt lat="45.32091" lon="1.46298">
        <ele>266</ele>
        <time>2017-02-26T09:35:08Z</time>
      </trkpt>
      <trkpt lat="45.3209" lon="1.46302">
        <ele>266</ele>
        <time>2017-02-26T09:35:09Z</time>
      </trkpt>
      <trkpt lat="45.32087" lon="1.46309">
        <ele>267</ele>
        <time>2017-02-26T09:35:11Z</time>
      </trkpt>
      <trkpt lat="45.32082" lon="1.46319">
        <ele>267</ele>
        <time>2017-02-26T09:35:14Z</time>
      </trkpt>
      <trkpt lat="45.3208" lon="1.46324">
        <ele>267</ele>
        <time>2017-02-26T09:35:15Z</time>
      </trkpt>
      <trkpt lat="45.32078" lon="1.46331">
        <ele>268</ele>
        <time>2017-02-26T09:35:17Z</time>
      </trkpt>
      <trkpt lat="45.32077" lon="1.46334">
        <ele>268</ele>
        <time>2017-02-26T09:35:18Z</time>
      </trkpt>
      <trkpt lat="45.32076" lon="1.46343">
        <ele>269</ele>
        <time>2017-02-26T09:35:21Z</time>
      </trkpt>
      <trkpt lat="45.32076" lon="1.46349">
        <ele>271</ele>
        <time>2017-02-26T09:35:23Z</time>
      </trkpt>
      <trkpt lat="45.32076" lon="1.46351">
        <ele>271</ele>
        <time>2017-02-26T09:35:24Z</time>
      </trkpt>
      <trkpt lat="45.32075" lon="1.46353">
        <ele>272</ele>
        <time>2017-02-26T09:35:25Z</time>
      </trkpt>
      <trkpt lat="45.32073" lon="1.46361">
        <ele>273</ele>
        <time>2017-02-26T09:35:28Z</time>
      </trkpt>
      <trkpt lat="45.32071" lon="1.46366">
        <ele>273</ele>
        <time>2017-02-26T09:35:30Z</time>
      </trkpt>
      <trkpt lat="45.32069" lon="1.46371">
        <ele>274</ele>
        <time>2017-02-26T09:35:32Z</time>
      </trkpt>
      <trkpt lat="45.32064" lon="1.46377">
        <ele>276</ele>
        <time>2017-02-26T09:35:35Z</time>
      </trkpt>
      <trkpt lat="45.32061" lon="1.46381">
        <ele>276</ele>
        <time>2017-02-26T09:35:37Z</time>
      </trkpt>
      <trkpt lat="45.32057" lon="1.46388">
        <ele>277</ele>
        <time>2017-02-26T09:35:40Z</time>
      </trkpt>
      <trkpt lat="45.32051" lon="1.46402">
        <ele>278</ele>
        <time>2017-02-26T09:35:44Z</time>
      </trkpt>
      <trkpt lat="45.32051" lon="1.46412">
        <ele>280</ele>
        <time>2017-02-26T09:35:47Z</time>
      </trkpt>
      <trkpt lat="45.3205" lon="1.46421">
        <ele>281</ele>
        <time>2017-02-26T09:35:49Z</time>
      </trkpt>
      <trkpt lat="45.32049" lon="1.46428">
        <ele>282</ele>
        <time>2017-02-26T09:35:51Z</time>
      </trkpt>
      <trkpt lat="45.32049" lon="1.46435">
        <ele>283</ele>
        <time>2017-02-26T09:35:53Z</time>
      </trkpt>
      <trkpt lat="45.32051" lon="1.46442">
        <ele>284</ele>
        <time>2017-02-26T09:35:56Z</time>
      </trkpt>
      <trkpt lat="45.32052" lon="1.46446">
        <ele>285</ele>
        <time>2017-02-26T09:35:58Z</time>
      </trkpt>
      <trkpt lat="45.32056" lon="1.46453">
        <ele>287</ele>
        <time>2017-02-26T09:36:02Z</time>
      </trkpt>
      <trkpt lat="45.32059" lon="1.46458">
        <ele>286</ele>
        <time>2017-02-26T09:36:04Z</time>
      </trkpt>
      <trkpt lat="45.32063" lon="1.46467">
        <ele>286</ele>
        <time>2017-02-26T09:36:09Z</time>
      </trkpt>
      <trkpt lat="45.32069" lon="1.46479">
        <ele>286</ele>
        <time>2017-02-26T09:36:16Z</time>
      </trkpt>
      <trkpt lat="45.32072" lon="1.46489">
        <ele>285</ele>
        <time>2017-02-26T09:36:21Z</time>
      </trkpt>
      <trkpt lat="45.32074" lon="1.46493">
        <ele>285</ele>
        <time>2017-02-26T09:36:23Z</time>
      </trkpt>
      <trkpt lat="45.32075" lon="1.46495">
        <ele>284</ele>
        <time>2017-02-26T09:36:24Z</time>
      </trkpt>
      <trkpt lat="45.32082" lon="1.46501">
        <ele>283</ele>
        <time>2017-02-26T09:36:28Z</time>
      </trkpt>
      <trkpt lat="45.32083" lon="1.46502">
        <ele>283</ele>
        <time>2017-02-26T09:36:29Z</time>
      </trkpt>
      <trkpt lat="45.32116" lon="1.4649">
        <ele>281</ele>
        <time>2017-02-26T09:37:22Z</time>
      </trkpt>
      <trkpt lat="45.32119" lon="1.46488">
        <ele>282</ele>
        <time>2017-02-26T09:37:24Z</time>
      </trkpt>
      <trkpt lat="45.32128" lon="1.46485">
        <ele>282</ele>
        <time>2017-02-26T09:37:29Z</time>
      </trkpt>
      <trkpt lat="45.32132" lon="1.46484">
        <ele>282</ele>
        <time>2017-02-26T09:37:32Z</time>
      </trkpt>
      <trkpt lat="45.32146" lon="1.46478">
        <ele>282</ele>
        <time>2017-02-26T09:37:40Z</time>
      </trkpt>
      <trkpt lat="45.32157" lon="1.46475">
        <ele>281</ele>
        <time>2017-02-26T09:37:46Z</time>
      </trkpt>
      <trkpt lat="45.32161" lon="1.46475">
        <ele>281</ele>
        <time>2017-02-26T09:37:48Z</time>
      </trkpt>
      <trkpt lat="45.32171" lon="1.46476">
        <ele>280</ele>
        <time>2017-02-26T09:37:53Z</time>
      </trkpt>
      <trkpt lat="45.32173" lon="1.46477">
        <ele>280</ele>
        <time>2017-02-26T09:37:54Z</time>
      </trkpt>
      <trkpt lat="45.32192" lon="1.46481">
        <ele>281</ele>
        <time>2017-02-26T09:38:03Z</time>
      </trkpt>
      <trkpt lat="45.32211" lon="1.46479">
        <ele>280</ele>
        <time>2017-02-26T09:38:11Z</time>
      </trkpt>
      <trkpt lat="45.32224" lon="1.46476">
        <ele>280</ele>
        <time>2017-02-26T09:38:17Z</time>
      </trkpt>
      <trkpt lat="45.32241" lon="1.46475">
        <ele>280</ele>
        <time>2017-02-26T09:38:23Z</time>
      </trkpt>
      <trkpt lat="45.3226" lon="1.46477">
        <ele>280</ele>
        <time>2017-02-26T09:38:29Z</time>
      </trkpt>
      <trkpt lat="45.32272" lon="1.46485">
        <ele>280</ele>
        <time>2017-02-26T09:38:32Z</time>
      </trkpt>
      <trkpt lat="45.3228" lon="1.46493">
        <ele>281</ele>
        <time>2017-02-26T09:38:34Z</time>
      </trkpt>
      <trkpt lat="45.32291" lon="1.46511">
        <ele>281</ele>
        <time>2017-02-26T09:38:38Z</time>
      </trkpt>
      <trkpt lat="45.32297" lon="1.46524">
        <ele>282</ele>
        <time>2017-02-26T09:38:41Z</time>
      </trkpt>
      <trkpt lat="45.32301" lon="1.46536">
        <ele>283</ele>
        <time>2017-02-26T09:38:44Z</time>
      </trkpt>
      <trkpt lat="45.32306" lon="1.46539">
        <ele>283</ele>
        <time>2017-02-26T09:38:46Z</time>
      </trkpt>
      <trkpt lat="45.32309" lon="1.46533">
        <ele>283</ele>
        <time>2017-02-26T09:38:48Z</time>
      </trkpt>
      <trkpt lat="45.3231" lon="1.46524">
        <ele>283</ele>
        <time>2017-02-26T09:38:51Z</time>
      </trkpt>
      <trkpt lat="45.32312" lon="1.4652">
        <ele>284</ele>
        <time>2017-02-26T09:38:53Z</time>
      </trkpt>
      <trkpt lat="45.3231" lon="1.46512">
        <ele>285</ele>
        <time>2017-02-26T09:41:36Z</time>
      </trkpt>
      <trkpt lat="45.32311" lon="1.4651">
        <ele>285</ele>
        <time>2017-02-26T09:41:37Z</time>
      </trkpt>
      <trkpt lat="45.32313" lon="1.4651">
        <ele>285</ele>
        <time>2017-02-26T09:41:38Z</time>
      </trkpt>
      <trkpt lat="45.32316" lon="1.46513">
        <ele>286</ele>
        <time>2017-02-26T09:41:40Z</time>
      </trkpt>
      <trkpt lat="45.3232" lon="1.46515">
        <ele>287</ele>
        <time>2017-02-26T09:41:42Z</time>
      </trkpt>
      <trkpt lat="45.32323" lon="1.46514">
        <ele>287</ele>
        <time>2017-02-26T09:41:44Z</time>
      </trkpt>
      <trkpt lat="45.32327" lon="1.4651">
        <ele>288</ele>
        <time>2017-02-26T09:41:47Z</time>
      </trkpt>
      <trkpt lat="45.32328" lon="1.46509">
        <ele>288</ele>
        <time>2017-02-26T09:41:48Z</time>
      </trkpt>
      <trkpt lat="45.32332" lon="1.46506">
        <ele>289</ele>
        <time>2017-02-26T09:41:51Z</time>
      </trkpt>
      <trkpt lat="45.32336" lon="1.46503">
        <ele>290</ele>
        <time>2017-02-26T09:41:54Z</time>
      </trkpt>
      <trkpt lat="45.32341" lon="1.46498">
        <ele>291</ele>
        <time>2017-02-26T09:41:59Z</time>
      </trkpt>
      <trkpt lat="45.32342" lon="1.46497">
        <ele>291</ele>
        <time>2017-02-26T09:42:00Z</time>
      </trkpt>
      <trkpt lat="45.32346" lon="1.46493">
        <ele>292</ele>
        <time>2017-02-26T09:42:04Z</time>
      </trkpt>
      <trkpt lat="45.32347" lon="1.46492">
        <ele>292</ele>
        <time>2017-02-26T09:42:05Z</time>
      </trkpt>
      <trkpt lat="45.3235" lon="1.4649">
        <ele>292</ele>
        <time>2017-02-26T09:42:08Z</time>
      </trkpt>
      <trkpt lat="45.32352" lon="1.46488">
        <ele>293</ele>
        <time>2017-02-26T09:42:10Z</time>
      </trkpt>
      <trkpt lat="45.32354" lon="1.46485">
        <ele>293</ele>
        <time>2017-02-26T09:42:12Z</time>
      </trkpt>
      <trkpt lat="45.32364" lon="1.46477">
        <ele>294</ele>
        <time>2017-02-26T09:42:20Z</time>
      </trkpt>
      <trkpt lat="45.32408" lon="1.46439">
        <ele>301</ele>
        <time>2017-02-26T09:42:55Z</time>
      </trkpt>
      <trkpt lat="45.32411" lon="1.46436">
        <ele>302</ele>
        <time>2017-02-26T09:42:57Z</time>
      </trkpt>
      <trkpt lat="45.32415" lon="1.46433">
        <ele>303</ele>
        <time>2017-02-26T09:43:00Z</time>
      </trkpt>
      <trkpt lat="45.3242" lon="1.46426">
        <ele>304</ele>
        <time>2017-02-26T09:43:05Z</time>
      </trkpt>
      <trkpt lat="45.32423" lon="1.46423">
        <ele>305</ele>
        <time>2017-02-26T09:43:08Z</time>
      </trkpt>
      <trkpt lat="45.32424" lon="1.4642">
        <ele>306</ele>
        <time>2017-02-26T09:43:11Z</time>
      </trkpt>
      <trkpt lat="45.32425" lon="1.46417">
        <ele>306</ele>
        <time>2017-02-26T09:43:13Z</time>
      </trkpt>
      <trkpt lat="45.32429" lon="1.46409">
        <ele>307</ele>
        <time>2017-02-26T09:43:18Z</time>
      </trkpt>
      <trkpt lat="45.32429" lon="1.46407">
        <ele>307</ele>
        <time>2017-02-26T09:43:19Z</time>
      </trkpt>
      <trkpt lat="45.32429" lon="1.46403">
        <ele>307</ele>
        <time>2017-02-26T09:43:21Z</time>
      </trkpt>
      <trkpt lat="45.32429" lon="1.464">
        <ele>308</ele>
        <time>2017-02-26T09:43:23Z</time>
      </trkpt>
      <trkpt lat="45.32428" lon="1.46398">
        <ele>308</ele>
        <time>2017-02-26T09:43:24Z</time>
      </trkpt>
      <trkpt lat="45.32427" lon="1.46397">
        <ele>308</ele>
        <time>2017-02-26T09:43:25Z</time>
      </trkpt>
      <trkpt lat="45.32425" lon="1.46397">
        <ele>309</ele>
        <time>2017-02-26T09:43:26Z</time>
      </trkpt>
      <trkpt lat="45.32424" lon="1.46396">
        <ele>310</ele>
        <time>2017-02-26T09:43:27Z</time>
      </trkpt>
      <trkpt lat="45.32423" lon="1.46394">
        <ele>310</ele>
        <time>2017-02-26T09:43:28Z</time>
      </trkpt>
      <trkpt lat="45.32424" lon="1.46392">
        <ele>310</ele>
        <time>2017-02-26T09:43:29Z</time>
      </trkpt>
      <trkpt lat="45.32423" lon="1.46389">
        <ele>311</ele>
        <time>2017-02-26T09:43:30Z</time>
      </trkpt>
      <trkpt lat="45.32424" lon="1.46385">
        <ele>312</ele>
        <time>2017-02-26T09:43:32Z</time>
      </trkpt>
      <trkpt lat="45.32424" lon="1.46379">
        <ele>312</ele>
        <time>2017-02-26T09:43:34Z</time>
      </trkpt>
      <trkpt lat="45.32425" lon="1.46373">
        <ele>313</ele>
        <time>2017-02-26T09:43:36Z</time>
      </trkpt>
      <trkpt lat="45.32427" lon="1.46365">
        <ele>314</ele>
        <time>2017-02-26T09:43:39Z</time>
      </trkpt>
      <trkpt lat="45.32427" lon="1.46357">
        <ele>315</ele>
        <time>2017-02-26T09:43:42Z</time>
      </trkpt>
      <trkpt lat="45.3243" lon="1.46346">
        <ele>316</ele>
        <time>2017-02-26T09:44:35Z</time>
      </trkpt>
      <trkpt lat="45.32431" lon="1.46344">
        <ele>316</ele>
        <time>2017-02-26T09:44:36Z</time>
      </trkpt>
      <trkpt lat="45.32436" lon="1.46333">
        <ele>316</ele>
        <time>2017-02-26T09:44:44Z</time>
      </trkpt>
      <trkpt lat="45.32436" lon="1.46329">
        <ele>315</ele>
        <time>2017-02-26T09:44:46Z</time>
      </trkpt>
      <trkpt lat="45.32435" lon="1.46326">
        <ele>314</ele>
        <time>2017-02-26T09:44:47Z</time>
      </trkpt>
      <trkpt lat="45.32436" lon="1.4632">
        <ele>313</ele>
        <time>2017-02-26T09:44:50Z</time>
      </trkpt>
      <trkpt lat="45.32437" lon="1.46319">
        <ele>313</ele>
        <time>2017-02-26T09:44:51Z</time>
      </trkpt>
      <trkpt lat="45.3244" lon="1.46311">
        <ele>313</ele>
        <time>2017-02-26T09:44:56Z</time>
      </trkpt>
      <trkpt lat="45.32441" lon="1.4631">
        <ele>314</ele>
        <time>2017-02-26T09:44:57Z</time>
      </trkpt>
      <trkpt lat="45.32442" lon="1.46308">
        <ele>314</ele>
        <time>2017-02-26T09:44:58Z</time>
      </trkpt>
      <trkpt lat="45.32442" lon="1.46303">
        <ele>315</ele>
        <time>2017-02-26T09:45:01Z</time>
      </trkpt>
      <trkpt lat="45.32445" lon="1.46298">
        <ele>316</ele>
        <time>2017-02-26T09:45:04Z</time>
      </trkpt>
      <trkpt lat="45.32446" lon="1.46297">
        <ele>316</ele>
        <time>2017-02-26T09:45:05Z</time>
      </trkpt>
      <trkpt lat="45.32449" lon="1.46291">
        <ele>317</ele>
        <time>2017-02-26T09:45:09Z</time>
      </trkpt>
      <trkpt lat="45.3245" lon="1.46286">
        <ele>318</ele>
        <time>2017-02-26T09:45:12Z</time>
      </trkpt>
      <trkpt lat="45.32451" lon="1.46283">
        <ele>318</ele>
        <time>2017-02-26T09:45:14Z</time>
      </trkpt>
      <trkpt lat="45.32452" lon="1.4628">
        <ele>320</ele>
        <time>2017-02-26T09:45:16Z</time>
      </trkpt>
      <trkpt lat="45.32453" lon="1.46274">
        <ele>320</ele>
        <time>2017-02-26T09:45:19Z</time>
      </trkpt>
      <trkpt lat="45.32453" lon="1.46273">
        <ele>321</ele>
        <time>2017-02-26T09:45:20Z</time>
      </trkpt>
      <trkpt lat="45.32455" lon="1.46262">
        <ele>322</ele>
        <time>2017-02-26T09:45:26Z</time>
      </trkpt>
      <trkpt lat="45.32456" lon="1.4626">
        <ele>322</ele>
        <time>2017-02-26T09:45:27Z</time>
      </trkpt>
      <trkpt lat="45.32458" lon="1.46254">
        <ele>323</ele>
        <time>2017-02-26T09:45:30Z</time>
      </trkpt>
      <trkpt lat="45.32459" lon="1.46248">
        <ele>324</ele>
        <time>2017-02-26T09:45:33Z</time>
      </trkpt>
      <trkpt lat="45.3246" lon="1.46239">
        <ele>324</ele>
        <time>2017-02-26T09:45:37Z</time>
      </trkpt>
      <trkpt lat="45.32462" lon="1.46234">
        <ele>325</ele>
        <time>2017-02-26T09:45:40Z</time>
      </trkpt>
      <trkpt lat="45.32463" lon="1.46232">
        <ele>326</ele>
        <time>2017-02-26T09:45:41Z</time>
      </trkpt>
      <trkpt lat="45.32464" lon="1.46226">
        <ele>327</ele>
        <time>2017-02-26T09:45:44Z</time>
      </trkpt>
      <trkpt lat="45.32466" lon="1.46218">
        <ele>328</ele>
        <time>2017-02-26T09:45:48Z</time>
      </trkpt>
      <trkpt lat="45.32467" lon="1.46214">
        <ele>328</ele>
        <time>2017-02-26T09:45:50Z</time>
      </trkpt>
      <trkpt lat="45.32467" lon="1.4621">
        <ele>329</ele>
        <time>2017-02-26T09:45:52Z</time>
      </trkpt>
      <trkpt lat="45.32469" lon="1.46201">
        <ele>329</ele>
        <time>2017-02-26T09:45:58Z</time>
      </trkpt>
      <trkpt lat="45.32471" lon="1.46192">
        <ele>330</ele>
        <time>2017-02-26T09:46:05Z</time>
      </trkpt>
      <trkpt lat="45.32472" lon="1.46181">
        <ele>330</ele>
        <time>2017-02-26T09:46:11Z</time>
      </trkpt>
      <trkpt lat="45.32473" lon="1.46175">
        <ele>330</ele>
        <time>2017-02-26T09:46:14Z</time>
      </trkpt>
      <trkpt lat="45.32475" lon="1.46166">
        <ele>331</ele>
        <time>2017-02-26T09:46:19Z</time>
      </trkpt>
      <trkpt lat="45.32478" lon="1.46157">
        <ele>331</ele>
        <time>2017-02-26T09:46:24Z</time>
      </trkpt>
      <trkpt lat="45.32479" lon="1.46146">
        <ele>332</ele>
        <time>2017-02-26T09:46:31Z</time>
      </trkpt>
      <trkpt lat="45.32479" lon="1.46139">
        <ele>333</ele>
        <time>2017-02-26T09:46:34Z</time>
      </trkpt>
      <trkpt lat="45.32479" lon="1.46137">
        <ele>333</ele>
        <time>2017-02-26T09:46:35Z</time>
      </trkpt>
      <trkpt lat="45.3248" lon="1.46123">
        <ele>334</ele>
        <time>2017-02-26T09:46:41Z</time>
      </trkpt>
      <trkpt lat="45.3248" lon="1.46116">
        <ele>334</ele>
        <time>2017-02-26T09:46:44Z</time>
      </trkpt>
      <trkpt lat="45.3248" lon="1.46104">
        <ele>334</ele>
        <time>2017-02-26T09:46:50Z</time>
      </trkpt>
      <trkpt lat="45.3248" lon="1.46091">
        <ele>333</ele>
        <time>2017-02-26T09:46:56Z</time>
      </trkpt>
      <trkpt lat="45.3248" lon="1.4609">
        <ele>333</ele>
        <time>2017-02-26T09:46:57Z</time>
      </trkpt>
      <trkpt lat="45.32478" lon="1.46085">
        <ele>333</ele>
        <time>2017-02-26T09:47:00Z</time>
      </trkpt>
      <trkpt lat="45.32476" lon="1.46081">
        <ele>332</ele>
        <time>2017-02-26T09:47:02Z</time>
      </trkpt>
      <trkpt lat="45.32475" lon="1.46079">
        <ele>332</ele>
        <time>2017-02-26T09:47:03Z</time>
      </trkpt>
      <trkpt lat="45.32468" lon="1.46074">
        <ele>331</ele>
        <time>2017-02-26T09:47:08Z</time>
      </trkpt>
      <trkpt lat="45.32459" lon="1.46067">
        <ele>331</ele>
        <time>2017-02-26T09:47:15Z</time>
      </trkpt>
      <trkpt lat="45.32457" lon="1.46066">
        <ele>332</ele>
        <time>2017-02-26T09:47:17Z</time>
      </trkpt>
      <trkpt lat="45.32451" lon="1.46064">
        <ele>333</ele>
        <time>2017-02-26T09:47:21Z</time>
      </trkpt>
      <trkpt lat="45.3245" lon="1.46063">
        <ele>333</ele>
        <time>2017-02-26T09:47:22Z</time>
      </trkpt>
      <trkpt lat="45.32445" lon="1.46058">
        <ele>334</ele>
        <time>2017-02-26T09:47:26Z</time>
      </trkpt>
      <trkpt lat="45.32444" lon="1.46056">
        <ele>334</ele>
        <time>2017-02-26T09:47:27Z</time>
      </trkpt>
      <trkpt lat="45.32444" lon="1.46053">
        <ele>335</ele>
        <time>2017-02-26T09:47:28Z</time>
      </trkpt>
      <trkpt lat="45.32443" lon="1.46049">
        <ele>335</ele>
        <time>2017-02-26T09:47:30Z</time>
      </trkpt>
      <trkpt lat="45.32443" lon="1.46047">
        <ele>335</ele>
        <time>2017-02-26T09:47:31Z</time>
      </trkpt>
      <trkpt lat="45.32443" lon="1.46043">
        <ele>336</ele>
        <time>2017-02-26T09:47:33Z</time>
      </trkpt>
      <trkpt lat="45.32443" lon="1.46037">
        <ele>337</ele>
        <time>2017-02-26T09:47:36Z</time>
      </trkpt>
      <trkpt lat="45.32443" lon="1.46027">
        <ele>337</ele>
        <time>2017-02-26T09:47:40Z</time>
      </trkpt>
      <trkpt lat="45.32441" lon="1.46017">
        <ele>337</ele>
        <time>2017-02-26T09:47:45Z</time>
      </trkpt>
      <trkpt lat="45.32441" lon="1.46014">
        <ele>337</ele>
        <time>2017-02-26T09:47:46Z</time>
      </trkpt>
      <trkpt lat="45.32439" lon="1.46002">
        <ele>337</ele>
        <time>2017-02-26T09:47:51Z</time>
      </trkpt>
      <trkpt lat="45.32432" lon="1.45995">
        <ele>337</ele>
        <time>2017-02-26T09:47:57Z</time>
      </trkpt>
      <trkpt lat="45.32426" lon="1.45991">
        <ele>336</ele>
        <time>2017-02-26T09:48:01Z</time>
      </trkpt>
      <trkpt lat="45.3242" lon="1.45986">
        <ele>336</ele>
        <time>2017-02-26T09:48:05Z</time>
      </trkpt>
      <trkpt lat="45.32418" lon="1.45985">
        <ele>335</ele>
        <time>2017-02-26T09:48:06Z</time>
      </trkpt>
      <trkpt lat="45.32413" lon="1.45979">
        <ele>335</ele>
        <time>2017-02-26T09:48:10Z</time>
      </trkpt>
      <trkpt lat="45.32411" lon="1.45976">
        <ele>336</ele>
        <time>2017-02-26T09:48:12Z</time>
      </trkpt>
      <trkpt lat="45.32387" lon="1.45963">
        <ele>341</ele>
        <time>2017-02-26T09:48:32Z</time>
      </trkpt>
      <trkpt lat="45.32385" lon="1.45962">
        <ele>342</ele>
        <time>2017-02-26T09:48:34Z</time>
      </trkpt>
      <trkpt lat="45.32383" lon="1.45962">
        <ele>342</ele>
        <time>2017-02-26T09:48:35Z</time>
      </trkpt>
      <trkpt lat="45.32379" lon="1.4596">
        <ele>343</ele>
        <time>2017-02-26T09:48:37Z</time>
      </trkpt>
      <trkpt lat="45.32377" lon="1.45959">
        <ele>345</ele>
        <time>2017-02-26T09:48:38Z</time>
      </trkpt>
      <trkpt lat="45.32376" lon="1.45958">
        <ele>346</ele>
        <time>2017-02-26T09:48:39Z</time>
      </trkpt>
      <trkpt lat="45.32374" lon="1.45957">
        <ele>347</ele>
        <time>2017-02-26T09:48:40Z</time>
      </trkpt>
      <trkpt lat="45.32372" lon="1.45956">
        <ele>349</ele>
        <time>2017-02-26T09:48:41Z</time>
      </trkpt>
      <trkpt lat="45.32369" lon="1.45955">
        <ele>350</ele>
        <time>2017-02-26T09:48:43Z</time>
      </trkpt>
      <trkpt lat="45.32359" lon="1.4595">
        <ele>359</ele>
        <time>2017-02-26T09:48:54Z</time>
      </trkpt>
      <trkpt lat="45.32358" lon="1.45949">
        <ele>359</ele>
        <time>2017-02-26T09:48:55Z</time>
      </trkpt>
      <trkpt lat="45.32353" lon="1.4595">
        <ele>360</ele>
        <time>2017-02-26T09:48:59Z</time>
      </trkpt>
      <trkpt lat="45.32347" lon="1.45951">
        <ele>360</ele>
        <time>2017-02-26T09:49:03Z</time>
      </trkpt>
      <trkpt lat="45.32346" lon="1.45951">
        <ele>360</ele>
        <time>2017-02-26T09:49:04Z</time>
      </trkpt>
      <trkpt lat="45.32344" lon="1.45951">
        <ele>361</ele>
        <time>2017-02-26T09:49:05Z</time>
      </trkpt>
      <trkpt lat="45.3234" lon="1.45951">
        <ele>361</ele>
        <time>2017-02-26T09:49:08Z</time>
      </trkpt>
      <trkpt lat="45.32335" lon="1.45949">
        <ele>362</ele>
        <time>2017-02-26T09:49:12Z</time>
      </trkpt>
      <trkpt lat="45.32334" lon="1.45948">
        <ele>362</ele>
        <time>2017-02-26T09:49:13Z</time>
      </trkpt>
      <trkpt lat="45.32333" lon="1.45947">
        <ele>363</ele>
        <time>2017-02-26T09:49:14Z</time>
      </trkpt>
      <trkpt lat="45.32329" lon="1.45945">
        <ele>364</ele>
        <time>2017-02-26T09:49:17Z</time>
      </trkpt>
      <trkpt lat="45.32326" lon="1.45945">
        <ele>364</ele>
        <time>2017-02-26T09:49:19Z</time>
      </trkpt>
      <trkpt lat="45.32293" lon="1.45888">
        <ele>370</ele>
        <time>2017-02-26T09:50:05Z</time>
      </trkpt>
      <trkpt lat="45.32294" lon="1.45882">
        <ele>371</ele>
        <time>2017-02-26T09:50:07Z</time>
      </trkpt>
      <trkpt lat="45.32301" lon="1.45861">
        <ele>371</ele>
        <time>2017-02-26T09:50:15Z</time>
      </trkpt>
      <trkpt lat="45.32301" lon="1.45859">
        <ele>372</ele>
        <time>2017-02-26T09:50:16Z</time>
      </trkpt>
      <trkpt lat="45.32302" lon="1.45856">
        <ele>373</ele>
        <time>2017-02-26T09:50:18Z</time>
      </trkpt>
      <trkpt lat="45.32305" lon="1.45846">
        <ele>375</ele>
        <time>2017-02-26T09:50:27Z</time>
      </trkpt>
      <trkpt lat="45.32308" lon="1.45833">
        <ele>375</ele>
        <time>2017-02-26T09:50:32Z</time>
      </trkpt>
      <trkpt lat="45.32308" lon="1.45827">
        <ele>376</ele>
        <time>2017-02-26T09:50:35Z</time>
      </trkpt>
      <trkpt lat="45.32308" lon="1.45818">
        <ele>376</ele>
        <time>2017-02-26T09:50:38Z</time>
      </trkpt>
      <trkpt lat="45.32309" lon="1.45802">
        <ele>376</ele>
        <time>2017-02-26T09:50:44Z</time>
      </trkpt>
      <trkpt lat="45.32309" lon="1.45791">
        <ele>377</ele>
        <time>2017-02-26T09:50:49Z</time>
      </trkpt>
      <trkpt lat="45.32309" lon="1.45789">
        <ele>377</ele>
        <time>2017-02-26T09:50:50Z</time>
      </trkpt>
      <trkpt lat="45.32308" lon="1.4578">
        <ele>377</ele>
        <time>2017-02-26T09:50:53Z</time>
      </trkpt>
      <trkpt lat="45.32302" lon="1.45775">
        <ele>377</ele>
        <time>2017-02-26T09:50:55Z</time>
      </trkpt>
      <trkpt lat="45.32295" lon="1.4577">
        <ele>376</ele>
        <time>2017-02-26T09:50:57Z</time>
      </trkpt>
      <trkpt lat="45.32285" lon="1.45765">
        <ele>376</ele>
        <time>2017-02-26T09:50:59Z</time>
      </trkpt>
      <trkpt lat="45.32269" lon="1.45758">
        <ele>375</ele>
        <time>2017-02-26T09:51:03Z</time>
      </trkpt>
      <trkpt lat="45.32267" lon="1.45757">
        <ele>374</ele>
        <time>2017-02-26T09:51:04Z</time>
      </trkpt>
      <trkpt lat="45.32254" lon="1.45752">
        <ele>374</ele>
        <time>2017-02-26T09:51:10Z</time>
      </trkpt>
      <trkpt lat="45.3225" lon="1.4575">
        <ele>374</ele>
        <time>2017-02-26T09:51:12Z</time>
      </trkpt>
      <trkpt lat="45.32239" lon="1.45743">
        <ele>374</ele>
        <time>2017-02-26T09:51:17Z</time>
      </trkpt>
      <trkpt lat="45.32235" lon="1.45737">
        <ele>374</ele>
        <time>2017-02-26T09:51:20Z</time>
      </trkpt>
      <trkpt lat="45.32234" lon="1.45733">
        <ele>375</ele>
        <time>2017-02-26T09:51:21Z</time>
      </trkpt>
      <trkpt lat="45.32234" lon="1.45729">
        <ele>375</ele>
        <time>2017-02-26T09:51:22Z</time>
      </trkpt>
      <trkpt lat="45.32233" lon="1.45709">
        <ele>376</ele>
        <time>2017-02-26T09:51:26Z</time>
      </trkpt>
      <trkpt lat="45.32234" lon="1.45699">
        <ele>376</ele>
        <time>2017-02-26T09:51:28Z</time>
      </trkpt>
      <trkpt lat="45.32236" lon="1.45677">
        <ele>377</ele>
        <time>2017-02-26T09:51:32Z</time>
      </trkpt>
      <trkpt lat="45.32235" lon="1.45672">
        <ele>377</ele>
        <time>2017-02-26T09:51:33Z</time>
      </trkpt>
      <trkpt lat="45.32235" lon="1.45663">
        <ele>378</ele>
        <time>2017-02-26T09:51:35Z</time>
      </trkpt>
      <trkpt lat="45.32236" lon="1.45651">
        <ele>380</ele>
        <time>2017-02-26T09:51:37Z</time>
      </trkpt>
      <trkpt lat="45.32236" lon="1.45642">
        <ele>380</ele>
        <time>2017-02-26T09:51:39Z</time>
      </trkpt>
      <trkpt lat="45.32235" lon="1.45631">
        <ele>381</ele>
        <time>2017-02-26T09:51:41Z</time>
      </trkpt>
      <trkpt lat="45.32235" lon="1.4562">
        <ele>382</ele>
        <time>2017-02-26T09:51:43Z</time>
      </trkpt>
      <trkpt lat="45.32235" lon="1.4561">
        <ele>383</ele>
        <time>2017-02-26T09:51:45Z</time>
      </trkpt>
      <trkpt lat="45.32234" lon="1.45601">
        <ele>384</ele>
        <time>2017-02-26T09:51:47Z</time>
      </trkpt>
      <trkpt lat="45.32233" lon="1.45588">
        <ele>386</ele>
        <time>2017-02-26T09:51:50Z</time>
      </trkpt>
      <trkpt lat="45.32231" lon="1.45578">
        <ele>387</ele>
        <time>2017-02-26T09:51:53Z</time>
      </trkpt>
      <trkpt lat="45.32231" lon="1.45571">
        <ele>388</ele>
        <time>2017-02-26T09:51:55Z</time>
      </trkpt>
      <trkpt lat="45.32231" lon="1.45564">
        <ele>389</ele>
        <time>2017-02-26T09:51:57Z</time>
      </trkpt>
      <trkpt lat="45.32231" lon="1.45559">
        <ele>390</ele>
        <time>2017-02-26T09:51:59Z</time>
      </trkpt>
      <trkpt lat="45.32231" lon="1.45556">
        <ele>391</ele>
        <time>2017-02-26T09:52:00Z</time>
      </trkpt>
      <trkpt lat="45.32231" lon="1.45552">
        <ele>391</ele>
        <time>2017-02-26T09:52:01Z</time>
      </trkpt>
      <trkpt lat="45.32231" lon="1.45535">
        <ele>392</ele>
        <time>2017-02-26T09:52:06Z</time>
      </trkpt>
      <trkpt lat="45.32229" lon="1.45521">
        <ele>393</ele>
        <time>2017-02-26T09:52:10Z</time>
      </trkpt>
      <trkpt lat="45.32228" lon="1.45516">
        <ele>394</ele>
        <time>2017-02-26T09:52:12Z</time>
      </trkpt>
      <trkpt lat="45.32228" lon="1.45513">
        <ele>394</ele>
        <time>2017-02-26T09:52:13Z</time>
      </trkpt>
      <trkpt lat="45.32227" lon="1.455">
        <ele>395</ele>
        <time>2017-02-26T09:52:18Z</time>
      </trkpt>
      <trkpt lat="45.32227" lon="1.45498">
        <ele>396</ele>
        <time>2017-02-26T09:52:19Z</time>
      </trkpt>
      <trkpt lat="45.32227" lon="1.45496">
        <ele>396</ele>
        <time>2017-02-26T09:52:20Z</time>
      </trkpt>
      <trkpt lat="45.32228" lon="1.45486">
        <ele>398</ele>
        <time>2017-02-26T09:52:24Z</time>
      </trkpt>
      <trkpt lat="45.32228" lon="1.45484">
        <ele>398</ele>
        <time>2017-02-26T09:52:25Z</time>
      </trkpt>
      <trkpt lat="45.32229" lon="1.45478">
        <ele>399</ele>
        <time>2017-02-26T09:52:27Z</time>
      </trkpt>
      <trkpt lat="45.32231" lon="1.45465">
        <ele>399</ele>
        <time>2017-02-26T09:52:32Z</time>
      </trkpt>
      <trkpt lat="45.32235" lon="1.45446">
        <ele>398</ele>
        <time>2017-02-26T09:52:39Z</time>
      </trkpt>
      <trkpt lat="45.32241" lon="1.45433">
        <ele>397</ele>
        <time>2017-02-26T09:52:43Z</time>
      </trkpt>
      <trkpt lat="45.32245" lon="1.45422">
        <ele>396</ele>
        <time>2017-02-26T09:52:46Z</time>
      </trkpt>
      <trkpt lat="45.32252" lon="1.45406">
        <ele>395</ele>
        <time>2017-02-26T09:52:51Z</time>
      </trkpt>
      <trkpt lat="45.32258" lon="1.45392">
        <ele>394</ele>
        <time>2017-02-26T09:52:56Z</time>
      </trkpt>
      <trkpt lat="45.32268" lon="1.45371">
        <ele>395</ele>
        <time>2017-02-26T09:53:04Z</time>
      </trkpt>
      <trkpt lat="45.3228" lon="1.45343">
        <ele>395</ele>
        <time>2017-02-26T09:53:14Z</time>
      </trkpt>
      <trkpt lat="45.32286" lon="1.45326">
        <ele>396</ele>
        <time>2017-02-26T09:53:20Z</time>
      </trkpt>
      <trkpt lat="45.3229" lon="1.45315">
        <ele>396</ele>
        <time>2017-02-26T09:53:24Z</time>
      </trkpt>
      <trkpt lat="45.32295" lon="1.453">
        <ele>397</ele>
        <time>2017-02-26T09:53:29Z</time>
      </trkpt>
      <trkpt lat="45.32298" lon="1.45291">
        <ele>397</ele>
        <time>2017-02-26T09:53:32Z</time>
      </trkpt>
      <trkpt lat="45.32303" lon="1.45282">
        <ele>398</ele>
        <time>2017-02-26T09:53:36Z</time>
      </trkpt>
      <trkpt lat="45.32307" lon="1.45273">
        <ele>399</ele>
        <time>2017-02-26T09:53:39Z</time>
      </trkpt>
      <trkpt lat="45.32311" lon="1.45268">
        <ele>399</ele>
        <time>2017-02-26T09:53:41Z</time>
      </trkpt>
      <trkpt lat="45.32319" lon="1.4526">
        <ele>400</ele>
        <time>2017-02-26T09:53:46Z</time>
      </trkpt>
      <trkpt lat="45.32318" lon="1.45251">
        <ele>400</ele>
        <time>2017-02-26T09:58:36Z</time>
      </trkpt>
      <trkpt lat="45.32322" lon="1.45248">
        <ele>400</ele>
        <time>2017-02-26T09:58:39Z</time>
      </trkpt>
      <trkpt lat="45.32327" lon="1.45249">
        <ele>400</ele>
        <time>2017-02-26T09:58:41Z</time>
      </trkpt>
      <trkpt lat="45.32332" lon="1.45253">
        <ele>400</ele>
        <time>2017-02-26T09:58:43Z</time>
      </trkpt>
      <trkpt lat="45.32342" lon="1.4526">
        <ele>399</ele>
        <time>2017-02-26T09:58:46Z</time>
      </trkpt>
      <trkpt lat="45.3235" lon="1.45267">
        <ele>398</ele>
        <time>2017-02-26T09:58:48Z</time>
      </trkpt>
      <trkpt lat="45.32368" lon="1.45282">
        <ele>397</ele>
        <time>2017-02-26T09:58:52Z</time>
      </trkpt>
      <trkpt lat="45.32378" lon="1.45291">
        <ele>397</ele>
        <time>2017-02-26T09:58:54Z</time>
      </trkpt>
      <trkpt lat="45.32394" lon="1.45305">
        <ele>396</ele>
        <time>2017-02-26T09:58:57Z</time>
      </trkpt>
      <trkpt lat="45.324" lon="1.4531">
        <ele>396</ele>
        <time>2017-02-26T09:58:58Z</time>
      </trkpt>
      <trkpt lat="45.32447" lon="1.4534">
        <ele>394</ele>
        <time>2017-02-26T09:59:05Z</time>
      </trkpt>
      <trkpt lat="45.32469" lon="1.45354">
        <ele>393</ele>
        <time>2017-02-26T09:59:08Z</time>
      </trkpt>
      <trkpt lat="45.32507" lon="1.45378">
        <ele>392</ele>
        <time>2017-02-26T09:59:13Z</time>
      </trkpt>
      <trkpt lat="45.32515" lon="1.45382">
        <ele>392</ele>
        <time>2017-02-26T09:59:14Z</time>
      </trkpt>
      <trkpt lat="45.32539" lon="1.45397">
        <ele>391</ele>
        <time>2017-02-26T09:59:17Z</time>
      </trkpt>
      <trkpt lat="45.32561" lon="1.4541">
        <ele>390</ele>
        <time>2017-02-26T09:59:20Z</time>
      </trkpt>
      <trkpt lat="45.32568" lon="1.45414">
        <ele>390</ele>
        <time>2017-02-26T09:59:21Z</time>
      </trkpt>
      <trkpt lat="45.32604" lon="1.45437">
        <ele>389</ele>
        <time>2017-02-26T09:59:26Z</time>
      </trkpt>
      <trkpt lat="45.32627" lon="1.4545">
        <ele>387</ele>
        <time>2017-02-26T09:59:29Z</time>
      </trkpt>
      <trkpt lat="45.32659" lon="1.45463">
        <ele>386</ele>
        <time>2017-02-26T09:59:33Z</time>
      </trkpt>
      <trkpt lat="45.32706" lon="1.45481">
        <ele>385</ele>
        <time>2017-02-26T09:59:39Z</time>
      </trkpt>
      <trkpt lat="45.3273" lon="1.45491">
        <ele>385</ele>
        <time>2017-02-26T09:59:42Z</time>
      </trkpt>
      <trkpt lat="45.32776" lon="1.45511">
        <ele>384</ele>
        <time>2017-02-26T09:59:48Z</time>
      </trkpt>
      <trkpt lat="45.3279" lon="1.4552">
        <ele>384</ele>
        <time>2017-02-26T09:59:50Z</time>
      </trkpt>
      <trkpt lat="45.32833" lon="1.45557">
        <ele>385</ele>
        <time>2017-02-26T09:59:57Z</time>
      </trkpt>
      <trkpt lat="45.32842" lon="1.45567">
        <ele>385</ele>
        <time>2017-02-26T09:59:59Z</time>
      </trkpt>
      <trkpt lat="45.32848" lon="1.45576">
        <ele>386</ele>
        <time>2017-02-26T10:00:01Z</time>
      </trkpt>
      <trkpt lat="45.32854" lon="1.45583">
        <ele>387</ele>
        <time>2017-02-26T10:00:03Z</time>
      </trkpt>
      <trkpt lat="45.32863" lon="1.45593">
        <ele>388</ele>
        <time>2017-02-26T10:00:06Z</time>
      </trkpt>
      <trkpt lat="45.32866" lon="1.45594">
        <ele>388</ele>
        <time>2017-02-26T10:00:07Z</time>
      </trkpt>
      <trkpt lat="45.3288" lon="1.45599">
        <ele>389</ele>
        <time>2017-02-26T10:00:11Z</time>
      </trkpt>
      <trkpt lat="45.3289" lon="1.45602">
        <ele>390</ele>
        <time>2017-02-26T10:00:14Z</time>
      </trkpt>
      <trkpt lat="45.329" lon="1.45605">
        <ele>390</ele>
        <time>2017-02-26T10:00:17Z</time>
      </trkpt>
      <trkpt lat="45.32911" lon="1.45606">
        <ele>391</ele>
        <time>2017-02-26T10:00:21Z</time>
      </trkpt>
      <trkpt lat="45.3292" lon="1.45607">
        <ele>391</ele>
        <time>2017-02-26T10:00:24Z</time>
      </trkpt>
      <trkpt lat="45.32934" lon="1.45611">
        <ele>392</ele>
        <time>2017-02-26T10:00:29Z</time>
      </trkpt>
      <trkpt lat="45.32939" lon="1.45613">
        <ele>392</ele>
        <time>2017-02-26T10:00:30Z</time>
      </trkpt>
      <trkpt lat="45.32956" lon="1.45621">
        <ele>392</ele>
        <time>2017-02-26T10:00:33Z</time>
      </trkpt>
      <trkpt lat="45.32962" lon="1.45623">
        <ele>392</ele>
        <time>2017-02-26T10:00:34Z</time>
      </trkpt>
      <trkpt lat="45.32978" lon="1.45627">
        <ele>392</ele>
        <time>2017-02-26T10:00:37Z</time>
      </trkpt>
      <trkpt lat="45.32999" lon="1.45625">
        <ele>392</ele>
        <time>2017-02-26T10:00:42Z</time>
      </trkpt>
      <trkpt lat="45.33003" lon="1.45623">
        <ele>392</ele>
        <time>2017-02-26T10:00:43Z</time>
      </trkpt>
      <trkpt lat="45.33012" lon="1.45612">
        <ele>392</ele>
        <time>2017-02-26T10:00:46Z</time>
      </trkpt>
      <trkpt lat="45.33018" lon="1.45604">
        <ele>391</ele>
        <time>2017-02-26T10:00:48Z</time>
      </trkpt>
      <trkpt lat="45.33031" lon="1.45588">
        <ele>390</ele>
        <time>2017-02-26T10:00:51Z</time>
      </trkpt>
      <trkpt lat="45.33041" lon="1.45576">
        <ele>389</ele>
        <time>2017-02-26T10:00:53Z</time>
      </trkpt>
      <trkpt lat="45.33055" lon="1.45557">
        <ele>388</ele>
        <time>2017-02-26T10:00:56Z</time>
      </trkpt>
      <trkpt lat="45.3307" lon="1.45535">
        <ele>387</ele>
        <time>2017-02-26T10:01:00Z</time>
      </trkpt>
      <trkpt lat="45.33083" lon="1.45518">
        <ele>386</ele>
        <time>2017-02-26T10:01:04Z</time>
      </trkpt>
      <trkpt lat="45.33093" lon="1.45505">
        <ele>385</ele>
        <time>2017-02-26T10:01:07Z</time>
      </trkpt>
      <trkpt lat="45.33096" lon="1.455">
        <ele>385</ele>
        <time>2017-02-26T10:01:08Z</time>
      </trkpt>
      <trkpt lat="45.33109" lon="1.45483">
        <ele>384</ele>
        <time>2017-02-26T10:01:11Z</time>
      </trkpt>
      <trkpt lat="45.33122" lon="1.45466">
        <ele>383</ele>
        <time>2017-02-26T10:01:14Z</time>
      </trkpt>
      <trkpt lat="45.33135" lon="1.45448">
        <ele>382</ele>
        <time>2017-02-26T10:01:17Z</time>
      </trkpt>
      <trkpt lat="45.33151" lon="1.45425">
        <ele>381</ele>
        <time>2017-02-26T10:01:21Z</time>
      </trkpt>
      <trkpt lat="45.3316" lon="1.45414">
        <ele>380</ele>
        <time>2017-02-26T10:01:24Z</time>
      </trkpt>
      <trkpt lat="45.33162" lon="1.45411">
        <ele>379</ele>
        <time>2017-02-26T10:01:26Z</time>
      </trkpt>
      <trkpt lat="45.33162" lon="1.45407">
        <ele>379</ele>
        <time>2017-02-26T10:01:28Z</time>
      </trkpt>
      <trkpt lat="45.33162" lon="1.45399">
        <ele>378</ele>
        <time>2017-02-26T10:01:30Z</time>
      </trkpt>
      <trkpt lat="45.33159" lon="1.45393">
        <ele>377</ele>
        <time>2017-02-26T10:01:32Z</time>
      </trkpt>
      <trkpt lat="45.33155" lon="1.4538">
        <ele>376</ele>
        <time>2017-02-26T10:01:35Z</time>
      </trkpt>
      <trkpt lat="45.33154" lon="1.45375">
        <ele>376</ele>
        <time>2017-02-26T10:01:36Z</time>
      </trkpt>
      <trkpt lat="45.33146" lon="1.45348">
        <ele>375</ele>
        <time>2017-02-26T10:01:41Z</time>
      </trkpt>
      <trkpt lat="45.33144" lon="1.45342">
        <ele>374</ele>
        <time>2017-02-26T10:01:42Z</time>
      </trkpt>
      <trkpt lat="45.33142" lon="1.45336">
        <ele>374</ele>
        <time>2017-02-26T10:01:43Z</time>
      </trkpt>
      <trkpt lat="45.33137" lon="1.45311">
        <ele>373</ele>
        <time>2017-02-26T10:01:48Z</time>
      </trkpt>
      <trkpt lat="45.3314" lon="1.45282">
        <ele>373</ele>
        <time>2017-02-26T10:01:54Z</time>
      </trkpt>
      <trkpt lat="45.33141" lon="1.45276">
        <ele>373</ele>
        <time>2017-02-26T10:01:55Z</time>
      </trkpt>
      <trkpt lat="45.33143" lon="1.45247">
        <ele>373</ele>
        <time>2017-02-26T10:02:01Z</time>
      </trkpt>
      <trkpt lat="45.33146" lon="1.45216">
        <ele>373</ele>
        <time>2017-02-26T10:02:09Z</time>
      </trkpt>
      <trkpt lat="45.33149" lon="1.45193">
        <ele>374</ele>
        <time>2017-02-26T10:02:15Z</time>
      </trkpt>
      <trkpt lat="45.3315" lon="1.45189">
        <ele>374</ele>
        <time>2017-02-26T10:02:16Z</time>
      </trkpt>
      <trkpt lat="45.33153" lon="1.45171">
        <ele>374</ele>
        <time>2017-02-26T10:02:22Z</time>
      </trkpt>
      <trkpt lat="45.33157" lon="1.4515">
        <ele>373</ele>
        <time>2017-02-26T10:02:28Z</time>
      </trkpt>
      <trkpt lat="45.33159" lon="1.45137">
        <ele>373</ele>
        <time>2017-02-26T10:02:32Z</time>
      </trkpt>
      <trkpt lat="45.33159" lon="1.45131">
        <ele>373</ele>
        <time>2017-02-26T10:02:34Z</time>
      </trkpt>
      <trkpt lat="45.33164" lon="1.45104">
        <ele>373</ele>
        <time>2017-02-26T10:02:41Z</time>
      </trkpt>
      <trkpt lat="45.33165" lon="1.45078">
        <ele>373</ele>
        <time>2017-02-26T10:02:46Z</time>
      </trkpt>
      <trkpt lat="45.33167" lon="1.45053">
        <ele>373</ele>
        <time>2017-02-26T10:02:51Z</time>
      </trkpt>
      <trkpt lat="45.33172" lon="1.45046">
        <ele>372</ele>
        <time>2017-02-26T10:02:54Z</time>
      </trkpt>
      <trkpt lat="45.33174" lon="1.45045">
        <ele>371</ele>
        <time>2017-02-26T10:02:55Z</time>
      </trkpt>
      <trkpt lat="45.33175" lon="1.45039">
        <ele>371</ele>
        <time>2017-02-26T10:02:57Z</time>
      </trkpt>
      <trkpt lat="45.33173" lon="1.45035">
        <ele>370</ele>
        <time>2017-02-26T10:02:58Z</time>
      </trkpt>
      <trkpt lat="45.3317" lon="1.4503">
        <ele>369</ele>
        <time>2017-02-26T10:02:59Z</time>
      </trkpt>
      <trkpt lat="45.33163" lon="1.4502">
        <ele>368</ele>
        <time>2017-02-26T10:03:01Z</time>
      </trkpt>
      <trkpt lat="45.33159" lon="1.45014">
        <ele>367</ele>
        <time>2017-02-26T10:03:02Z</time>
      </trkpt>
      <trkpt lat="45.33156" lon="1.45009">
        <ele>366</ele>
        <time>2017-02-26T10:03:03Z</time>
      </trkpt>
      <trkpt lat="45.33151" lon="1.45001">
        <ele>365</ele>
        <time>2017-02-26T10:03:05Z</time>
      </trkpt>
      <trkpt lat="45.33149" lon="1.44998">
        <ele>365</ele>
        <time>2017-02-26T10:03:06Z</time>
      </trkpt>
      <trkpt lat="45.33143" lon="1.44991">
        <ele>364</ele>
        <time>2017-02-26T10:03:08Z</time>
      </trkpt>
      <trkpt lat="45.3314" lon="1.44986">
        <ele>363</ele>
        <time>2017-02-26T10:03:09Z</time>
      </trkpt>
      <trkpt lat="45.33137" lon="1.44982">
        <ele>363</ele>
        <time>2017-02-26T10:03:10Z</time>
      </trkpt>
      <trkpt lat="45.33136" lon="1.44975">
        <ele>362</ele>
        <time>2017-02-26T10:03:12Z</time>
      </trkpt>
      <trkpt lat="45.33136" lon="1.44972">
        <ele>361</ele>
        <time>2017-02-26T10:03:13Z</time>
      </trkpt>
      <trkpt lat="45.33137" lon="1.44963">
        <ele>361</ele>
        <time>2017-02-26T10:03:15Z</time>
      </trkpt>
      <trkpt lat="45.33137" lon="1.44957">
        <ele>360</ele>
        <time>2017-02-26T10:03:16Z</time>
      </trkpt>
      <trkpt lat="45.33137" lon="1.44946">
        <ele>359</ele>
        <time>2017-02-26T10:03:18Z</time>
      </trkpt>
      <trkpt lat="45.33139" lon="1.4494">
        <ele>358</ele>
        <time>2017-02-26T10:03:19Z</time>
      </trkpt>
      <trkpt lat="45.33143" lon="1.44929">
        <ele>358</ele>
        <time>2017-02-26T10:03:21Z</time>
      </trkpt>
      <trkpt lat="45.33147" lon="1.4491">
        <ele>356</ele>
        <time>2017-02-26T10:03:24Z</time>
      </trkpt>
      <trkpt lat="45.33149" lon="1.44905">
        <ele>356</ele>
        <time>2017-02-26T10:03:25Z</time>
      </trkpt>
      <trkpt lat="45.33157" lon="1.44895">
        <ele>355</ele>
        <time>2017-02-26T10:03:28Z</time>
      </trkpt>
      <trkpt lat="45.3316" lon="1.44892">
        <ele>355</ele>
        <time>2017-02-26T10:03:29Z</time>
      </trkpt>
      <trkpt lat="45.33165" lon="1.44885">
        <ele>354</ele>
        <time>2017-02-26T10:03:31Z</time>
      </trkpt>
      <trkpt lat="45.33167" lon="1.4488">
        <ele>353</ele>
        <time>2017-02-26T10:03:32Z</time>
      </trkpt>
      <trkpt lat="45.33169" lon="1.44875">
        <ele>352</ele>
        <time>2017-02-26T10:03:33Z</time>
      </trkpt>
      <trkpt lat="45.33171" lon="1.4486">
        <ele>351</ele>
        <time>2017-02-26T10:03:36Z</time>
      </trkpt>
      <trkpt lat="45.3317" lon="1.44853">
        <ele>350</ele>
        <time>2017-02-26T10:03:37Z</time>
      </trkpt>
      <trkpt lat="45.33169" lon="1.44845">
        <ele>350</ele>
        <time>2017-02-26T10:03:38Z</time>
      </trkpt>
      <trkpt lat="45.33167" lon="1.44832">
        <ele>349</ele>
        <time>2017-02-26T10:03:40Z</time>
      </trkpt>
      <trkpt lat="45.33164" lon="1.44823">
        <ele>347</ele>
        <time>2017-02-26T10:03:42Z</time>
      </trkpt>
      <trkpt lat="45.33155" lon="1.44818">
        <ele>346</ele>
        <time>2017-02-26T10:03:44Z</time>
      </trkpt>
      <trkpt lat="45.3315" lon="1.44816">
        <ele>344</ele>
        <time>2017-02-26T10:03:45Z</time>
      </trkpt>
      <trkpt lat="45.33143" lon="1.44808">
        <ele>343</ele>
        <time>2017-02-26T10:03:47Z</time>
      </trkpt>
      <trkpt lat="45.33141" lon="1.44803">
        <ele>342</ele>
        <time>2017-02-26T10:03:48Z</time>
      </trkpt>
      <trkpt lat="45.33139" lon="1.44797">
        <ele>341</ele>
        <time>2017-02-26T10:03:49Z</time>
      </trkpt>
      <trkpt lat="45.33139" lon="1.44783">
        <ele>341</ele>
        <time>2017-02-26T10:03:51Z</time>
      </trkpt>
      <trkpt lat="45.33142" lon="1.44761">
        <ele>340</ele>
        <time>2017-02-26T10:03:54Z</time>
      </trkpt>
      <trkpt lat="45.33142" lon="1.44752">
        <ele>340</ele>
        <time>2017-02-26T10:03:56Z</time>
      </trkpt>
      <trkpt lat="45.33142" lon="1.44749">
        <ele>340</ele>
        <time>2017-02-26T10:03:57Z</time>
      </trkpt>
      <trkpt lat="45.3314" lon="1.44736">
        <ele>339</ele>
        <time>2017-02-26T10:04:05Z</time>
      </trkpt>
      <trkpt lat="45.33146" lon="1.44704">
        <ele>339</ele>
        <time>2017-02-26T10:04:10Z</time>
      </trkpt>
      <trkpt lat="45.33148" lon="1.44687">
        <ele>339</ele>
        <time>2017-02-26T10:04:12Z</time>
      </trkpt>
      <trkpt lat="45.3315" lon="1.44667">
        <ele>339</ele>
        <time>2017-02-26T10:04:14Z</time>
      </trkpt>
      <trkpt lat="45.33152" lon="1.44649">
        <ele>339</ele>
        <time>2017-02-26T10:04:16Z</time>
      </trkpt>
      <trkpt lat="45.33155" lon="1.4463">
        <ele>339</ele>
        <time>2017-02-26T10:04:18Z</time>
      </trkpt>
      <trkpt lat="45.33155" lon="1.44621">
        <ele>339</ele>
        <time>2017-02-26T10:04:19Z</time>
      </trkpt>
      <trkpt lat="45.33151" lon="1.44597">
        <ele>339</ele>
        <time>2017-02-26T10:04:22Z</time>
      </trkpt>
      <trkpt lat="45.33149" lon="1.44589">
        <ele>339</ele>
        <time>2017-02-26T10:04:23Z</time>
      </trkpt>
      <trkpt lat="45.3314" lon="1.44563">
        <ele>338</ele>
        <time>2017-02-26T10:04:26Z</time>
      </trkpt>
      <trkpt lat="45.33132" lon="1.44548">
        <ele>338</ele>
        <time>2017-02-26T10:04:28Z</time>
      </trkpt>
      <trkpt lat="45.33127" lon="1.4454">
        <ele>337</ele>
        <time>2017-02-26T10:04:29Z</time>
      </trkpt>
      <trkpt lat="45.33124" lon="1.44533">
        <ele>337</ele>
        <time>2017-02-26T10:04:30Z</time>
      </trkpt>
      <trkpt lat="45.33117" lon="1.44499">
        <ele>337</ele>
        <time>2017-02-26T10:04:34Z</time>
      </trkpt>
      <trkpt lat="45.33114" lon="1.44478">
        <ele>337</ele>
        <time>2017-02-26T10:04:36Z</time>
      </trkpt>
      <trkpt lat="45.33111" lon="1.44457">
        <ele>337</ele>
        <time>2017-02-26T10:04:38Z</time>
      </trkpt>
      <trkpt lat="45.33109" lon="1.44446">
        <ele>336</ele>
        <time>2017-02-26T10:04:39Z</time>
      </trkpt>
      <trkpt lat="45.33105" lon="1.44415">
        <ele>335</ele>
        <time>2017-02-26T10:04:42Z</time>
      </trkpt>
      <trkpt lat="45.33104" lon="1.44404">
        <ele>335</ele>
        <time>2017-02-26T10:04:43Z</time>
      </trkpt>
      <trkpt lat="45.33103" lon="1.44392">
        <ele>335</ele>
        <time>2017-02-26T10:04:44Z</time>
      </trkpt>
      <trkpt lat="45.33107" lon="1.44335">
        <ele>336</ele>
        <time>2017-02-26T10:04:49Z</time>
      </trkpt>
      <trkpt lat="45.33111" lon="1.44308">
        <ele>336</ele>
        <time>2017-02-26T10:04:52Z</time>
      </trkpt>
      <trkpt lat="45.33104" lon="1.44291">
        <ele>335</ele>
        <time>2017-02-26T10:09:21Z</time>
      </trkpt>
      <trkpt lat="45.33103" lon="1.44293">
        <ele>333</ele>
        <time>2017-02-26T10:09:22Z</time>
      </trkpt>
      <trkpt lat="45.331" lon="1.44296">
        <ele>331</ele>
        <time>2017-02-26T10:09:23Z</time>
      </trkpt>
      <trkpt lat="45.33098" lon="1.44298">
        <ele>330</ele>
        <time>2017-02-26T10:09:24Z</time>
      </trkpt>
      <trkpt lat="45.33094" lon="1.443">
        <ele>328</ele>
        <time>2017-02-26T10:09:25Z</time>
      </trkpt>
      <trkpt lat="45.33091" lon="1.44302">
        <ele>327</ele>
        <time>2017-02-26T10:09:26Z</time>
      </trkpt>
      <trkpt lat="45.33087" lon="1.44304">
        <ele>326</ele>
        <time>2017-02-26T10:09:27Z</time>
      </trkpt>
      <trkpt lat="45.33083" lon="1.44305">
        <ele>325</ele>
        <time>2017-02-26T10:09:28Z</time>
      </trkpt>
      <trkpt lat="45.33079" lon="1.44306">
        <ele>324</ele>
        <time>2017-02-26T10:09:29Z</time>
      </trkpt>
      <trkpt lat="45.3307" lon="1.44304">
        <ele>323</ele>
        <time>2017-02-26T10:09:31Z</time>
      </trkpt>
      <trkpt lat="45.33065" lon="1.44301">
        <ele>322</ele>
        <time>2017-02-26T10:09:32Z</time>
      </trkpt>
      <trkpt lat="45.3306" lon="1.44298">
        <ele>321</ele>
        <time>2017-02-26T10:09:33Z</time>
      </trkpt>
      <trkpt lat="45.33055" lon="1.44294">
        <ele>321</ele>
        <time>2017-02-26T10:09:34Z</time>
      </trkpt>
      <trkpt lat="45.33051" lon="1.4429">
        <ele>320</ele>
        <time>2017-02-26T10:09:35Z</time>
      </trkpt>
      <trkpt lat="45.33041" lon="1.44281">
        <ele>320</ele>
        <time>2017-02-26T10:09:37Z</time>
      </trkpt>
      <trkpt lat="45.33027" lon="1.44266">
        <ele>319</ele>
        <time>2017-02-26T10:09:40Z</time>
      </trkpt>
      <trkpt lat="45.33013" lon="1.44254">
        <ele>317</ele>
        <time>2017-02-26T10:09:43Z</time>
      </trkpt>
      <trkpt lat="45.33004" lon="1.44245">
        <ele>316</ele>
        <time>2017-02-26T10:09:45Z</time>
      </trkpt>
      <trkpt lat="45.33" lon="1.44242">
        <ele>315</ele>
        <time>2017-02-26T10:09:46Z</time>
      </trkpt>
      <trkpt lat="45.32986" lon="1.44237">
        <ele>315</ele>
        <time>2017-02-26T10:09:49Z</time>
      </trkpt>
      <trkpt lat="45.32978" lon="1.44239">
        <ele>314</ele>
        <time>2017-02-26T10:09:51Z</time>
      </trkpt>
      <trkpt lat="45.3297" lon="1.44241">
        <ele>314</ele>
        <time>2017-02-26T10:09:53Z</time>
      </trkpt>
      <trkpt lat="45.32963" lon="1.44243">
        <ele>313</ele>
        <time>2017-02-26T10:09:55Z</time>
      </trkpt>
      <trkpt lat="45.32937" lon="1.44247">
        <ele>314</ele>
        <time>2017-02-26T10:10:03Z</time>
      </trkpt>
      <trkpt lat="45.32934" lon="1.44247">
        <ele>315</ele>
        <time>2017-02-26T10:10:04Z</time>
      </trkpt>
      <trkpt lat="45.32925" lon="1.44246">
        <ele>316</ele>
        <time>2017-02-26T10:10:07Z</time>
      </trkpt>
      <trkpt lat="45.32916" lon="1.44244">
        <ele>317</ele>
        <time>2017-02-26T10:10:10Z</time>
      </trkpt>
      <trkpt lat="45.32913" lon="1.44243">
        <ele>318</ele>
        <time>2017-02-26T10:10:11Z</time>
      </trkpt>
      <trkpt lat="45.32904" lon="1.44239">
        <ele>319</ele>
        <time>2017-02-26T10:10:14Z</time>
      </trkpt>
      <trkpt lat="45.32899" lon="1.44238">
        <ele>319</ele>
        <time>2017-02-26T10:10:16Z</time>
      </trkpt>
      <trkpt lat="45.32896" lon="1.44237">
        <ele>320</ele>
        <time>2017-02-26T10:10:17Z</time>
      </trkpt>
      <trkpt lat="45.32888" lon="1.44237">
        <ele>321</ele>
        <time>2017-02-26T10:10:20Z</time>
      </trkpt>
      <trkpt lat="45.32886" lon="1.44237">
        <ele>322</ele>
        <time>2017-02-26T10:10:21Z</time>
      </trkpt>
      <trkpt lat="45.32884" lon="1.44237">
        <ele>322</ele>
        <time>2017-02-26T10:10:22Z</time>
      </trkpt>
      <trkpt lat="45.3288" lon="1.44238">
        <ele>324</ele>
        <time>2017-02-26T10:10:24Z</time>
      </trkpt>
      <trkpt lat="45.32875" lon="1.44238">
        <ele>325</ele>
        <time>2017-02-26T10:10:26Z</time>
      </trkpt>
      <trkpt lat="45.32873" lon="1.44239">
        <ele>326</ele>
        <time>2017-02-26T10:10:27Z</time>
      </trkpt>
      <trkpt lat="45.32871" lon="1.44239">
        <ele>326</ele>
        <time>2017-02-26T10:10:28Z</time>
      </trkpt>
      <trkpt lat="45.32867" lon="1.44241">
        <ele>328</ele>
        <time>2017-02-26T10:10:30Z</time>
      </trkpt>
      <trkpt lat="45.32863" lon="1.44243">
        <ele>330</ele>
        <time>2017-02-26T10:10:32Z</time>
      </trkpt>
      <trkpt lat="45.3286" lon="1.44244">
        <ele>332</ele>
        <time>2017-02-26T10:10:33Z</time>
      </trkpt>
      <trkpt lat="45.32855" lon="1.44245">
        <ele>333</ele>
        <time>2017-02-26T10:10:35Z</time>
      </trkpt>
      <trkpt lat="45.3285" lon="1.44245">
        <ele>334</ele>
        <time>2017-02-26T10:10:37Z</time>
      </trkpt>
      <trkpt lat="45.32845" lon="1.44247">
        <ele>336</ele>
        <time>2017-02-26T10:10:39Z</time>
      </trkpt>
      <trkpt lat="45.32841" lon="1.44247">
        <ele>337</ele>
        <time>2017-02-26T10:10:41Z</time>
      </trkpt>
      <trkpt lat="45.32838" lon="1.44247">
        <ele>338</ele>
        <time>2017-02-26T10:10:42Z</time>
      </trkpt>
      <trkpt lat="45.32835" lon="1.44247">
        <ele>338</ele>
        <time>2017-02-26T10:10:43Z</time>
      </trkpt>
      <trkpt lat="45.32829" lon="1.44247">
        <ele>340</ele>
        <time>2017-02-26T10:10:45Z</time>
      </trkpt>
      <trkpt lat="45.32822" lon="1.4425">
        <ele>341</ele>
        <time>2017-02-26T10:10:47Z</time>
      </trkpt>
      <trkpt lat="45.32814" lon="1.44252">
        <ele>341</ele>
        <time>2017-02-26T10:10:49Z</time>
      </trkpt>
      <trkpt lat="45.328" lon="1.44255">
        <ele>340</ele>
        <time>2017-02-26T10:10:53Z</time>
      </trkpt>
      <trkpt lat="45.32797" lon="1.44257">
        <ele>339</ele>
        <time>2017-02-26T10:10:54Z</time>
      </trkpt>
      <trkpt lat="45.32783" lon="1.4426">
        <ele>338</ele>
        <time>2017-02-26T10:10:58Z</time>
      </trkpt>
      <trkpt lat="45.32773" lon="1.4426">
        <ele>338</ele>
        <time>2017-02-26T10:11:01Z</time>
      </trkpt>
      <trkpt lat="45.32769" lon="1.44259">
        <ele>337</ele>
        <time>2017-02-26T10:11:02Z</time>
      </trkpt>
      <trkpt lat="45.3276" lon="1.44257">
        <ele>336</ele>
        <time>2017-02-26T10:11:05Z</time>
      </trkpt>
      <trkpt lat="45.32752" lon="1.44256">
        <ele>335</ele>
        <time>2017-02-26T10:11:07Z</time>
      </trkpt>
      <trkpt lat="45.32749" lon="1.44256">
        <ele>335</ele>
        <time>2017-02-26T10:11:08Z</time>
      </trkpt>
      <trkpt lat="45.32738" lon="1.44254">
        <ele>334</ele>
        <time>2017-02-26T10:11:11Z</time>
      </trkpt>
      <trkpt lat="45.32734" lon="1.44253">
        <ele>333</ele>
        <time>2017-02-26T10:11:12Z</time>
      </trkpt>
      <trkpt lat="45.32729" lon="1.44253">
        <ele>332</ele>
        <time>2017-02-26T10:11:13Z</time>
      </trkpt>
      <trkpt lat="45.32716" lon="1.44253">
        <ele>331</ele>
        <time>2017-02-26T10:11:17Z</time>
      </trkpt>
      <trkpt lat="45.32711" lon="1.44254">
        <ele>331</ele>
        <time>2017-02-26T10:11:19Z</time>
      </trkpt>
      <trkpt lat="45.32703" lon="1.44254">
        <ele>331</ele>
        <time>2017-02-26T10:11:23Z</time>
      </trkpt>
      <trkpt lat="45.32692" lon="1.44249">
        <ele>330</ele>
        <time>2017-02-26T10:11:28Z</time>
      </trkpt>
      <trkpt lat="45.32687" lon="1.44246">
        <ele>330</ele>
        <time>2017-02-26T10:11:30Z</time>
      </trkpt>
      <trkpt lat="45.32682" lon="1.44241">
        <ele>329</ele>
        <time>2017-02-26T10:11:33Z</time>
      </trkpt>
      <trkpt lat="45.32682" lon="1.44238">
        <ele>329</ele>
        <time>2017-02-26T10:11:34Z</time>
      </trkpt>
      <trkpt lat="45.32682" lon="1.44235">
        <ele>329</ele>
        <time>2017-02-26T10:11:35Z</time>
      </trkpt>
      <trkpt lat="45.32685" lon="1.44221">
        <ele>329</ele>
        <time>2017-02-26T10:11:41Z</time>
      </trkpt>
      <trkpt lat="45.32687" lon="1.44215">
        <ele>328</ele>
        <time>2017-02-26T10:11:44Z</time>
      </trkpt>
      <trkpt lat="45.32689" lon="1.44208">
        <ele>328</ele>
        <time>2017-02-26T10:11:47Z</time>
      </trkpt>
      <trkpt lat="45.3269" lon="1.44197">
        <ele>327</ele>
        <time>2017-02-26T10:11:50Z</time>
      </trkpt>
      <trkpt lat="45.32692" lon="1.44189">
        <ele>327</ele>
        <time>2017-02-26T10:11:52Z</time>
      </trkpt>
      <trkpt lat="45.32691" lon="1.44181">
        <ele>327</ele>
        <time>2017-02-26T10:11:55Z</time>
      </trkpt>
      <trkpt lat="45.32689" lon="1.44177">
        <ele>327</ele>
        <time>2017-02-26T10:11:57Z</time>
      </trkpt>
      <trkpt lat="45.32681" lon="1.44162">
        <ele>327</ele>
        <time>2017-02-26T10:12:04Z</time>
      </trkpt>
      <trkpt lat="45.32673" lon="1.44152">
        <ele>327</ele>
        <time>2017-02-26T10:12:08Z</time>
      </trkpt>
      <trkpt lat="45.32671" lon="1.4415">
        <ele>326</ele>
        <time>2017-02-26T10:12:09Z</time>
      </trkpt>
      <trkpt lat="45.32655" lon="1.44143">
        <ele>327</ele>
        <time>2017-02-26T10:12:16Z</time>
      </trkpt>
      <trkpt lat="45.32641" lon="1.44144">
        <ele>329</ele>
        <time>2017-02-26T10:12:23Z</time>
      </trkpt>
      <trkpt lat="45.32639" lon="1.44144">
        <ele>329</ele>
        <time>2017-02-26T10:12:24Z</time>
      </trkpt>
      <trkpt lat="45.32634" lon="1.44146">
        <ele>330</ele>
        <time>2017-02-26T10:12:26Z</time>
      </trkpt>
      <trkpt lat="45.32627" lon="1.44149">
        <ele>331</ele>
        <time>2017-02-26T10:12:29Z</time>
      </trkpt>
      <trkpt lat="45.32623" lon="1.44151">
        <ele>332</ele>
        <time>2017-02-26T10:12:31Z</time>
      </trkpt>
      <trkpt lat="45.32621" lon="1.44152">
        <ele>333</ele>
        <time>2017-02-26T10:12:32Z</time>
      </trkpt>
      <trkpt lat="45.32615" lon="1.44156">
        <ele>334</ele>
        <time>2017-02-26T10:12:35Z</time>
      </trkpt>
      <trkpt lat="45.32611" lon="1.44161">
        <ele>335</ele>
        <time>2017-02-26T10:12:38Z</time>
      </trkpt>
      <trkpt lat="45.32609" lon="1.44162">
        <ele>336</ele>
        <time>2017-02-26T10:12:39Z</time>
      </trkpt>
      <trkpt lat="45.32608" lon="1.44165">
        <ele>337</ele>
        <time>2017-02-26T10:12:40Z</time>
      </trkpt>
      <trkpt lat="45.32606" lon="1.44169">
        <ele>338</ele>
        <time>2017-02-26T10:12:42Z</time>
      </trkpt>
      <trkpt lat="45.32606" lon="1.44173">
        <ele>339</ele>
        <time>2017-02-26T10:12:44Z</time>
      </trkpt>
      <trkpt lat="45.32605" lon="1.44179">
        <ele>340</ele>
        <time>2017-02-26T10:12:46Z</time>
      </trkpt>
      <trkpt lat="45.32605" lon="1.44182">
        <ele>340</ele>
        <time>2017-02-26T10:12:47Z</time>
      </trkpt>
      <trkpt lat="45.32604" lon="1.44185">
        <ele>341</ele>
        <time>2017-02-26T10:12:48Z</time>
      </trkpt>
      <trkpt lat="45.32604" lon="1.44191">
        <ele>341</ele>
        <time>2017-02-26T10:12:50Z</time>
      </trkpt>
      <trkpt lat="45.32604" lon="1.44204">
        <ele>343</ele>
        <time>2017-02-26T10:12:54Z</time>
      </trkpt>
      <trkpt lat="45.32602" lon="1.44208">
        <ele>344</ele>
        <time>2017-02-26T10:12:56Z</time>
      </trkpt>
      <trkpt lat="45.32556" lon="1.44214">
        <ele>373</ele>
        <time>2017-02-26T10:13:28Z</time>
      </trkpt>
      <trkpt lat="45.32555" lon="1.44212">
        <ele>373</ele>
        <time>2017-02-26T10:13:29Z</time>
      </trkpt>
      <trkpt lat="45.32554" lon="1.44212">
        <ele>374</ele>
        <time>2017-02-26T10:13:30Z</time>
      </trkpt>
      <trkpt lat="45.32549" lon="1.4421">
        <ele>376</ele>
        <time>2017-02-26T10:13:33Z</time>
      </trkpt>
      <trkpt lat="45.32531" lon="1.44222">
        <ele>381</ele>
        <time>2017-02-26T10:13:46Z</time>
      </trkpt>
      <trkpt lat="45.32529" lon="1.44223">
        <ele>382</ele>
        <time>2017-02-26T10:13:47Z</time>
      </trkpt>
      <trkpt lat="45.32528" lon="1.44223">
        <ele>382</ele>
        <time>2017-02-26T10:13:48Z</time>
      </trkpt>
      <trkpt lat="45.32484" lon="1.44254">
        <ele>376</ele>
        <time>2017-02-26T10:14:25Z</time>
      </trkpt>
      <trkpt lat="45.32478" lon="1.44253">
        <ele>374</ele>
        <time>2017-02-26T10:15:30Z</time>
      </trkpt>
      <trkpt lat="45.32475" lon="1.44252">
        <ele>372</ele>
        <time>2017-02-26T10:15:31Z</time>
      </trkpt>
      <trkpt lat="45.32471" lon="1.4425">
        <ele>371</ele>
        <time>2017-02-26T10:15:32Z</time>
      </trkpt>
      <trkpt lat="45.32467" lon="1.4425">
        <ele>369</ele>
        <time>2017-02-26T10:15:33Z</time>
      </trkpt>
      <trkpt lat="45.32464" lon="1.44249">
        <ele>368</ele>
        <time>2017-02-26T10:15:34Z</time>
      </trkpt>
      <trkpt lat="45.3246" lon="1.44248">
        <ele>367</ele>
        <time>2017-02-26T10:15:35Z</time>
      </trkpt>
      <trkpt lat="45.32455" lon="1.44248">
        <ele>366</ele>
        <time>2017-02-26T10:15:36Z</time>
      </trkpt>
      <trkpt lat="45.32446" lon="1.44249">
        <ele>364</ele>
        <time>2017-02-26T10:15:38Z</time>
      </trkpt>
      <trkpt lat="45.32441" lon="1.44251">
        <ele>363</ele>
        <time>2017-02-26T10:15:39Z</time>
      </trkpt>
      <trkpt lat="45.32436" lon="1.44252">
        <ele>362</ele>
        <time>2017-02-26T10:15:40Z</time>
      </trkpt>
      <trkpt lat="45.3243" lon="1.44253">
        <ele>361</ele>
        <time>2017-02-26T10:15:41Z</time>
      </trkpt>
      <trkpt lat="45.32424" lon="1.44255">
        <ele>360</ele>
        <time>2017-02-26T10:15:42Z</time>
      </trkpt>
      <trkpt lat="45.3241" lon="1.44261">
        <ele>359</ele>
        <time>2017-02-26T10:15:44Z</time>
      </trkpt>
      <trkpt lat="45.32403" lon="1.44264">
        <ele>358</ele>
        <time>2017-02-26T10:15:45Z</time>
      </trkpt>
      <trkpt lat="45.32396" lon="1.44268">
        <ele>357</ele>
        <time>2017-02-26T10:15:46Z</time>
      </trkpt>
      <trkpt lat="45.32389" lon="1.44273">
        <ele>356</ele>
        <time>2017-02-26T10:15:47Z</time>
      </trkpt>
      <trkpt lat="45.32382" lon="1.44277">
        <ele>355</ele>
        <time>2017-02-26T10:15:48Z</time>
      </trkpt>
      <trkpt lat="45.32368" lon="1.44284">
        <ele>354</ele>
        <time>2017-02-26T10:15:50Z</time>
      </trkpt>
      <trkpt lat="45.32353" lon="1.44291">
        <ele>353</ele>
        <time>2017-02-26T10:15:52Z</time>
      </trkpt>
      <trkpt lat="45.32341" lon="1.44295">
        <ele>351</ele>
        <time>2017-02-26T10:15:54Z</time>
      </trkpt>
      <trkpt lat="45.32336" lon="1.44295">
        <ele>350</ele>
        <time>2017-02-26T10:15:55Z</time>
      </trkpt>
      <trkpt lat="45.32331" lon="1.44292">
        <ele>349</ele>
        <time>2017-02-26T10:15:56Z</time>
      </trkpt>
      <trkpt lat="45.32329" lon="1.44289">
        <ele>348</ele>
        <time>2017-02-26T10:15:57Z</time>
      </trkpt>
      <trkpt lat="45.32326" lon="1.44286">
        <ele>347</ele>
        <time>2017-02-26T10:15:58Z</time>
      </trkpt>
      <trkpt lat="45.32324" lon="1.44283">
        <ele>347</ele>
        <time>2017-02-26T10:15:59Z</time>
      </trkpt>
      <trkpt lat="45.32324" lon="1.44274">
        <ele>346</ele>
        <time>2017-02-26T10:16:01Z</time>
      </trkpt>
      <trkpt lat="45.32324" lon="1.4427">
        <ele>345</ele>
        <time>2017-02-26T10:16:02Z</time>
      </trkpt>
      <trkpt lat="45.32325" lon="1.44266">
        <ele>344</ele>
        <time>2017-02-26T10:16:03Z</time>
      </trkpt>
      <trkpt lat="45.32326" lon="1.44258">
        <ele>343</ele>
        <time>2017-02-26T10:16:05Z</time>
      </trkpt>
      <trkpt lat="45.32327" lon="1.44254">
        <ele>342</ele>
        <time>2017-02-26T10:16:06Z</time>
      </trkpt>
      <trkpt lat="45.32327" lon="1.4425">
        <ele>342</ele>
        <time>2017-02-26T10:16:07Z</time>
      </trkpt>
      <trkpt lat="45.32326" lon="1.44246">
        <ele>341</ele>
        <time>2017-02-26T10:16:08Z</time>
      </trkpt>
      <trkpt lat="45.32325" lon="1.44241">
        <ele>341</ele>
        <time>2017-02-26T10:16:09Z</time>
      </trkpt>
      <trkpt lat="45.32323" lon="1.44233">
        <ele>339</ele>
        <time>2017-02-26T10:16:11Z</time>
      </trkpt>
      <trkpt lat="45.32321" lon="1.44225">
        <ele>338</ele>
        <time>2017-02-26T10:16:13Z</time>
      </trkpt>
      <trkpt lat="45.3232" lon="1.44217">
        <ele>336</ele>
        <time>2017-02-26T10:16:15Z</time>
      </trkpt>
      <trkpt lat="45.32318" lon="1.4421">
        <ele>335</ele>
        <time>2017-02-26T10:16:17Z</time>
      </trkpt>
      <trkpt lat="45.32317" lon="1.44207">
        <ele>335</ele>
        <time>2017-02-26T10:16:18Z</time>
      </trkpt>
      <trkpt lat="45.32315" lon="1.44204">
        <ele>334</ele>
        <time>2017-02-26T10:16:19Z</time>
      </trkpt>
      <trkpt lat="45.32309" lon="1.44187">
        <ele>335</ele>
        <time>2017-02-26T10:16:24Z</time>
      </trkpt>
      <trkpt lat="45.32305" lon="1.44177">
        <ele>335</ele>
        <time>2017-02-26T10:16:27Z</time>
      </trkpt>
      <trkpt lat="45.32301" lon="1.44169">
        <ele>336</ele>
        <time>2017-02-26T10:16:30Z</time>
      </trkpt>
      <trkpt lat="45.32298" lon="1.44162">
        <ele>337</ele>
        <time>2017-02-26T10:16:33Z</time>
      </trkpt>
      <trkpt lat="45.32293" lon="1.44156">
        <ele>338</ele>
        <time>2017-02-26T10:16:36Z</time>
      </trkpt>
      <trkpt lat="45.32291" lon="1.44153">
        <ele>338</ele>
        <time>2017-02-26T10:16:37Z</time>
      </trkpt>
      <trkpt lat="45.32286" lon="1.44147">
        <ele>339</ele>
        <time>2017-02-26T10:16:40Z</time>
      </trkpt>
      <trkpt lat="45.32278" lon="1.44141">
        <ele>340</ele>
        <time>2017-02-26T10:16:44Z</time>
      </trkpt>
      <trkpt lat="45.32271" lon="1.44133">
        <ele>342</ele>
        <time>2017-02-26T10:16:49Z</time>
      </trkpt>
      <trkpt lat="45.32267" lon="1.44128">
        <ele>343</ele>
        <time>2017-02-26T10:16:52Z</time>
      </trkpt>
      <trkpt lat="45.32265" lon="1.44123">
        <ele>344</ele>
        <time>2017-02-26T10:16:55Z</time>
      </trkpt>
      <trkpt lat="45.32262" lon="1.44117">
        <ele>346</ele>
        <time>2017-02-26T10:16:57Z</time>
      </trkpt>
      <trkpt lat="45.32259" lon="1.44113">
        <ele>348</ele>
        <time>2017-02-26T10:16:59Z</time>
      </trkpt>
      <trkpt lat="45.32257" lon="1.4411">
        <ele>349</ele>
        <time>2017-02-26T10:17:00Z</time>
      </trkpt>
      <trkpt lat="45.32254" lon="1.44107">
        <ele>350</ele>
        <time>2017-02-26T10:17:02Z</time>
      </trkpt>
      <trkpt lat="45.32251" lon="1.44103">
        <ele>350</ele>
        <time>2017-02-26T10:17:04Z</time>
      </trkpt>
      <trkpt lat="45.32239" lon="1.44093">
        <ele>354</ele>
        <time>2017-02-26T10:17:12Z</time>
      </trkpt>
      <trkpt lat="45.32235" lon="1.44089">
        <ele>355</ele>
        <time>2017-02-26T10:17:15Z</time>
      </trkpt>
      <trkpt lat="45.3223" lon="1.44085">
        <ele>357</ele>
        <time>2017-02-26T10:17:19Z</time>
      </trkpt>
      <trkpt lat="45.32219" lon="1.44079">
        <ele>357</ele>
        <time>2017-02-26T10:17:25Z</time>
      </trkpt>
      <trkpt lat="45.32204" lon="1.44072">
        <ele>357</ele>
        <time>2017-02-26T10:17:31Z</time>
      </trkpt>
      <trkpt lat="45.32195" lon="1.44067">
        <ele>355</ele>
        <time>2017-02-26T10:17:35Z</time>
      </trkpt>
      <trkpt lat="45.32191" lon="1.44065">
        <ele>355</ele>
        <time>2017-02-26T10:17:37Z</time>
      </trkpt>
      <trkpt lat="45.32188" lon="1.44064">
        <ele>354</ele>
        <time>2017-02-26T10:17:38Z</time>
      </trkpt>
      <trkpt lat="45.32184" lon="1.44063">
        <ele>353</ele>
        <time>2017-02-26T10:17:40Z</time>
      </trkpt>
      <trkpt lat="45.32179" lon="1.44062">
        <ele>351</ele>
        <time>2017-02-26T10:17:42Z</time>
      </trkpt>
      <trkpt lat="45.32176" lon="1.44061">
        <ele>351</ele>
        <time>2017-02-26T10:17:43Z</time>
      </trkpt>
      <trkpt lat="45.32173" lon="1.4406">
        <ele>350</ele>
        <time>2017-02-26T10:17:44Z</time>
      </trkpt>
      <trkpt lat="45.32168" lon="1.44059">
        <ele>349</ele>
        <time>2017-02-26T10:17:46Z</time>
      </trkpt>
      <trkpt lat="45.32161" lon="1.44058">
        <ele>348</ele>
        <time>2017-02-26T10:17:49Z</time>
      </trkpt>
      <trkpt lat="45.32159" lon="1.44058">
        <ele>347</ele>
        <time>2017-02-26T10:17:50Z</time>
      </trkpt>
      <trkpt lat="45.32157" lon="1.44057">
        <ele>346</ele>
        <time>2017-02-26T10:17:51Z</time>
      </trkpt>
      <trkpt lat="45.32153" lon="1.44057">
        <ele>345</ele>
        <time>2017-02-26T10:17:53Z</time>
      </trkpt>
      <trkpt lat="45.32148" lon="1.44057">
        <ele>343</ele>
        <time>2017-02-26T10:17:55Z</time>
      </trkpt>
      <trkpt lat="45.32146" lon="1.44056">
        <ele>342</ele>
        <time>2017-02-26T10:17:56Z</time>
      </trkpt>
      <trkpt lat="45.32144" lon="1.44056">
        <ele>341</ele>
        <time>2017-02-26T10:17:57Z</time>
      </trkpt>
      <trkpt lat="45.3214" lon="1.44055">
        <ele>340</ele>
        <time>2017-02-26T10:17:59Z</time>
      </trkpt>
      <trkpt lat="45.32137" lon="1.44054">
        <ele>339</ele>
        <time>2017-02-26T10:18:01Z</time>
      </trkpt>
      <trkpt lat="45.32134" lon="1.44052">
        <ele>337</ele>
        <time>2017-02-26T10:18:03Z</time>
      </trkpt>
      <trkpt lat="45.32129" lon="1.44048">
        <ele>336</ele>
        <time>2017-02-26T10:18:06Z</time>
      </trkpt>
      <trkpt lat="45.32124" lon="1.44045">
        <ele>335</ele>
        <time>2017-02-26T10:18:09Z</time>
      </trkpt>
      <trkpt lat="45.32123" lon="1.44043">
        <ele>335</ele>
        <time>2017-02-26T10:18:10Z</time>
      </trkpt>
      <trkpt lat="45.3212" lon="1.44039">
        <ele>336</ele>
        <time>2017-02-26T10:18:12Z</time>
      </trkpt>
      <trkpt lat="45.32115" lon="1.44032">
        <ele>337</ele>
        <time>2017-02-26T10:18:16Z</time>
      </trkpt>
      <trkpt lat="45.32115" lon="1.4403">
        <ele>337</ele>
        <time>2017-02-26T10:18:17Z</time>
      </trkpt>
      <trkpt lat="45.32114" lon="1.44028">
        <ele>337</ele>
        <time>2017-02-26T10:18:18Z</time>
      </trkpt>
      <trkpt lat="45.32111" lon="1.44017">
        <ele>338</ele>
        <time>2017-02-26T10:18:23Z</time>
      </trkpt>
      <trkpt lat="45.3211" lon="1.44014">
        <ele>338</ele>
        <time>2017-02-26T10:18:24Z</time>
      </trkpt>
      <trkpt lat="45.32107" lon="1.44003">
        <ele>338</ele>
        <time>2017-02-26T10:18:29Z</time>
      </trkpt>
      <trkpt lat="45.32107" lon="1.43998">
        <ele>338</ele>
        <time>2017-02-26T10:18:31Z</time>
      </trkpt>
      <trkpt lat="45.32106" lon="1.4399">
        <ele>338</ele>
        <time>2017-02-26T10:18:35Z</time>
      </trkpt>
      <trkpt lat="45.32106" lon="1.43985">
        <ele>339</ele>
        <time>2017-02-26T10:18:37Z</time>
      </trkpt>
      <trkpt lat="45.32106" lon="1.4398">
        <ele>341</ele>
        <time>2017-02-26T10:18:39Z</time>
      </trkpt>
      <trkpt lat="45.32106" lon="1.43975">
        <ele>342</ele>
        <time>2017-02-26T10:18:41Z</time>
      </trkpt>
      <trkpt lat="45.32107" lon="1.43972">
        <ele>342</ele>
        <time>2017-02-26T10:18:42Z</time>
      </trkpt>
      <trkpt lat="45.32108" lon="1.43966">
        <ele>343</ele>
        <time>2017-02-26T10:18:44Z</time>
      </trkpt>
      <trkpt lat="45.32111" lon="1.43959">
        <ele>344</ele>
        <time>2017-02-26T10:18:47Z</time>
      </trkpt>
      <trkpt lat="45.32111" lon="1.43957">
        <ele>344</ele>
        <time>2017-02-26T10:18:48Z</time>
      </trkpt>
      <trkpt lat="45.32112" lon="1.43954">
        <ele>345</ele>
        <time>2017-02-26T10:18:49Z</time>
      </trkpt>
      <trkpt lat="45.32114" lon="1.43944">
        <ele>346</ele>
        <time>2017-02-26T10:18:52Z</time>
      </trkpt>
      <trkpt lat="45.32114" lon="1.43942">
        <ele>347</ele>
        <time>2017-02-26T10:18:53Z</time>
      </trkpt>
      <trkpt lat="45.32115" lon="1.43939">
        <ele>347</ele>
        <time>2017-02-26T10:18:54Z</time>
      </trkpt>
      <trkpt lat="45.32115" lon="1.43931">
        <ele>349</ele>
        <time>2017-02-26T10:18:58Z</time>
      </trkpt>
      <trkpt lat="45.32114" lon="1.43924">
        <ele>348</ele>
        <time>2017-02-26T10:19:01Z</time>
      </trkpt>
      <trkpt lat="45.32113" lon="1.43921">
        <ele>349</ele>
        <time>2017-02-26T10:19:02Z</time>
      </trkpt>
      <trkpt lat="45.32109" lon="1.43905">
        <ele>349</ele>
        <time>2017-02-26T10:19:07Z</time>
      </trkpt>
      <trkpt lat="45.32101" lon="1.43887">
        <ele>348</ele>
        <time>2017-02-26T10:19:12Z</time>
      </trkpt>
      <trkpt lat="45.32099" lon="1.43883">
        <ele>347</ele>
        <time>2017-02-26T10:19:13Z</time>
      </trkpt>
      <trkpt lat="45.32095" lon="1.43876">
        <ele>346</ele>
        <time>2017-02-26T10:19:15Z</time>
      </trkpt>
      <trkpt lat="45.32088" lon="1.43867">
        <ele>345</ele>
        <time>2017-02-26T10:19:18Z</time>
      </trkpt>
      <trkpt lat="45.32084" lon="1.43857">
        <ele>344</ele>
        <time>2017-02-26T10:19:21Z</time>
      </trkpt>
      <trkpt lat="45.32081" lon="1.43852">
        <ele>343</ele>
        <time>2017-02-26T10:19:23Z</time>
      </trkpt>
      <trkpt lat="45.3208" lon="1.43849">
        <ele>342</ele>
        <time>2017-02-26T10:19:24Z</time>
      </trkpt>
      <trkpt lat="45.32079" lon="1.43846">
        <ele>341</ele>
        <time>2017-02-26T10:19:25Z</time>
      </trkpt>
      <trkpt lat="45.32076" lon="1.4384">
        <ele>340</ele>
        <time>2017-02-26T10:19:27Z</time>
      </trkpt>
      <trkpt lat="45.32074" lon="1.43834">
        <ele>339</ele>
        <time>2017-02-26T10:19:29Z</time>
      </trkpt>
      <trkpt lat="45.32072" lon="1.43829">
        <ele>339</ele>
        <time>2017-02-26T10:19:31Z</time>
      </trkpt>
      <trkpt lat="45.32069" lon="1.4382">
        <ele>338</ele>
        <time>2017-02-26T10:19:34Z</time>
      </trkpt>
      <trkpt lat="45.32068" lon="1.43811">
        <ele>337</ele>
        <time>2017-02-26T10:19:37Z</time>
      </trkpt>
      <trkpt lat="45.32067" lon="1.43809">
        <ele>337</ele>
        <time>2017-02-26T10:19:38Z</time>
      </trkpt>
      <trkpt lat="45.32062" lon="1.43803">
        <ele>338</ele>
        <time>2017-02-26T10:19:41Z</time>
      </trkpt>
      <trkpt lat="45.32063" lon="1.43797">
        <ele>339</ele>
        <time>2017-02-26T10:19:44Z</time>
      </trkpt>
      <trkpt lat="45.32065" lon="1.43795">
        <ele>340</ele>
        <time>2017-02-26T10:19:46Z</time>
      </trkpt>
      <trkpt lat="45.32069" lon="1.43793">
        <ele>339</ele>
        <time>2017-02-26T10:19:50Z</time>
      </trkpt>
      <trkpt lat="45.32071" lon="1.43792">
        <ele>338</ele>
        <time>2017-02-26T10:19:52Z</time>
      </trkpt>
      <trkpt lat="45.32078" lon="1.43792">
        <ele>336</ele>
        <time>2017-02-26T10:20:08Z</time>
      </trkpt>
      <trkpt lat="45.32085" lon="1.43791">
        <ele>334</ele>
        <time>2017-02-26T10:20:10Z</time>
      </trkpt>
      <trkpt lat="45.32091" lon="1.4379">
        <ele>333</ele>
        <time>2017-02-26T10:20:12Z</time>
      </trkpt>
      <trkpt lat="45.32098" lon="1.43788">
        <ele>332</ele>
        <time>2017-02-26T10:20:14Z</time>
      </trkpt>
      <trkpt lat="45.32102" lon="1.43789">
        <ele>331</ele>
        <time>2017-02-26T10:20:16Z</time>
      </trkpt>
      <trkpt lat="45.32106" lon="1.4379">
        <ele>330</ele>
        <time>2017-02-26T10:20:18Z</time>
      </trkpt>
      <trkpt lat="45.32113" lon="1.43791">
        <ele>328</ele>
        <time>2017-02-26T10:20:21Z</time>
      </trkpt>
      <trkpt lat="45.32125" lon="1.43789">
        <ele>327</ele>
        <time>2017-02-26T10:20:23Z</time>
      </trkpt>
      <trkpt lat="45.32148" lon="1.43783">
        <ele>325</ele>
        <time>2017-02-26T10:20:27Z</time>
      </trkpt>
      <trkpt lat="45.32153" lon="1.43783">
        <ele>324</ele>
        <time>2017-02-26T10:20:28Z</time>
      </trkpt>
      <trkpt lat="45.32158" lon="1.43783">
        <ele>323</ele>
        <time>2017-02-26T10:20:29Z</time>
      </trkpt>
      <trkpt lat="45.32168" lon="1.43784">
        <ele>321</ele>
        <time>2017-02-26T10:20:31Z</time>
      </trkpt>
      <trkpt lat="45.32178" lon="1.43785">
        <ele>319</ele>
        <time>2017-02-26T10:20:33Z</time>
      </trkpt>
      <trkpt lat="45.32183" lon="1.43784">
        <ele>318</ele>
        <time>2017-02-26T10:20:34Z</time>
      </trkpt>
      <trkpt lat="45.32189" lon="1.43784">
        <ele>318</ele>
        <time>2017-02-26T10:20:35Z</time>
      </trkpt>
      <trkpt lat="45.32203" lon="1.43781">
        <ele>316</ele>
        <time>2017-02-26T10:20:37Z</time>
      </trkpt>
      <trkpt lat="45.32217" lon="1.43779">
        <ele>314</ele>
        <time>2017-02-26T10:20:39Z</time>
      </trkpt>
      <trkpt lat="45.32225" lon="1.4378">
        <ele>314</ele>
        <time>2017-02-26T10:20:40Z</time>
      </trkpt>
      <trkpt lat="45.32232" lon="1.43779">
        <ele>313</ele>
        <time>2017-02-26T10:20:41Z</time>
      </trkpt>
      <trkpt lat="45.32248" lon="1.43776">
        <ele>311</ele>
        <time>2017-02-26T10:20:43Z</time>
      </trkpt>
      <trkpt lat="45.32256" lon="1.43774">
        <ele>310</ele>
        <time>2017-02-26T10:20:44Z</time>
      </trkpt>
      <trkpt lat="45.32262" lon="1.43773">
        <ele>309</ele>
        <time>2017-02-26T10:20:45Z</time>
      </trkpt>
      <trkpt lat="45.32277" lon="1.4377">
        <ele>307</ele>
        <time>2017-02-26T10:20:47Z</time>
      </trkpt>
      <trkpt lat="45.32293" lon="1.43768">
        <ele>306</ele>
        <time>2017-02-26T10:20:49Z</time>
      </trkpt>
      <trkpt lat="45.32311" lon="1.43764">
        <ele>304</ele>
        <time>2017-02-26T10:20:51Z</time>
      </trkpt>
      <trkpt lat="45.32321" lon="1.43763">
        <ele>303</ele>
        <time>2017-02-26T10:20:52Z</time>
      </trkpt>
      <trkpt lat="45.32329" lon="1.43762">
        <ele>302</ele>
        <time>2017-02-26T10:20:53Z</time>
      </trkpt>
      <trkpt lat="45.32342" lon="1.43761">
        <ele>300</ele>
        <time>2017-02-26T10:20:55Z</time>
      </trkpt>
      <trkpt lat="45.32347" lon="1.43758">
        <ele>299</ele>
        <time>2017-02-26T10:20:56Z</time>
      </trkpt>
      <trkpt lat="45.32353" lon="1.43755">
        <ele>298</ele>
        <time>2017-02-26T10:20:57Z</time>
      </trkpt>
      <trkpt lat="45.32365" lon="1.43747">
        <ele>297</ele>
        <time>2017-02-26T10:20:59Z</time>
      </trkpt>
      <trkpt lat="45.3237" lon="1.43742">
        <ele>296</ele>
        <time>2017-02-26T10:21:00Z</time>
      </trkpt>
      <trkpt lat="45.32375" lon="1.43738">
        <ele>295</ele>
        <time>2017-02-26T10:21:01Z</time>
      </trkpt>
      <trkpt lat="45.3239" lon="1.43723">
        <ele>294</ele>
        <time>2017-02-26T10:21:04Z</time>
      </trkpt>
      <trkpt lat="45.32401" lon="1.43715">
        <ele>294</ele>
        <time>2017-02-26T10:21:07Z</time>
      </trkpt>
      <trkpt lat="45.32416" lon="1.43705">
        <ele>293</ele>
        <time>2017-02-26T10:21:17Z</time>
      </trkpt>
      <trkpt lat="45.32419" lon="1.43694">
        <ele>293</ele>
        <time>2017-02-26T10:21:20Z</time>
      </trkpt>
      <trkpt lat="45.3242" lon="1.4369">
        <ele>293</ele>
        <time>2017-02-26T10:21:21Z</time>
      </trkpt>
      <trkpt lat="45.32425" lon="1.43672">
        <ele>292</ele>
        <time>2017-02-26T10:21:24Z</time>
      </trkpt>
      <trkpt lat="45.32428" lon="1.43666">
        <ele>292</ele>
        <time>2017-02-26T10:21:25Z</time>
      </trkpt>
      <trkpt lat="45.32438" lon="1.43646">
        <ele>292</ele>
        <time>2017-02-26T10:21:28Z</time>
      </trkpt>
      <trkpt lat="45.32443" lon="1.43639">
        <ele>291</ele>
        <time>2017-02-26T10:21:29Z</time>
      </trkpt>
      <trkpt lat="45.32447" lon="1.43633">
        <ele>291</ele>
        <time>2017-02-26T10:21:30Z</time>
      </trkpt>
      <trkpt lat="45.32452" lon="1.43626">
        <ele>290</ele>
        <time>2017-02-26T10:21:31Z</time>
      </trkpt>
      <trkpt lat="45.32463" lon="1.43613">
        <ele>289</ele>
        <time>2017-02-26T10:21:33Z</time>
      </trkpt>
      <trkpt lat="45.32469" lon="1.43607">
        <ele>289</ele>
        <time>2017-02-26T10:21:34Z</time>
      </trkpt>
      <trkpt lat="45.32475" lon="1.43601">
        <ele>289</ele>
        <time>2017-02-26T10:21:35Z</time>
      </trkpt>
      <trkpt lat="45.3248" lon="1.43594">
        <ele>288</ele>
        <time>2017-02-26T10:21:36Z</time>
      </trkpt>
      <trkpt lat="45.32486" lon="1.43586">
        <ele>288</ele>
        <time>2017-02-26T10:21:37Z</time>
      </trkpt>
      <trkpt lat="45.32496" lon="1.43571">
        <ele>287</ele>
        <time>2017-02-26T10:21:39Z</time>
      </trkpt>
      <trkpt lat="45.32499" lon="1.43551">
        <ele>286</ele>
        <time>2017-02-26T10:21:41Z</time>
      </trkpt>
      <trkpt lat="45.32498" lon="1.43542">
        <ele>286</ele>
        <time>2017-02-26T10:21:42Z</time>
      </trkpt>
      <trkpt lat="45.32496" lon="1.43534">
        <ele>285</ele>
        <time>2017-02-26T10:21:43Z</time>
      </trkpt>
      <trkpt lat="45.32495" lon="1.43522">
        <ele>284</ele>
        <time>2017-02-26T10:21:44Z</time>
      </trkpt>
      <trkpt lat="45.32493" lon="1.43511">
        <ele>283</ele>
        <time>2017-02-26T10:21:45Z</time>
      </trkpt>
      <trkpt lat="45.3249" lon="1.435">
        <ele>282</ele>
        <time>2017-02-26T10:21:46Z</time>
      </trkpt>
      <trkpt lat="45.32485" lon="1.43481">
        <ele>280</ele>
        <time>2017-02-26T10:21:48Z</time>
      </trkpt>
      <trkpt lat="45.32482" lon="1.43472">
        <ele>279</ele>
        <time>2017-02-26T10:21:49Z</time>
      </trkpt>
      <trkpt lat="45.32481" lon="1.43464">
        <ele>277</ele>
        <time>2017-02-26T10:21:50Z</time>
      </trkpt>
      <trkpt lat="45.32479" lon="1.43455">
        <ele>276</ele>
        <time>2017-02-26T10:21:51Z</time>
      </trkpt>
      <trkpt lat="45.32474" lon="1.43438">
        <ele>274</ele>
        <time>2017-02-26T10:21:53Z</time>
      </trkpt>
      <trkpt lat="45.3247" lon="1.43418">
        <ele>272</ele>
        <time>2017-02-26T10:21:55Z</time>
      </trkpt>
      <trkpt lat="45.32469" lon="1.43409">
        <ele>271</ele>
        <time>2017-02-26T10:21:56Z</time>
      </trkpt>
      <trkpt lat="45.32467" lon="1.434">
        <ele>270</ele>
        <time>2017-02-26T10:21:57Z</time>
      </trkpt>
      <trkpt lat="45.32465" lon="1.43393">
        <ele>269</ele>
        <time>2017-02-26T10:21:58Z</time>
      </trkpt>
      <trkpt lat="45.32462" lon="1.43387">
        <ele>268</ele>
        <time>2017-02-26T10:21:59Z</time>
      </trkpt>
      <trkpt lat="45.3246" lon="1.43381">
        <ele>267</ele>
        <time>2017-02-26T10:22:00Z</time>
      </trkpt>
      <trkpt lat="45.32458" lon="1.43376">
        <ele>266</ele>
        <time>2017-02-26T10:22:01Z</time>
      </trkpt>
      <trkpt lat="45.32456" lon="1.43371">
        <ele>265</ele>
        <time>2017-02-26T10:22:02Z</time>
      </trkpt>
      <trkpt lat="45.32455" lon="1.43366">
        <ele>264</ele>
        <time>2017-02-26T10:22:03Z</time>
      </trkpt>
      <trkpt lat="45.32453" lon="1.43361">
        <ele>262</ele>
        <time>2017-02-26T10:22:04Z</time>
      </trkpt>
      <trkpt lat="45.32452" lon="1.43355">
        <ele>261</ele>
        <time>2017-02-26T10:22:05Z</time>
      </trkpt>
      <trkpt lat="45.3245" lon="1.43348">
        <ele>260</ele>
        <time>2017-02-26T10:22:06Z</time>
      </trkpt>
      <trkpt lat="45.32447" lon="1.4334">
        <ele>259</ele>
        <time>2017-02-26T10:22:07Z</time>
      </trkpt>
      <trkpt lat="45.32444" lon="1.43323">
        <ele>257</ele>
        <time>2017-02-26T10:22:09Z</time>
      </trkpt>
      <trkpt lat="45.32444" lon="1.43315">
        <ele>256</ele>
        <time>2017-02-26T10:22:10Z</time>
      </trkpt>
      <trkpt lat="45.32444" lon="1.43299">
        <ele>256</ele>
        <time>2017-02-26T10:22:12Z</time>
      </trkpt>
      <trkpt lat="45.32445" lon="1.43292">
        <ele>256</ele>
        <time>2017-02-26T10:22:13Z</time>
      </trkpt>
      <trkpt lat="45.32445" lon="1.43263">
        <ele>256</ele>
        <time>2017-02-26T10:22:17Z</time>
      </trkpt>
      <trkpt lat="45.32444" lon="1.43245">
        <ele>256</ele>
        <time>2017-02-26T10:22:19Z</time>
      </trkpt>
      <trkpt lat="45.32438" lon="1.43195">
        <ele>256</ele>
        <time>2017-02-26T10:22:24Z</time>
      </trkpt>
      <trkpt lat="45.32437" lon="1.43176">
        <ele>255</ele>
        <time>2017-02-26T10:22:26Z</time>
      </trkpt>
      <trkpt lat="45.32437" lon="1.43148">
        <ele>255</ele>
        <time>2017-02-26T10:22:29Z</time>
      </trkpt>
      <trkpt lat="45.32437" lon="1.43139">
        <ele>255</ele>
        <time>2017-02-26T10:22:30Z</time>
      </trkpt>
      <trkpt lat="45.3243" lon="1.43112">
        <ele>255</ele>
        <time>2017-02-26T10:22:33Z</time>
      </trkpt>
      <trkpt lat="45.32427" lon="1.43102">
        <ele>255</ele>
        <time>2017-02-26T10:22:34Z</time>
      </trkpt>
      <trkpt lat="45.32423" lon="1.43093">
        <ele>254</ele>
        <time>2017-02-26T10:22:35Z</time>
      </trkpt>
      <trkpt lat="45.32422" lon="1.43085">
        <ele>254</ele>
        <time>2017-02-26T10:22:36Z</time>
      </trkpt>
      <trkpt lat="45.32422" lon="1.43069">
        <ele>254</ele>
        <time>2017-02-26T10:22:38Z</time>
      </trkpt>
      <trkpt lat="45.32428" lon="1.43048">
        <ele>254</ele>
        <time>2017-02-26T10:22:41Z</time>
      </trkpt>
      <trkpt lat="45.3243" lon="1.43041">
        <ele>254</ele>
        <time>2017-02-26T10:22:42Z</time>
      </trkpt>
      <trkpt lat="45.32432" lon="1.43035">
        <ele>254</ele>
        <time>2017-02-26T10:22:43Z</time>
      </trkpt>
      <trkpt lat="45.32443" lon="1.43018">
        <ele>253</ele>
        <time>2017-02-26T10:22:46Z</time>
      </trkpt>
      <trkpt lat="45.32449" lon="1.43008">
        <ele>253</ele>
        <time>2017-02-26T10:22:48Z</time>
      </trkpt>
      <trkpt lat="45.32452" lon="1.42995">
        <ele>252</ele>
        <time>2017-02-26T10:22:50Z</time>
      </trkpt>
      <trkpt lat="45.3245" lon="1.42973">
        <ele>252</ele>
        <time>2017-02-26T10:22:53Z</time>
      </trkpt>
      <trkpt lat="45.32447" lon="1.42966">
        <ele>251</ele>
        <time>2017-02-26T10:22:54Z</time>
      </trkpt>
      <trkpt lat="45.32444" lon="1.42959">
        <ele>251</ele>
        <time>2017-02-26T10:22:55Z</time>
      </trkpt>
      <trkpt lat="45.32437" lon="1.42945">
        <ele>250</ele>
        <time>2017-02-26T10:22:57Z</time>
      </trkpt>
      <trkpt lat="45.32429" lon="1.42935">
        <ele>250</ele>
        <time>2017-02-26T10:22:59Z</time>
      </trkpt>
      <trkpt lat="45.3242" lon="1.42931">
        <ele>249</ele>
        <time>2017-02-26T10:23:01Z</time>
      </trkpt>
      <trkpt lat="45.32408" lon="1.42927">
        <ele>248</ele>
        <time>2017-02-26T10:23:03Z</time>
      </trkpt>
      <trkpt lat="45.32394" lon="1.42926">
        <ele>248</ele>
        <time>2017-02-26T10:23:05Z</time>
      </trkpt>
      <trkpt lat="45.32383" lon="1.42926">
        <ele>247</ele>
        <time>2017-02-26T10:23:07Z</time>
      </trkpt>
      <trkpt lat="45.32378" lon="1.42925">
        <ele>246</ele>
        <time>2017-02-26T10:23:08Z</time>
      </trkpt>
      <trkpt lat="45.32369" lon="1.42926">
        <ele>245</ele>
        <time>2017-02-26T10:23:10Z</time>
      </trkpt>
      <trkpt lat="45.32366" lon="1.42927">
        <ele>245</ele>
        <time>2017-02-26T10:23:11Z</time>
      </trkpt>
      <trkpt lat="45.3236" lon="1.42932">
        <ele>244</ele>
        <time>2017-02-26T10:23:13Z</time>
      </trkpt>
      <trkpt lat="45.32357" lon="1.4294">
        <ele>244</ele>
        <time>2017-02-26T10:23:15Z</time>
      </trkpt>
      <trkpt lat="45.32356" lon="1.42954">
        <ele>243</ele>
        <time>2017-02-26T10:23:18Z</time>
      </trkpt>
      <trkpt lat="45.32357" lon="1.42964">
        <ele>243</ele>
        <time>2017-02-26T10:23:20Z</time>
      </trkpt>
      <trkpt lat="45.32357" lon="1.4299">
        <ele>243</ele>
        <time>2017-02-26T10:23:25Z</time>
      </trkpt>
      <trkpt lat="45.32351" lon="1.43005">
        <ele>242</ele>
        <time>2017-02-26T10:23:28Z</time>
      </trkpt>
      <trkpt lat="45.32348" lon="1.43006">
        <ele>241</ele>
        <time>2017-02-26T10:23:29Z</time>
      </trkpt>
      <trkpt lat="45.32343" lon="1.43003">
        <ele>241</ele>
        <time>2017-02-26T10:23:31Z</time>
      </trkpt>
      <trkpt lat="45.32338" lon="1.42996">
        <ele>241</ele>
        <time>2017-02-26T10:23:33Z</time>
      </trkpt>
      <trkpt lat="45.32326" lon="1.42977">
        <ele>241</ele>
        <time>2017-02-26T10:23:37Z</time>
      </trkpt>
      <trkpt lat="45.32316" lon="1.42965">
        <ele>240</ele>
        <time>2017-02-26T10:23:39Z</time>
      </trkpt>
      <trkpt lat="45.32301" lon="1.42949">
        <ele>239</ele>
        <time>2017-02-26T10:23:42Z</time>
      </trkpt>
      <trkpt lat="45.32284" lon="1.42931">
        <ele>239</ele>
        <time>2017-02-26T10:23:45Z</time>
      </trkpt>
      <trkpt lat="45.32263" lon="1.42911">
        <ele>238</ele>
        <time>2017-02-26T10:23:48Z</time>
      </trkpt>
      <trkpt lat="45.32256" lon="1.42905">
        <ele>237</ele>
        <time>2017-02-26T10:23:49Z</time>
      </trkpt>
      <trkpt lat="45.32242" lon="1.42895">
        <ele>237</ele>
        <time>2017-02-26T10:23:51Z</time>
      </trkpt>
      <trkpt lat="45.32227" lon="1.42888">
        <ele>236</ele>
        <time>2017-02-26T10:23:53Z</time>
      </trkpt>
      <trkpt lat="45.32221" lon="1.42885">
        <ele>236</ele>
        <time>2017-02-26T10:23:54Z</time>
      </trkpt>
      <trkpt lat="45.32211" lon="1.42882">
        <ele>235</ele>
        <time>2017-02-26T10:23:56Z</time>
      </trkpt>
      <trkpt lat="45.32203" lon="1.42878">
        <ele>236</ele>
        <time>2017-02-26T10:23:58Z</time>
      </trkpt>
      <trkpt lat="45.32196" lon="1.42871">
        <ele>234</ele>
        <time>2017-02-26T10:24:01Z</time>
      </trkpt>
      <trkpt lat="45.32188" lon="1.42865">
        <ele>233</ele>
        <time>2017-02-26T10:24:04Z</time>
      </trkpt>
      <trkpt lat="45.32181" lon="1.42862">
        <ele>232</ele>
        <time>2017-02-26T10:24:06Z</time>
      </trkpt>
      <trkpt lat="45.32179" lon="1.4286">
        <ele>231</ele>
        <time>2017-02-26T10:24:07Z</time>
      </trkpt>
      <trkpt lat="45.32173" lon="1.42855">
        <ele>231</ele>
        <time>2017-02-26T10:24:09Z</time>
      </trkpt>
      <trkpt lat="45.32163" lon="1.42846">
        <ele>230</ele>
        <time>2017-02-26T10:24:13Z</time>
      </trkpt>
      <trkpt lat="45.32146" lon="1.42827">
        <ele>231</ele>
        <time>2017-02-26T10:24:20Z</time>
      </trkpt>
      <trkpt lat="45.32138" lon="1.42814">
        <ele>229</ele>
        <time>2017-02-26T10:24:25Z</time>
      </trkpt>
      <trkpt lat="45.32137" lon="1.42813">
        <ele>229</ele>
        <time>2017-02-26T10:24:26Z</time>
      </trkpt>
      <trkpt lat="45.32127" lon="1.42807">
        <ele>229</ele>
        <time>2017-02-26T10:24:31Z</time>
      </trkpt>
      <trkpt lat="45.32124" lon="1.42807">
        <ele>230</ele>
        <time>2017-02-26T10:24:32Z</time>
      </trkpt>
      <trkpt lat="45.32118" lon="1.42809">
        <ele>230</ele>
        <time>2017-02-26T10:24:35Z</time>
      </trkpt>
      <trkpt lat="45.32113" lon="1.42812">
        <ele>229</ele>
        <time>2017-02-26T10:24:38Z</time>
      </trkpt>
      <trkpt lat="45.32111" lon="1.42813">
        <ele>229</ele>
        <time>2017-02-26T10:24:39Z</time>
      </trkpt>
      <trkpt lat="45.32108" lon="1.42813">
        <ele>230</ele>
        <time>2017-02-26T10:24:41Z</time>
      </trkpt>
      <trkpt lat="45.32106" lon="1.42813">
        <ele>231</ele>
        <time>2017-02-26T10:24:42Z</time>
      </trkpt>
      <trkpt lat="45.32102" lon="1.42815">
        <ele>231</ele>
        <time>2017-02-26T10:24:44Z</time>
      </trkpt>
      <trkpt lat="45.32101" lon="1.42816">
        <ele>231</ele>
        <time>2017-02-26T10:24:45Z</time>
      </trkpt>
      <trkpt lat="45.32105" lon="1.42853">
        <ele>244</ele>
        <time>2017-02-26T10:25:20Z</time>
      </trkpt>
      <trkpt lat="45.32107" lon="1.42855">
        <ele>244</ele>
        <time>2017-02-26T10:25:21Z</time>
      </trkpt>
      <trkpt lat="45.32108" lon="1.42857">
        <ele>244</ele>
        <time>2017-02-26T10:25:22Z</time>
      </trkpt>
      <trkpt lat="45.3211" lon="1.42862">
        <ele>244</ele>
        <time>2017-02-26T10:25:25Z</time>
      </trkpt>
      <trkpt lat="45.32109" lon="1.42861">
        <ele>245</ele>
        <time>2017-02-26T10:25:46Z</time>
      </trkpt>
      <trkpt lat="45.32106" lon="1.42858">
        <ele>244</ele>
        <time>2017-02-26T10:25:48Z</time>
      </trkpt>
      <trkpt lat="45.32094" lon="1.42847">
        <ele>244</ele>
        <time>2017-02-26T10:25:53Z</time>
      </trkpt>
      <trkpt lat="45.32091" lon="1.42847">
        <ele>244</ele>
        <time>2017-02-26T10:25:54Z</time>
      </trkpt>
      <trkpt lat="45.32085" lon="1.42843">
        <ele>243</ele>
        <time>2017-02-26T10:25:57Z</time>
      </trkpt>
      <trkpt lat="45.32084" lon="1.42838">
        <ele>242</ele>
        <time>2017-02-26T10:25:59Z</time>
      </trkpt>
      <trkpt lat="45.32087" lon="1.42833">
        <ele>242</ele>
        <time>2017-02-26T10:26:01Z</time>
      </trkpt>
      <trkpt lat="45.3209" lon="1.42829">
        <ele>241</ele>
        <time>2017-02-26T10:26:03Z</time>
      </trkpt>
      <trkpt lat="45.32091" lon="1.42826">
        <ele>241</ele>
        <time>2017-02-26T10:26:04Z</time>
      </trkpt>
      <trkpt lat="45.32097" lon="1.4282">
        <ele>240</ele>
        <time>2017-02-26T10:26:06Z</time>
      </trkpt>
      <trkpt lat="45.321" lon="1.42817">
        <ele>240</ele>
        <time>2017-02-26T10:26:07Z</time>
      </trkpt>
      <trkpt lat="45.3211" lon="1.42804">
        <ele>239</ele>
        <time>2017-02-26T10:26:11Z</time>
      </trkpt>
      <trkpt lat="45.32111" lon="1.42802">
        <ele>239</ele>
        <time>2017-02-26T10:26:12Z</time>
      </trkpt>
      <trkpt lat="45.32111" lon="1.42799">
        <ele>238</ele>
        <time>2017-02-26T10:26:13Z</time>
      </trkpt>
      <trkpt lat="45.32112" lon="1.42797">
        <ele>238</ele>
        <time>2017-02-26T10:26:14Z</time>
      </trkpt>
      <trkpt lat="45.32113" lon="1.42787">
        <ele>237</ele>
        <time>2017-02-26T10:26:16Z</time>
      </trkpt>
      <trkpt lat="45.32111" lon="1.42777">
        <ele>235</ele>
        <time>2017-02-26T10:26:18Z</time>
      </trkpt>
      <trkpt lat="45.32106" lon="1.42772">
        <ele>234</ele>
        <time>2017-02-26T10:26:20Z</time>
      </trkpt>
      <trkpt lat="45.32102" lon="1.42768">
        <ele>232</ele>
        <time>2017-02-26T10:26:22Z</time>
      </trkpt>
      <trkpt lat="45.32098" lon="1.42764">
        <ele>231</ele>
        <time>2017-02-26T10:26:24Z</time>
      </trkpt>
      <trkpt lat="45.32094" lon="1.42758">
        <ele>229</ele>
        <time>2017-02-26T10:26:26Z</time>
      </trkpt>
      <trkpt lat="45.32094" lon="1.42751">
        <ele>228</ele>
        <time>2017-02-26T10:26:28Z</time>
      </trkpt>
      <trkpt lat="45.32095" lon="1.42743">
        <ele>227</ele>
        <time>2017-02-26T10:26:30Z</time>
      </trkpt>
      <trkpt lat="45.32096" lon="1.42739">
        <ele>227</ele>
        <time>2017-02-26T10:26:31Z</time>
      </trkpt>
      <trkpt lat="45.32096" lon="1.42734">
        <ele>227</ele>
        <time>2017-02-26T10:26:32Z</time>
      </trkpt>
      <trkpt lat="45.32102" lon="1.42723">
        <ele>227</ele>
        <time>2017-02-26T10:26:34Z</time>
      </trkpt>
      <trkpt lat="45.32111" lon="1.42707">
        <ele>226</ele>
        <time>2017-02-26T10:26:37Z</time>
      </trkpt>
      <trkpt lat="45.32122" lon="1.42694">
        <ele>225</ele>
        <time>2017-02-26T10:26:40Z</time>
      </trkpt>
      <trkpt lat="45.32125" lon="1.4269">
        <ele>225</ele>
        <time>2017-02-26T10:26:41Z</time>
      </trkpt>
      <trkpt lat="45.32135" lon="1.42683">
        <ele>223</ele>
        <time>2017-02-26T10:26:44Z</time>
      </trkpt>
      <trkpt lat="45.3214" lon="1.42681">
        <ele>223</ele>
        <time>2017-02-26T10:26:46Z</time>
      </trkpt>
      <trkpt lat="45.32143" lon="1.4268">
        <ele>222</ele>
        <time>2017-02-26T10:26:47Z</time>
      </trkpt>
      <trkpt lat="45.32145" lon="1.42677">
        <ele>221</ele>
        <time>2017-02-26T10:26:48Z</time>
      </trkpt>
      <trkpt lat="45.32146" lon="1.42674">
        <ele>221</ele>
        <time>2017-02-26T10:26:49Z</time>
      </trkpt>
      <trkpt lat="45.32147" lon="1.42671">
        <ele>220</ele>
        <time>2017-02-26T10:26:50Z</time>
      </trkpt>
      <trkpt lat="45.32145" lon="1.42667">
        <ele>218</ele>
        <time>2017-02-26T10:26:51Z</time>
      </trkpt>
      <trkpt lat="45.32143" lon="1.42663">
        <ele>217</ele>
        <time>2017-02-26T10:26:52Z</time>
      </trkpt>
      <trkpt lat="45.32141" lon="1.42658">
        <ele>216</ele>
        <time>2017-02-26T10:26:53Z</time>
      </trkpt>
      <trkpt lat="45.32139" lon="1.42653">
        <ele>214</ele>
        <time>2017-02-26T10:26:54Z</time>
      </trkpt>
      <trkpt lat="45.32137" lon="1.4265">
        <ele>213</ele>
        <time>2017-02-26T10:26:55Z</time>
      </trkpt>
      <trkpt lat="45.32134" lon="1.42647">
        <ele>211</ele>
        <time>2017-02-26T10:26:56Z</time>
      </trkpt>
      <trkpt lat="45.32132" lon="1.42644">
        <ele>210</ele>
        <time>2017-02-26T10:26:57Z</time>
      </trkpt>
      <trkpt lat="45.32133" lon="1.42641">
        <ele>209</ele>
        <time>2017-02-26T10:26:58Z</time>
      </trkpt>
      <trkpt lat="45.32134" lon="1.42636">
        <ele>209</ele>
        <time>2017-02-26T10:27:00Z</time>
      </trkpt>
      <trkpt lat="45.32135" lon="1.42634">
        <ele>208</ele>
        <time>2017-02-26T10:27:01Z</time>
      </trkpt>
      <trkpt lat="45.32136" lon="1.42632">
        <ele>208</ele>
        <time>2017-02-26T10:27:02Z</time>
      </trkpt>
      <trkpt lat="45.32127" lon="1.42615">
        <ele>189</ele>
        <time>2017-02-26T10:29:02Z</time>
      </trkpt>
      <trkpt lat="45.32109" lon="1.42606">
        <ele>194</ele>
        <time>2017-02-26T10:30:00Z</time>
      </trkpt>
      <trkpt lat="45.32103" lon="1.426">
        <ele>194</ele>
        <time>2017-02-26T10:30:05Z</time>
      </trkpt>
      <trkpt lat="45.32096" lon="1.42591">
        <ele>194</ele>
        <time>2017-02-26T10:30:11Z</time>
      </trkpt>
      <trkpt lat="45.32093" lon="1.42589">
        <ele>196</ele>
        <time>2017-02-26T10:30:14Z</time>
      </trkpt>
      <trkpt lat="45.32087" lon="1.42586">
        <ele>197</ele>
        <time>2017-02-26T10:30:17Z</time>
      </trkpt>
      <trkpt lat="45.32085" lon="1.42586">
        <ele>197</ele>
        <time>2017-02-26T10:30:18Z</time>
      </trkpt>
      <trkpt lat="45.32081" lon="1.42586">
        <ele>198</ele>
        <time>2017-02-26T10:30:21Z</time>
      </trkpt>
      <trkpt lat="45.32078" lon="1.42586">
        <ele>200</ele>
        <time>2017-02-26T10:30:23Z</time>
      </trkpt>
      <trkpt lat="45.32075" lon="1.42585">
        <ele>201</ele>
        <time>2017-02-26T10:30:25Z</time>
      </trkpt>
      <trkpt lat="45.32073" lon="1.42585">
        <ele>201</ele>
        <time>2017-02-26T10:30:26Z</time>
      </trkpt>
      <trkpt lat="45.3201" lon="1.42624">
        <ele>214</ele>
        <time>2017-02-26T10:31:14Z</time>
      </trkpt>
      <trkpt lat="45.31958" lon="1.42551">
        <ele>207</ele>
        <time>2017-02-26T10:32:23Z</time>
      </trkpt>
      <trkpt lat="45.31956" lon="1.42547">
        <ele>207</ele>
        <time>2017-02-26T10:32:25Z</time>
      </trkpt>
      <trkpt lat="45.31953" lon="1.42542">
        <ele>206</ele>
        <time>2017-02-26T10:32:28Z</time>
      </trkpt>
      <trkpt lat="45.3195" lon="1.42538">
        <ele>206</ele>
        <time>2017-02-26T10:32:30Z</time>
      </trkpt>
      <trkpt lat="45.31949" lon="1.42536">
        <ele>205</ele>
        <time>2017-02-26T10:32:32Z</time>
      </trkpt>
      <trkpt lat="45.31944" lon="1.42525">
        <ele>205</ele>
        <time>2017-02-26T10:32:38Z</time>
      </trkpt>
      <trkpt lat="45.31942" lon="1.42521">
        <ele>204</ele>
        <time>2017-02-26T10:32:40Z</time>
      </trkpt>
      <trkpt lat="45.31936" lon="1.42511">
        <ele>203</ele>
        <time>2017-02-26T10:32:45Z</time>
      </trkpt>
      <trkpt lat="45.31932" lon="1.42505">
        <ele>202</ele>
        <time>2017-02-26T10:32:48Z</time>
      </trkpt>
      <trkpt lat="45.31927" lon="1.42484">
        <ele>201</ele>
        <time>2017-02-26T10:38:48Z</time>
      </trkpt>
      <trkpt lat="45.31925" lon="1.42483">
        <ele>202</ele>
        <time>2017-02-26T10:38:49Z</time>
      </trkpt>
      <trkpt lat="45.31922" lon="1.4248">
        <ele>204</ele>
        <time>2017-02-26T10:38:51Z</time>
      </trkpt>
      <trkpt lat="45.31919" lon="1.42476">
        <ele>205</ele>
        <time>2017-02-26T10:38:53Z</time>
      </trkpt>
      <trkpt lat="45.31917" lon="1.42472">
        <ele>205</ele>
        <time>2017-02-26T10:38:55Z</time>
      </trkpt>
      <trkpt lat="45.31913" lon="1.42467">
        <ele>206</ele>
        <time>2017-02-26T10:38:57Z</time>
      </trkpt>
      <trkpt lat="45.31908" lon="1.4246">
        <ele>207</ele>
        <time>2017-02-26T10:39:00Z</time>
      </trkpt>
      <trkpt lat="45.31901" lon="1.42455">
        <ele>208</ele>
        <time>2017-02-26T10:39:03Z</time>
      </trkpt>
      <trkpt lat="45.31896" lon="1.42448">
        <ele>209</ele>
        <time>2017-02-26T10:39:06Z</time>
      </trkpt>
      <trkpt lat="45.31883" lon="1.42438">
        <ele>210</ele>
        <time>2017-02-26T10:39:10Z</time>
      </trkpt>
      <trkpt lat="45.31862" lon="1.42426">
        <ele>211</ele>
        <time>2017-02-26T10:39:16Z</time>
      </trkpt>
      <trkpt lat="45.31861" lon="1.42425">
        <ele>212</ele>
        <time>2017-02-26T10:39:17Z</time>
      </trkpt>
      <trkpt lat="45.31857" lon="1.4242">
        <ele>213</ele>
        <time>2017-02-26T10:39:20Z</time>
      </trkpt>
      <trkpt lat="45.31856" lon="1.42419">
        <ele>213</ele>
        <time>2017-02-26T10:39:21Z</time>
      </trkpt>
      <trkpt lat="45.31855" lon="1.42419">
        <ele>214</ele>
        <time>2017-02-26T10:39:22Z</time>
      </trkpt>
      <trkpt lat="45.31848" lon="1.42416">
        <ele>215</ele>
        <time>2017-02-26T10:39:25Z</time>
      </trkpt>
      <trkpt lat="45.31842" lon="1.42414">
        <ele>216</ele>
        <time>2017-02-26T10:39:27Z</time>
      </trkpt>
      <trkpt lat="45.31837" lon="1.42413">
        <ele>218</ele>
        <time>2017-02-26T10:39:29Z</time>
      </trkpt>
      <trkpt lat="45.31833" lon="1.42414">
        <ele>219</ele>
        <time>2017-02-26T10:39:31Z</time>
      </trkpt>
      <trkpt lat="45.3183" lon="1.42413">
        <ele>219</ele>
        <time>2017-02-26T10:39:32Z</time>
      </trkpt>
      <trkpt lat="45.31827" lon="1.42414">
        <ele>219</ele>
        <time>2017-02-26T10:39:33Z</time>
      </trkpt>
      <trkpt lat="45.31816" lon="1.42418">
        <ele>220</ele>
        <time>2017-02-26T10:39:37Z</time>
      </trkpt>
      <trkpt lat="45.31809" lon="1.42421">
        <ele>221</ele>
        <time>2017-02-26T10:39:39Z</time>
      </trkpt>
      <trkpt lat="45.31794" lon="1.4243">
        <ele>221</ele>
        <time>2017-02-26T10:39:42Z</time>
      </trkpt>
      <trkpt lat="45.31789" lon="1.42434">
        <ele>221</ele>
        <time>2017-02-26T10:39:43Z</time>
      </trkpt>
      <trkpt lat="45.31773" lon="1.42451">
        <ele>220</ele>
        <time>2017-02-26T10:39:47Z</time>
      </trkpt>
      <trkpt lat="45.31769" lon="1.42453">
        <ele>219</ele>
        <time>2017-02-26T10:39:48Z</time>
      </trkpt>
      <trkpt lat="45.31752" lon="1.42459">
        <ele>218</ele>
        <time>2017-02-26T10:39:51Z</time>
      </trkpt>
      <trkpt lat="45.31738" lon="1.4246">
        <ele>216</ele>
        <time>2017-02-26T10:39:54Z</time>
      </trkpt>
      <trkpt lat="45.3173" lon="1.42457">
        <ele>215</ele>
        <time>2017-02-26T10:39:56Z</time>
      </trkpt>
      <trkpt lat="45.31726" lon="1.42453">
        <ele>214</ele>
        <time>2017-02-26T10:39:57Z</time>
      </trkpt>
      <trkpt lat="45.31723" lon="1.42451">
        <ele>212</ele>
        <time>2017-02-26T10:39:58Z</time>
      </trkpt>
      <trkpt lat="45.3172" lon="1.42449">
        <ele>211</ele>
        <time>2017-02-26T10:39:59Z</time>
      </trkpt>
      <trkpt lat="45.31717" lon="1.42449">
        <ele>210</ele>
        <time>2017-02-26T10:40:00Z</time>
      </trkpt>
      <trkpt lat="45.31715" lon="1.4245">
        <ele>209</ele>
        <time>2017-02-26T10:40:01Z</time>
      </trkpt>
      <trkpt lat="45.31716" lon="1.42458">
        <ele>208</ele>
        <time>2017-02-26T10:40:03Z</time>
      </trkpt>
      <trkpt lat="45.31716" lon="1.42469">
        <ele>206</ele>
        <time>2017-02-26T10:40:05Z</time>
      </trkpt>
      <trkpt lat="45.31713" lon="1.42475">
        <ele>205</ele>
        <time>2017-02-26T10:40:06Z</time>
      </trkpt>
      <trkpt lat="45.31711" lon="1.4248">
        <ele>204</ele>
        <time>2017-02-26T10:40:07Z</time>
      </trkpt>
      <trkpt lat="45.31709" lon="1.42486">
        <ele>203</ele>
        <time>2017-02-26T10:40:08Z</time>
      </trkpt>
      <trkpt lat="45.31706" lon="1.42497">
        <ele>202</ele>
        <time>2017-02-26T10:40:10Z</time>
      </trkpt>
      <trkpt lat="45.31705" lon="1.42503">
        <ele>201</ele>
        <time>2017-02-26T10:40:11Z</time>
      </trkpt>
      <trkpt lat="45.31702" lon="1.42508">
        <ele>200</ele>
        <time>2017-02-26T10:40:12Z</time>
      </trkpt>
      <trkpt lat="45.31696" lon="1.42512">
        <ele>198</ele>
        <time>2017-02-26T10:40:14Z</time>
      </trkpt>
      <trkpt lat="45.31693" lon="1.42512">
        <ele>197</ele>
        <time>2017-02-26T10:40:16Z</time>
      </trkpt>
      <trkpt lat="45.31688" lon="1.42512">
        <ele>195</ele>
        <time>2017-02-26T10:40:18Z</time>
      </trkpt>
      <trkpt lat="45.31679" lon="1.42515">
        <ele>194</ele>
        <time>2017-02-26T10:40:21Z</time>
      </trkpt>
      <trkpt lat="45.31672" lon="1.42516">
        <ele>193</ele>
        <time>2017-02-26T10:40:23Z</time>
      </trkpt>
      <trkpt lat="45.31659" lon="1.42516">
        <ele>191</ele>
        <time>2017-02-26T10:40:26Z</time>
      </trkpt>
      <trkpt lat="45.31655" lon="1.42516">
        <ele>191</ele>
        <time>2017-02-26T10:40:27Z</time>
      </trkpt>
      <trkpt lat="45.31647" lon="1.42516">
        <ele>190</ele>
        <time>2017-02-26T10:40:29Z</time>
      </trkpt>
      <trkpt lat="45.31639" lon="1.42516">
        <ele>189</ele>
        <time>2017-02-26T10:40:31Z</time>
      </trkpt>
      <trkpt lat="45.31636" lon="1.42517">
        <ele>189</ele>
        <time>2017-02-26T10:40:32Z</time>
      </trkpt>
      <trkpt lat="45.31634" lon="1.42527">
        <ele>187</ele>
        <time>2017-02-26T10:40:36Z</time>
      </trkpt>
      <trkpt lat="45.31635" lon="1.42533">
        <ele>187</ele>
        <time>2017-02-26T10:40:37Z</time>
      </trkpt>
      <trkpt lat="45.3164" lon="1.4255">
        <ele>186</ele>
        <time>2017-02-26T10:40:40Z</time>
      </trkpt>
      <trkpt lat="45.3164" lon="1.42568">
        <ele>186</ele>
        <time>2017-02-26T10:40:44Z</time>
      </trkpt>
      <trkpt lat="45.3164" lon="1.42572">
        <ele>186</ele>
        <time>2017-02-26T10:40:46Z</time>
      </trkpt>
      <trkpt lat="45.31637" lon="1.42591">
        <ele>187</ele>
        <time>2017-02-26T10:40:59Z</time>
      </trkpt>
      <trkpt lat="45.31637" lon="1.42594">
        <ele>186</ele>
        <time>2017-02-26T10:41:00Z</time>
      </trkpt>
      <trkpt lat="45.31638" lon="1.42604">
        <ele>186</ele>
        <time>2017-02-26T10:41:03Z</time>
      </trkpt>
      <trkpt lat="45.31638" lon="1.42607">
        <ele>185</ele>
        <time>2017-02-26T10:41:04Z</time>
      </trkpt>
      <trkpt lat="45.31636" lon="1.42614">
        <ele>184</ele>
        <time>2017-02-26T10:41:06Z</time>
      </trkpt>
      <trkpt lat="45.31634" lon="1.42618">
        <ele>183</ele>
        <time>2017-02-26T10:41:08Z</time>
      </trkpt>
      <trkpt lat="45.3163" lon="1.4262">
        <ele>183</ele>
        <time>2017-02-26T10:41:09Z</time>
      </trkpt>
      <trkpt lat="45.31623" lon="1.42627">
        <ele>181</ele>
        <time>2017-02-26T10:41:11Z</time>
      </trkpt>
      <trkpt lat="45.31614" lon="1.42633">
        <ele>179</ele>
        <time>2017-02-26T10:41:13Z</time>
      </trkpt>
      <trkpt lat="45.31612" lon="1.42636">
        <ele>178</ele>
        <time>2017-02-26T10:41:14Z</time>
      </trkpt>
      <trkpt lat="45.31608" lon="1.42637">
        <ele>177</ele>
        <time>2017-02-26T10:41:15Z</time>
      </trkpt>
      <trkpt lat="45.31603" lon="1.42639">
        <ele>175</ele>
        <time>2017-02-26T10:41:17Z</time>
      </trkpt>
      <trkpt lat="45.31602" lon="1.42639">
        <ele>173</ele>
        <time>2017-02-26T10:41:18Z</time>
      </trkpt>
      <trkpt lat="45.31586" lon="1.42662">
        <ele>171</ele>
        <time>2017-02-26T10:42:24Z</time>
      </trkpt>
      <trkpt lat="45.31584" lon="1.42663">
        <ele>172</ele>
        <time>2017-02-26T10:42:25Z</time>
      </trkpt>
      <trkpt lat="45.31582" lon="1.42664">
        <ele>173</ele>
        <time>2017-02-26T10:42:26Z</time>
      </trkpt>
      <trkpt lat="45.31576" lon="1.42664">
        <ele>174</ele>
        <time>2017-02-26T10:42:30Z</time>
      </trkpt>
      <trkpt lat="45.31573" lon="1.42661">
        <ele>176</ele>
        <time>2017-02-26T10:42:32Z</time>
      </trkpt>
      <trkpt lat="45.31562" lon="1.4266">
        <ele>176</ele>
        <time>2017-02-26T10:42:35Z</time>
      </trkpt>
      <trkpt lat="45.31558" lon="1.4266">
        <ele>177</ele>
        <time>2017-02-26T10:42:36Z</time>
      </trkpt>
      <trkpt lat="45.31551" lon="1.42658">
        <ele>178</ele>
        <time>2017-02-26T10:42:38Z</time>
      </trkpt>
      <trkpt lat="45.31546" lon="1.42655">
        <ele>179</ele>
        <time>2017-02-26T10:42:40Z</time>
      </trkpt>
      <trkpt lat="45.31544" lon="1.42653">
        <ele>179</ele>
        <time>2017-02-26T10:42:41Z</time>
      </trkpt>
      <trkpt lat="45.31539" lon="1.42652">
        <ele>179</ele>
        <time>2017-02-26T10:42:43Z</time>
      </trkpt>
      <trkpt lat="45.31535" lon="1.42655">
        <ele>179</ele>
        <time>2017-02-26T10:42:45Z</time>
      </trkpt>
      <trkpt lat="45.31532" lon="1.42664">
        <ele>180</ele>
        <time>2017-02-26T10:42:48Z</time>
      </trkpt>
      <trkpt lat="45.3153" lon="1.42668">
        <ele>181</ele>
        <time>2017-02-26T10:42:50Z</time>
      </trkpt>
      <trkpt lat="45.31517" lon="1.42686">
        <ele>182</ele>
        <time>2017-02-26T10:43:06Z</time>
      </trkpt>
      <trkpt lat="45.31511" lon="1.42686">
        <ele>184</ele>
        <time>2017-02-26T10:43:08Z</time>
      </trkpt>
      <trkpt lat="45.31508" lon="1.42687">
        <ele>183</ele>
        <time>2017-02-26T10:43:10Z</time>
      </trkpt>
      <trkpt lat="45.315" lon="1.42695">
        <ele>183</ele>
        <time>2017-02-26T10:43:15Z</time>
      </trkpt>
      <trkpt lat="45.31492" lon="1.42716">
        <ele>187</ele>
        <time>2017-02-26T10:43:25Z</time>
      </trkpt>
      <trkpt lat="45.3149" lon="1.42723">
        <ele>187</ele>
        <time>2017-02-26T10:43:28Z</time>
      </trkpt>
      <trkpt lat="45.31489" lon="1.4273">
        <ele>188</ele>
        <time>2017-02-26T10:43:32Z</time>
      </trkpt>
      <trkpt lat="45.3149" lon="1.42734">
        <ele>189</ele>
        <time>2017-02-26T10:43:34Z</time>
      </trkpt>
      <trkpt lat="45.31491" lon="1.42737">
        <ele>190</ele>
        <time>2017-02-26T10:43:35Z</time>
      </trkpt>
      <trkpt lat="45.31493" lon="1.42741">
        <ele>191</ele>
        <time>2017-02-26T10:43:37Z</time>
      </trkpt>
      <trkpt lat="45.31498" lon="1.42749">
        <ele>190</ele>
        <time>2017-02-26T10:43:40Z</time>
      </trkpt>
      <trkpt lat="45.31507" lon="1.42763">
        <ele>192</ele>
        <time>2017-02-26T10:43:46Z</time>
      </trkpt>
      <trkpt lat="45.31508" lon="1.42764">
        <ele>193</ele>
        <time>2017-02-26T10:43:47Z</time>
      </trkpt>
      <trkpt lat="45.31509" lon="1.42765">
        <ele>193</ele>
        <time>2017-02-26T10:43:48Z</time>
      </trkpt>
      <trkpt lat="45.31512" lon="1.42768">
        <ele>194</ele>
        <time>2017-02-26T10:43:50Z</time>
      </trkpt>
      <trkpt lat="45.31515" lon="1.4277">
        <ele>196</ele>
        <time>2017-02-26T10:43:52Z</time>
      </trkpt>
      <trkpt lat="45.31516" lon="1.42771">
        <ele>197</ele>
        <time>2017-02-26T10:43:53Z</time>
      </trkpt>
      <trkpt lat="45.31517" lon="1.42771">
        <ele>197</ele>
        <time>2017-02-26T10:43:54Z</time>
      </trkpt>
      <trkpt lat="45.31529" lon="1.42776">
        <ele>200</ele>
        <time>2017-02-26T10:44:04Z</time>
      </trkpt>
      <trkpt lat="45.31534" lon="1.42777">
        <ele>200</ele>
        <time>2017-02-26T10:44:07Z</time>
      </trkpt>
      <trkpt lat="45.31538" lon="1.42781">
        <ele>201</ele>
        <time>2017-02-26T10:44:11Z</time>
      </trkpt>
      <trkpt lat="45.31561" lon="1.42848">
        <ele>219</ele>
        <time>2017-02-26T10:44:56Z</time>
      </trkpt>
      <trkpt lat="45.31567" lon="1.42857">
        <ele>220</ele>
        <time>2017-02-26T10:45:00Z</time>
      </trkpt>
      <trkpt lat="45.31573" lon="1.42865">
        <ele>218</ele>
        <time>2017-02-26T10:45:04Z</time>
      </trkpt>
      <trkpt lat="45.31578" lon="1.4287">
        <ele>219</ele>
        <time>2017-02-26T10:45:08Z</time>
      </trkpt>
      <trkpt lat="45.3158" lon="1.42872">
        <ele>219</ele>
        <time>2017-02-26T10:45:09Z</time>
      </trkpt>
      <trkpt lat="45.31587" lon="1.42875">
        <ele>220</ele>
        <time>2017-02-26T10:45:13Z</time>
      </trkpt>
      <trkpt lat="45.31592" lon="1.42876">
        <ele>219</ele>
        <time>2017-02-26T10:45:16Z</time>
      </trkpt>
      <trkpt lat="45.31595" lon="1.42879">
        <ele>219</ele>
        <time>2017-02-26T10:45:18Z</time>
      </trkpt>
      <trkpt lat="45.31601" lon="1.42882">
        <ele>220</ele>
        <time>2017-02-26T10:45:22Z</time>
      </trkpt>
      <trkpt lat="45.31605" lon="1.42883">
        <ele>220</ele>
        <time>2017-02-26T10:45:24Z</time>
      </trkpt>
      <trkpt lat="45.31616" lon="1.42883">
        <ele>221</ele>
        <time>2017-02-26T10:45:30Z</time>
      </trkpt>
      <trkpt lat="45.31618" lon="1.42883">
        <ele>221</ele>
        <time>2017-02-26T10:45:31Z</time>
      </trkpt>
      <trkpt lat="45.31621" lon="1.42882">
        <ele>221</ele>
        <time>2017-02-26T10:45:33Z</time>
      </trkpt>
      <trkpt lat="45.31625" lon="1.42881">
        <ele>221</ele>
        <time>2017-02-26T10:45:35Z</time>
      </trkpt>
      <trkpt lat="45.31636" lon="1.42877">
        <ele>221</ele>
        <time>2017-02-26T10:45:41Z</time>
      </trkpt>
      <trkpt lat="45.31647" lon="1.42876">
        <ele>221</ele>
        <time>2017-02-26T10:45:47Z</time>
      </trkpt>
      <trkpt lat="45.31656" lon="1.42874">
        <ele>221</ele>
        <time>2017-02-26T10:45:52Z</time>
      </trkpt>
      <trkpt lat="45.31658" lon="1.42874">
        <ele>221</ele>
        <time>2017-02-26T10:45:53Z</time>
      </trkpt>
      <trkpt lat="45.31667" lon="1.42872">
        <ele>221</ele>
        <time>2017-02-26T10:45:58Z</time>
      </trkpt>
      <trkpt lat="45.31677" lon="1.42869">
        <ele>222</ele>
        <time>2017-02-26T10:46:03Z</time>
      </trkpt>
      <trkpt lat="45.3168" lon="1.42868">
        <ele>223</ele>
        <time>2017-02-26T10:46:05Z</time>
      </trkpt>
      <trkpt lat="45.31683" lon="1.42868">
        <ele>223</ele>
        <time>2017-02-26T10:46:07Z</time>
      </trkpt>
      <trkpt lat="45.31684" lon="1.42873">
        <ele>224</ele>
        <time>2017-02-26T10:46:11Z</time>
      </trkpt>
      <trkpt lat="45.31684" lon="1.42875">
        <ele>224</ele>
        <time>2017-02-26T10:46:12Z</time>
      </trkpt>
      <trkpt lat="45.31683" lon="1.42881">
        <ele>225</ele>
        <time>2017-02-26T10:46:15Z</time>
      </trkpt>
      <trkpt lat="45.31683" lon="1.42883">
        <ele>225</ele>
        <time>2017-02-26T10:46:16Z</time>
      </trkpt>
      <trkpt lat="45.31681" lon="1.42886">
        <ele>226</ele>
        <time>2017-02-26T10:46:18Z</time>
      </trkpt>
      <trkpt lat="45.31681" lon="1.42889">
        <ele>226</ele>
        <time>2017-02-26T10:46:19Z</time>
      </trkpt>
      <trkpt lat="45.31681" lon="1.42894">
        <ele>227</ele>
        <time>2017-02-26T10:46:21Z</time>
      </trkpt>
      <trkpt lat="45.31683" lon="1.42898">
        <ele>228</ele>
        <time>2017-02-26T10:46:23Z</time>
      </trkpt>
      <trkpt lat="45.31688" lon="1.42897">
        <ele>229</ele>
        <time>2017-02-26T10:46:27Z</time>
      </trkpt>
      <trkpt lat="45.31691" lon="1.42894">
        <ele>229</ele>
        <time>2017-02-26T10:46:29Z</time>
      </trkpt>
      <trkpt lat="45.31694" lon="1.42892">
        <ele>230</ele>
        <time>2017-02-26T10:46:31Z</time>
      </trkpt>
      <trkpt lat="45.317" lon="1.42892">
        <ele>229</ele>
        <time>2017-02-26T10:46:35Z</time>
      </trkpt>
      <trkpt lat="45.3171" lon="1.42886">
        <ele>231</ele>
        <time>2017-02-26T10:46:41Z</time>
      </trkpt>
      <trkpt lat="45.31712" lon="1.42885">
        <ele>232</ele>
        <time>2017-02-26T10:46:42Z</time>
      </trkpt>
      <trkpt lat="45.3172" lon="1.42884">
        <ele>232</ele>
        <time>2017-02-26T10:46:47Z</time>
      </trkpt>
      <trkpt lat="45.31713" lon="1.42903">
        <ele>237</ele>
        <time>2017-02-26T10:46:59Z</time>
      </trkpt>
      <trkpt lat="45.31711" lon="1.42906">
        <ele>238</ele>
        <time>2017-02-26T10:47:01Z</time>
      </trkpt>
      <trkpt lat="45.31711" lon="1.42908">
        <ele>239</ele>
        <time>2017-02-26T10:47:02Z</time>
      </trkpt>
      <trkpt lat="45.31706" lon="1.42917">
        <ele>240</ele>
        <time>2017-02-26T10:47:06Z</time>
      </trkpt>
      <trkpt lat="45.31705" lon="1.42919">
        <ele>240</ele>
        <time>2017-02-26T10:47:07Z</time>
      </trkpt>
      <trkpt lat="45.31682" lon="1.42977">
        <ele>254</ele>
        <time>2017-02-26T10:47:38Z</time>
      </trkpt>
      <trkpt lat="45.31683" lon="1.42977">
        <ele>254</ele>
        <time>2017-02-26T10:47:39Z</time>
      </trkpt>
      <trkpt lat="45.31684" lon="1.42976">
        <ele>255</ele>
        <time>2017-02-26T10:47:40Z</time>
      </trkpt>
      <trkpt lat="45.31688" lon="1.42972">
        <ele>256</ele>
        <time>2017-02-26T10:47:43Z</time>
      </trkpt>
      <trkpt lat="45.31691" lon="1.4297">
        <ele>257</ele>
        <time>2017-02-26T10:47:45Z</time>
      </trkpt>
      <trkpt lat="45.31692" lon="1.42969">
        <ele>257</ele>
        <time>2017-02-26T10:47:46Z</time>
      </trkpt>
      <trkpt lat="45.317" lon="1.42966">
        <ele>258</ele>
        <time>2017-02-26T10:47:51Z</time>
      </trkpt>
      <trkpt lat="45.31709" lon="1.42963">
        <ele>257</ele>
        <time>2017-02-26T10:47:57Z</time>
      </trkpt>
      <trkpt lat="45.31719" lon="1.42958">
        <ele>257</ele>
        <time>2017-02-26T10:48:03Z</time>
      </trkpt>
      <trkpt lat="45.31729" lon="1.42955">
        <ele>256</ele>
        <time>2017-02-26T10:48:09Z</time>
      </trkpt>
      <trkpt lat="45.31736" lon="1.42951">
        <ele>256</ele>
        <time>2017-02-26T10:48:13Z</time>
      </trkpt>
      <trkpt lat="45.31738" lon="1.4295">
        <ele>256</ele>
        <time>2017-02-26T10:48:14Z</time>
      </trkpt>
      <trkpt lat="45.31745" lon="1.4295">
        <ele>255</ele>
        <time>2017-02-26T10:48:18Z</time>
      </trkpt>
      <trkpt lat="45.31747" lon="1.42951">
        <ele>255</ele>
        <time>2017-02-26T10:48:19Z</time>
      </trkpt>
      <trkpt lat="45.31746" lon="1.42959">
        <ele>257</ele>
        <time>2017-02-26T10:48:24Z</time>
      </trkpt>
      <trkpt lat="45.31744" lon="1.42964">
        <ele>257</ele>
        <time>2017-02-26T10:48:27Z</time>
      </trkpt>
      <trkpt lat="45.31742" lon="1.42968">
        <ele>257</ele>
        <time>2017-02-26T10:48:29Z</time>
      </trkpt>
      <trkpt lat="45.31741" lon="1.4297">
        <ele>257</ele>
        <time>2017-02-26T10:48:30Z</time>
      </trkpt>
      <trkpt lat="45.31737" lon="1.42979">
        <ele>259</ele>
        <time>2017-02-26T10:48:35Z</time>
      </trkpt>
      <trkpt lat="45.31732" lon="1.42987">
        <ele>260</ele>
        <time>2017-02-26T10:48:40Z</time>
      </trkpt>
      <trkpt lat="45.31731" lon="1.42989">
        <ele>260</ele>
        <time>2017-02-26T10:48:41Z</time>
      </trkpt>
      <trkpt lat="45.31729" lon="1.42993">
        <ele>261</ele>
        <time>2017-02-26T10:48:43Z</time>
      </trkpt>
      <trkpt lat="45.31725" lon="1.42997">
        <ele>262</ele>
        <time>2017-02-26T10:48:46Z</time>
      </trkpt>
      <trkpt lat="45.31723" lon="1.43">
        <ele>263</ele>
        <time>2017-02-26T10:48:48Z</time>
      </trkpt>
      <trkpt lat="45.3172" lon="1.43002">
        <ele>264</ele>
        <time>2017-02-26T10:48:50Z</time>
      </trkpt>
      <trkpt lat="45.31717" lon="1.43005">
        <ele>266</ele>
        <time>2017-02-26T10:48:52Z</time>
      </trkpt>
      <trkpt lat="45.31712" lon="1.4301">
        <ele>267</ele>
        <time>2017-02-26T10:48:55Z</time>
      </trkpt>
      <trkpt lat="45.3171" lon="1.43013">
        <ele>268</ele>
        <time>2017-02-26T10:48:57Z</time>
      </trkpt>
      <trkpt lat="45.31707" lon="1.43015">
        <ele>270</ele>
        <time>2017-02-26T10:48:59Z</time>
      </trkpt>
      <trkpt lat="45.31688" lon="1.4304">
        <ele>275</ele>
        <time>2017-02-26T10:49:14Z</time>
      </trkpt>
      <trkpt lat="45.31685" lon="1.43044">
        <ele>276</ele>
        <time>2017-02-26T10:49:16Z</time>
      </trkpt>
      <trkpt lat="45.31683" lon="1.43047">
        <ele>277</ele>
        <time>2017-02-26T10:49:18Z</time>
      </trkpt>
      <trkpt lat="45.31681" lon="1.4305">
        <ele>278</ele>
        <time>2017-02-26T10:49:20Z</time>
      </trkpt>
      <trkpt lat="45.31677" lon="1.43053">
        <ele>279</ele>
        <time>2017-02-26T10:49:22Z</time>
      </trkpt>
      <trkpt lat="45.31673" lon="1.43057">
        <ele>280</ele>
        <time>2017-02-26T10:49:24Z</time>
      </trkpt>
      <trkpt lat="45.3167" lon="1.43061">
        <ele>282</ele>
        <time>2017-02-26T10:49:26Z</time>
      </trkpt>
      <trkpt lat="45.31665" lon="1.43067">
        <ele>283</ele>
        <time>2017-02-26T10:49:29Z</time>
      </trkpt>
      <trkpt lat="45.31664" lon="1.43068">
        <ele>284</ele>
        <time>2017-02-26T10:49:30Z</time>
      </trkpt>
      <trkpt lat="45.31663" lon="1.4307">
        <ele>284</ele>
        <time>2017-02-26T10:49:31Z</time>
      </trkpt>
      <trkpt lat="45.31658" lon="1.43074">
        <ele>286</ele>
        <time>2017-02-26T10:49:34Z</time>
      </trkpt>
      <trkpt lat="45.31656" lon="1.43077">
        <ele>287</ele>
        <time>2017-02-26T10:49:36Z</time>
      </trkpt>
      <trkpt lat="45.31654" lon="1.4308">
        <ele>289</ele>
        <time>2017-02-26T10:49:38Z</time>
      </trkpt>
      <trkpt lat="45.31652" lon="1.43082">
        <ele>290</ele>
        <time>2017-02-26T10:49:40Z</time>
      </trkpt>
      <trkpt lat="45.3165" lon="1.43084">
        <ele>292</ele>
        <time>2017-02-26T10:49:42Z</time>
      </trkpt>
      <trkpt lat="45.31647" lon="1.43087">
        <ele>293</ele>
        <time>2017-02-26T10:49:44Z</time>
      </trkpt>
      <trkpt lat="45.31629" lon="1.43104">
        <ele>300</ele>
        <time>2017-02-26T10:49:58Z</time>
      </trkpt>
      <trkpt lat="45.3162" lon="1.4311">
        <ele>303</ele>
        <time>2017-02-26T10:50:05Z</time>
      </trkpt>
      <trkpt lat="45.31618" lon="1.43112">
        <ele>304</ele>
        <time>2017-02-26T10:50:06Z</time>
      </trkpt>
      <trkpt lat="45.31616" lon="1.43113">
        <ele>304</ele>
        <time>2017-02-26T10:50:07Z</time>
      </trkpt>
      <trkpt lat="45.31614" lon="1.43117">
        <ele>305</ele>
        <time>2017-02-26T10:50:09Z</time>
      </trkpt>
      <trkpt lat="45.31609" lon="1.43121">
        <ele>307</ele>
        <time>2017-02-26T10:50:12Z</time>
      </trkpt>
      <trkpt lat="45.31605" lon="1.43123">
        <ele>308</ele>
        <time>2017-02-26T10:50:14Z</time>
      </trkpt>
      <trkpt lat="45.31601" lon="1.43124">
        <ele>310</ele>
        <time>2017-02-26T10:50:17Z</time>
      </trkpt>
      <trkpt lat="45.31597" lon="1.43127">
        <ele>311</ele>
        <time>2017-02-26T10:50:19Z</time>
      </trkpt>
      <trkpt lat="45.31584" lon="1.43134">
        <ele>317</ele>
        <time>2017-02-26T10:50:29Z</time>
      </trkpt>
      <trkpt lat="45.31582" lon="1.43135">
        <ele>318</ele>
        <time>2017-02-26T10:50:30Z</time>
      </trkpt>
      <trkpt lat="45.31581" lon="1.43136">
        <ele>318</ele>
        <time>2017-02-26T10:50:31Z</time>
      </trkpt>
      <trkpt lat="45.31579" lon="1.43137">
        <ele>319</ele>
        <time>2017-02-26T10:50:32Z</time>
      </trkpt>
      <trkpt lat="45.31575" lon="1.4314">
        <ele>321</ele>
        <time>2017-02-26T10:50:35Z</time>
      </trkpt>
      <trkpt lat="45.31573" lon="1.43141">
        <ele>321</ele>
        <time>2017-02-26T10:50:36Z</time>
      </trkpt>
      <trkpt lat="45.31571" lon="1.43142">
        <ele>322</ele>
        <time>2017-02-26T10:50:37Z</time>
      </trkpt>
      <trkpt lat="45.31568" lon="1.43142">
        <ele>324</ele>
        <time>2017-02-26T10:50:39Z</time>
      </trkpt>
      <trkpt lat="45.31565" lon="1.43144">
        <ele>326</ele>
        <time>2017-02-26T10:50:41Z</time>
      </trkpt>
      <trkpt lat="45.31564" lon="1.43145">
        <ele>327</ele>
        <time>2017-02-26T10:50:42Z</time>
      </trkpt>
      <trkpt lat="45.3156" lon="1.43147">
        <ele>329</ele>
        <time>2017-02-26T10:50:44Z</time>
      </trkpt>
      <trkpt lat="45.31558" lon="1.43149">
        <ele>330</ele>
        <time>2017-02-26T10:50:46Z</time>
      </trkpt>
      <trkpt lat="45.31554" lon="1.43151">
        <ele>332</ele>
        <time>2017-02-26T10:50:48Z</time>
      </trkpt>
      <trkpt lat="45.31552" lon="1.43152">
        <ele>332</ele>
        <time>2017-02-26T10:50:49Z</time>
      </trkpt>
      <trkpt lat="45.3155" lon="1.43153">
        <ele>333</ele>
        <time>2017-02-26T10:50:50Z</time>
      </trkpt>
      <trkpt lat="45.31548" lon="1.43154">
        <ele>335</ele>
        <time>2017-02-26T10:50:51Z</time>
      </trkpt>
      <trkpt lat="45.31547" lon="1.43155">
        <ele>336</ele>
        <time>2017-02-26T10:50:52Z</time>
      </trkpt>
      <trkpt lat="45.31545" lon="1.43156">
        <ele>337</ele>
        <time>2017-02-26T10:50:53Z</time>
      </trkpt>
      <trkpt lat="45.31544" lon="1.43157">
        <ele>338</ele>
        <time>2017-02-26T10:50:54Z</time>
      </trkpt>
      <trkpt lat="45.31539" lon="1.43159">
        <ele>341</ele>
        <time>2017-02-26T10:50:58Z</time>
      </trkpt>
      <trkpt lat="45.31534" lon="1.43157">
        <ele>342</ele>
        <time>2017-02-26T10:51:01Z</time>
      </trkpt>
      <trkpt lat="45.3153" lon="1.43156">
        <ele>343</ele>
        <time>2017-02-26T10:51:03Z</time>
      </trkpt>
      <trkpt lat="45.31526" lon="1.43156">
        <ele>344</ele>
        <time>2017-02-26T10:51:05Z</time>
      </trkpt>
      <trkpt lat="45.31519" lon="1.43154">
        <ele>346</ele>
        <time>2017-02-26T10:51:08Z</time>
      </trkpt>
      <trkpt lat="45.31517" lon="1.43154">
        <ele>346</ele>
        <time>2017-02-26T10:51:09Z</time>
      </trkpt>
      <trkpt lat="45.31515" lon="1.43154">
        <ele>347</ele>
        <time>2017-02-26T10:51:10Z</time>
      </trkpt>
      <trkpt lat="45.31509" lon="1.43155">
        <ele>349</ele>
        <time>2017-02-26T10:51:12Z</time>
      </trkpt>
      <trkpt lat="45.31504" lon="1.43156">
        <ele>350</ele>
        <time>2017-02-26T10:51:14Z</time>
      </trkpt>
      <trkpt lat="45.31502" lon="1.43156">
        <ele>350</ele>
        <time>2017-02-26T10:51:15Z</time>
      </trkpt>
      <trkpt lat="45.31497" lon="1.43157">
        <ele>351</ele>
        <time>2017-02-26T10:51:17Z</time>
      </trkpt>
      <trkpt lat="45.31491" lon="1.43159">
        <ele>353</ele>
        <time>2017-02-26T10:51:19Z</time>
      </trkpt>
      <trkpt lat="45.31486" lon="1.4316">
        <ele>354</ele>
        <time>2017-02-26T10:51:21Z</time>
      </trkpt>
      <trkpt lat="45.31479" lon="1.43162">
        <ele>355</ele>
        <time>2017-02-26T10:51:24Z</time>
      </trkpt>
      <trkpt lat="45.31475" lon="1.43163">
        <ele>355</ele>
        <time>2017-02-26T10:51:25Z</time>
      </trkpt>
      <trkpt lat="45.31459" lon="1.43169">
        <ele>355</ele>
        <time>2017-02-26T10:51:29Z</time>
      </trkpt>
      <trkpt lat="45.31445" lon="1.43174">
        <ele>355</ele>
        <time>2017-02-26T10:51:33Z</time>
      </trkpt>
      <trkpt lat="45.31441" lon="1.43175">
        <ele>356</ele>
        <time>2017-02-26T10:51:34Z</time>
      </trkpt>
      <trkpt lat="45.31425" lon="1.43182">
        <ele>355</ele>
        <time>2017-02-26T10:51:38Z</time>
      </trkpt>
      <trkpt lat="45.31421" lon="1.43184">
        <ele>354</ele>
        <time>2017-02-26T10:51:39Z</time>
      </trkpt>
      <trkpt lat="45.31418" lon="1.43186">
        <ele>354</ele>
        <time>2017-02-26T10:51:40Z</time>
      </trkpt>
      <trkpt lat="45.31409" lon="1.4319">
        <ele>352</ele>
        <time>2017-02-26T10:51:43Z</time>
      </trkpt>
      <trkpt lat="45.31404" lon="1.43192">
        <ele>351</ele>
        <time>2017-02-26T10:51:45Z</time>
      </trkpt>
      <trkpt lat="45.31398" lon="1.43195">
        <ele>349</ele>
        <time>2017-02-26T10:51:47Z</time>
      </trkpt>
      <trkpt lat="45.31391" lon="1.432">
        <ele>348</ele>
        <time>2017-02-26T10:51:50Z</time>
      </trkpt>
      <trkpt lat="45.31385" lon="1.43204">
        <ele>346</ele>
        <time>2017-02-26T10:51:52Z</time>
      </trkpt>
      <trkpt lat="45.31377" lon="1.43211">
        <ele>345</ele>
        <time>2017-02-26T10:51:56Z</time>
      </trkpt>
      <trkpt lat="45.31373" lon="1.43216">
        <ele>344</ele>
        <time>2017-02-26T10:51:58Z</time>
      </trkpt>
      <trkpt lat="45.31371" lon="1.43218">
        <ele>343</ele>
        <time>2017-02-26T10:51:59Z</time>
      </trkpt>
      <trkpt lat="45.31368" lon="1.43222">
        <ele>343</ele>
        <time>2017-02-26T10:52:01Z</time>
      </trkpt>
      <trkpt lat="45.31361" lon="1.4323">
        <ele>342</ele>
        <time>2017-02-26T10:52:06Z</time>
      </trkpt>
      <trkpt lat="45.31358" lon="1.43234">
        <ele>342</ele>
        <time>2017-02-26T10:52:08Z</time>
      </trkpt>
      <trkpt lat="45.31355" lon="1.43238">
        <ele>341</ele>
        <time>2017-02-26T10:52:10Z</time>
      </trkpt>
      <trkpt lat="45.31353" lon="1.43239">
        <ele>341</ele>
        <time>2017-02-26T10:52:11Z</time>
      </trkpt>
      <trkpt lat="45.31351" lon="1.43241">
        <ele>340</ele>
        <time>2017-02-26T10:52:12Z</time>
      </trkpt>
      <trkpt lat="45.31345" lon="1.43246">
        <ele>339</ele>
        <time>2017-02-26T10:52:15Z</time>
      </trkpt>
      <trkpt lat="45.31343" lon="1.43248">
        <ele>339</ele>
        <time>2017-02-26T10:52:17Z</time>
      </trkpt>
      <trkpt lat="45.31312" lon="1.43283">
        <ele>342</ele>
        <time>2017-02-26T10:52:46Z</time>
      </trkpt>
      <trkpt lat="45.3131" lon="1.43285">
        <ele>343</ele>
        <time>2017-02-26T10:52:48Z</time>
      </trkpt>
      <trkpt lat="45.31308" lon="1.43286">
        <ele>344</ele>
        <time>2017-02-26T10:52:49Z</time>
      </trkpt>
      <trkpt lat="45.31307" lon="1.43286">
        <ele>344</ele>
        <time>2017-02-26T10:52:50Z</time>
      </trkpt>
      <trkpt lat="45.31306" lon="1.43287">
        <ele>344</ele>
        <time>2017-02-26T10:52:51Z</time>
      </trkpt>
      <trkpt lat="45.31283" lon="1.43283">
        <ele>345</ele>
        <time>2017-02-26T10:53:08Z</time>
      </trkpt>
      <trkpt lat="45.31282" lon="1.43283">
        <ele>345</ele>
        <time>2017-02-26T10:53:09Z</time>
      </trkpt>
      <trkpt lat="45.3128" lon="1.43283">
        <ele>345</ele>
        <time>2017-02-26T10:53:10Z</time>
      </trkpt>
      <trkpt lat="45.31277" lon="1.43282">
        <ele>345</ele>
        <time>2017-02-26T10:53:13Z</time>
      </trkpt>
      <trkpt lat="45.31274" lon="1.43283">
        <ele>345</ele>
        <time>2017-02-26T10:53:15Z</time>
      </trkpt>
      <trkpt lat="45.31273" lon="1.43284">
        <ele>346</ele>
        <time>2017-02-26T10:53:16Z</time>
      </trkpt>
      <trkpt lat="45.31261" lon="1.43284">
        <ele>347</ele>
        <time>2017-02-26T10:53:59Z</time>
      </trkpt>
      <trkpt lat="45.31259" lon="1.43284">
        <ele>347</ele>
        <time>2017-02-26T10:54:00Z</time>
      </trkpt>
      <trkpt lat="45.31258" lon="1.43284">
        <ele>348</ele>
        <time>2017-02-26T10:54:01Z</time>
      </trkpt>
      <trkpt lat="45.31249" lon="1.43286">
        <ele>347</ele>
        <time>2017-02-26T10:54:06Z</time>
      </trkpt>
      <trkpt lat="45.31245" lon="1.43287">
        <ele>347</ele>
        <time>2017-02-26T10:54:08Z</time>
      </trkpt>
      <trkpt lat="45.31239" lon="1.43288">
        <ele>347</ele>
        <time>2017-02-26T10:54:11Z</time>
      </trkpt>
      <trkpt lat="45.31234" lon="1.43288">
        <ele>347</ele>
        <time>2017-02-26T10:54:14Z</time>
      </trkpt>
      <trkpt lat="45.31229" lon="1.43288">
        <ele>347</ele>
        <time>2017-02-26T10:54:16Z</time>
      </trkpt>
      <trkpt lat="45.31225" lon="1.43287">
        <ele>347</ele>
        <time>2017-02-26T10:54:18Z</time>
      </trkpt>
      <trkpt lat="45.31219" lon="1.43287">
        <ele>347</ele>
        <time>2017-02-26T10:54:21Z</time>
      </trkpt>
      <trkpt lat="45.3121" lon="1.43286">
        <ele>346</ele>
        <time>2017-02-26T10:54:26Z</time>
      </trkpt>
      <trkpt lat="45.31209" lon="1.43286">
        <ele>345</ele>
        <time>2017-02-26T10:54:27Z</time>
      </trkpt>
      <trkpt lat="45.31202" lon="1.43288">
        <ele>345</ele>
        <time>2017-02-26T10:54:31Z</time>
      </trkpt>
      <trkpt lat="45.312" lon="1.43288">
        <ele>345</ele>
        <time>2017-02-26T10:54:32Z</time>
      </trkpt>
      <trkpt lat="45.31174" lon="1.43309">
        <ele>349</ele>
        <time>2017-02-26T10:55:10Z</time>
      </trkpt>
      <trkpt lat="45.31176" lon="1.43311">
        <ele>349</ele>
        <time>2017-02-26T10:55:12Z</time>
      </trkpt>
      <trkpt lat="45.31179" lon="1.43312">
        <ele>348</ele>
        <time>2017-02-26T10:55:14Z</time>
      </trkpt>
      <trkpt lat="45.3118" lon="1.43313">
        <ele>348</ele>
        <time>2017-02-26T10:55:15Z</time>
      </trkpt>
      <trkpt lat="45.31182" lon="1.43314">
        <ele>348</ele>
        <time>2017-02-26T10:55:17Z</time>
      </trkpt>
      <trkpt lat="45.31205" lon="1.43323">
        <ele>348</ele>
        <time>2017-02-26T11:00:26Z</time>
      </trkpt>
      <trkpt lat="45.31211" lon="1.43327">
        <ele>348</ele>
        <time>2017-02-26T11:00:30Z</time>
      </trkpt>
      <trkpt lat="45.31222" lon="1.43334">
        <ele>348</ele>
        <time>2017-02-26T11:00:38Z</time>
      </trkpt>
      <trkpt lat="45.31222" lon="1.43338">
        <ele>348</ele>
        <time>2017-02-26T11:00:41Z</time>
      </trkpt>
      <trkpt lat="45.31221" lon="1.4334">
        <ele>349</ele>
        <time>2017-02-26T11:00:43Z</time>
      </trkpt>
      <trkpt lat="45.31219" lon="1.43342">
        <ele>349</ele>
        <time>2017-02-26T11:00:45Z</time>
      </trkpt>
      <trkpt lat="45.31216" lon="1.43343">
        <ele>351</ele>
        <time>2017-02-26T11:00:47Z</time>
      </trkpt>
      <trkpt lat="45.31214" lon="1.43342">
        <ele>352</ele>
        <time>2017-02-26T11:00:49Z</time>
      </trkpt>
      <trkpt lat="45.31213" lon="1.43342">
        <ele>352</ele>
        <time>2017-02-26T11:00:51Z</time>
      </trkpt>
      <trkpt lat="45.31211" lon="1.43342">
        <ele>353</ele>
        <time>2017-02-26T11:00:52Z</time>
      </trkpt>
      <trkpt lat="45.31209" lon="1.43343">
        <ele>353</ele>
        <time>2017-02-26T11:00:54Z</time>
      </trkpt>
      <trkpt lat="45.31206" lon="1.43343">
        <ele>354</ele>
        <time>2017-02-26T11:00:57Z</time>
      </trkpt>
      <trkpt lat="45.31202" lon="1.43345">
        <ele>356</ele>
        <time>2017-02-26T11:01:00Z</time>
      </trkpt>
      <trkpt lat="45.31198" lon="1.43346">
        <ele>357</ele>
        <time>2017-02-26T11:01:02Z</time>
      </trkpt>
      <trkpt lat="45.31193" lon="1.43347">
        <ele>357</ele>
        <time>2017-02-26T11:01:05Z</time>
      </trkpt>
      <trkpt lat="45.31188" lon="1.43347">
        <ele>357</ele>
        <time>2017-02-26T11:01:07Z</time>
      </trkpt>
      <trkpt lat="45.31183" lon="1.43348">
        <ele>358</ele>
        <time>2017-02-26T11:01:09Z</time>
      </trkpt>
      <trkpt lat="45.31177" lon="1.43352">
        <ele>359</ele>
        <time>2017-02-26T11:01:12Z</time>
      </trkpt>
      <trkpt lat="45.31167" lon="1.43356">
        <ele>360</ele>
        <time>2017-02-26T11:01:16Z</time>
      </trkpt>
      <trkpt lat="45.31164" lon="1.43357">
        <ele>361</ele>
        <time>2017-02-26T11:01:17Z</time>
      </trkpt>
      <trkpt lat="45.31159" lon="1.43359">
        <ele>362</ele>
        <time>2017-02-26T11:01:19Z</time>
      </trkpt>
      <trkpt lat="45.31153" lon="1.43362">
        <ele>363</ele>
        <time>2017-02-26T11:01:21Z</time>
      </trkpt>
      <trkpt lat="45.31145" lon="1.43368">
        <ele>363</ele>
        <time>2017-02-26T11:01:24Z</time>
      </trkpt>
      <trkpt lat="45.3113" lon="1.43376">
        <ele>362</ele>
        <time>2017-02-26T11:01:28Z</time>
      </trkpt>
      <trkpt lat="45.31122" lon="1.4338">
        <ele>361</ele>
        <time>2017-02-26T11:01:30Z</time>
      </trkpt>
      <trkpt lat="45.31115" lon="1.43385">
        <ele>360</ele>
        <time>2017-02-26T11:01:32Z</time>
      </trkpt>
      <trkpt lat="45.31098" lon="1.43396">
        <ele>359</ele>
        <time>2017-02-26T11:01:38Z</time>
      </trkpt>
      <trkpt lat="45.31095" lon="1.43398">
        <ele>359</ele>
        <time>2017-02-26T11:01:39Z</time>
      </trkpt>
      <trkpt lat="45.31076" lon="1.43411">
        <ele>358</ele>
        <time>2017-02-26T11:01:45Z</time>
      </trkpt>
      <trkpt lat="45.31073" lon="1.43415">
        <ele>358</ele>
        <time>2017-02-26T11:01:46Z</time>
      </trkpt>
      <trkpt lat="45.31069" lon="1.43424">
        <ele>356</ele>
        <time>2017-02-26T11:01:48Z</time>
      </trkpt>
      <trkpt lat="45.31067" lon="1.43433">
        <ele>355</ele>
        <time>2017-02-26T11:01:50Z</time>
      </trkpt>
      <trkpt lat="45.31054" lon="1.43449">
        <ele>355</ele>
        <time>2017-02-26T11:01:56Z</time>
      </trkpt>
      <trkpt lat="45.31047" lon="1.43444">
        <ele>354</ele>
        <time>2017-02-26T11:01:59Z</time>
      </trkpt>
      <trkpt lat="45.31045" lon="1.43441">
        <ele>354</ele>
        <time>2017-02-26T11:02:00Z</time>
      </trkpt>
      <trkpt lat="45.3104" lon="1.43428">
        <ele>353</ele>
        <time>2017-02-26T11:02:04Z</time>
      </trkpt>
      <trkpt lat="45.31036" lon="1.4342">
        <ele>352</ele>
        <time>2017-02-26T11:02:07Z</time>
      </trkpt>
      <trkpt lat="45.31029" lon="1.43414">
        <ele>350</ele>
        <time>2017-02-26T11:02:10Z</time>
      </trkpt>
      <trkpt lat="45.31024" lon="1.43411">
        <ele>349</ele>
        <time>2017-02-26T11:02:12Z</time>
      </trkpt>
      <trkpt lat="45.31019" lon="1.43409">
        <ele>348</ele>
        <time>2017-02-26T11:02:14Z</time>
      </trkpt>
      <trkpt lat="45.31011" lon="1.43406">
        <ele>347</ele>
        <time>2017-02-26T11:02:17Z</time>
      </trkpt>
      <trkpt lat="45.31009" lon="1.43405">
        <ele>347</ele>
        <time>2017-02-26T11:02:18Z</time>
      </trkpt>
      <trkpt lat="45.30998" lon="1.434">
        <ele>346</ele>
        <time>2017-02-26T11:02:22Z</time>
      </trkpt>
      <trkpt lat="45.30984" lon="1.43398">
        <ele>346</ele>
        <time>2017-02-26T11:02:26Z</time>
      </trkpt>
      <trkpt lat="45.30967" lon="1.43397">
        <ele>346</ele>
        <time>2017-02-26T11:02:30Z</time>
      </trkpt>
      <trkpt lat="45.30958" lon="1.43396">
        <ele>346</ele>
        <time>2017-02-26T11:02:32Z</time>
      </trkpt>
      <trkpt lat="45.30953" lon="1.43396">
        <ele>345</ele>
        <time>2017-02-26T11:02:33Z</time>
      </trkpt>
      <trkpt lat="45.30945" lon="1.43394">
        <ele>345</ele>
        <time>2017-02-26T11:02:35Z</time>
      </trkpt>
      <trkpt lat="45.30941" lon="1.43393">
        <ele>344</ele>
        <time>2017-02-26T11:02:36Z</time>
      </trkpt>
      <trkpt lat="45.30929" lon="1.43386">
        <ele>343</ele>
        <time>2017-02-26T11:02:39Z</time>
      </trkpt>
      <trkpt lat="45.30926" lon="1.43382">
        <ele>342</ele>
        <time>2017-02-26T11:02:40Z</time>
      </trkpt>
      <trkpt lat="45.3092" lon="1.43365">
        <ele>341</ele>
        <time>2017-02-26T11:02:44Z</time>
      </trkpt>
      <trkpt lat="45.30917" lon="1.43361">
        <ele>341</ele>
        <time>2017-02-26T11:02:45Z</time>
      </trkpt>
      <trkpt lat="45.30914" lon="1.43359">
        <ele>341</ele>
        <time>2017-02-26T11:02:46Z</time>
      </trkpt>
      <trkpt lat="45.30909" lon="1.43358">
        <ele>341</ele>
        <time>2017-02-26T11:02:48Z</time>
      </trkpt>
      <trkpt lat="45.30899" lon="1.43361">
        <ele>343</ele>
        <time>2017-02-26T11:02:52Z</time>
      </trkpt>
      <trkpt lat="45.30893" lon="1.43363">
        <ele>344</ele>
        <time>2017-02-26T11:02:54Z</time>
      </trkpt>
      <trkpt lat="45.30886" lon="1.43366">
        <ele>345</ele>
        <time>2017-02-26T11:02:56Z</time>
      </trkpt>
      <trkpt lat="45.30879" lon="1.4337">
        <ele>346</ele>
        <time>2017-02-26T11:02:58Z</time>
      </trkpt>
      <trkpt lat="45.30873" lon="1.43373">
        <ele>348</ele>
        <time>2017-02-26T11:03:00Z</time>
      </trkpt>
      <trkpt lat="45.30867" lon="1.43375">
        <ele>349</ele>
        <time>2017-02-26T11:03:02Z</time>
      </trkpt>
      <trkpt lat="45.30861" lon="1.43377">
        <ele>350</ele>
        <time>2017-02-26T11:03:04Z</time>
      </trkpt>
      <trkpt lat="45.30854" lon="1.43379">
        <ele>352</ele>
        <time>2017-02-26T11:03:06Z</time>
      </trkpt>
      <trkpt lat="45.30846" lon="1.43383">
        <ele>353</ele>
        <time>2017-02-26T11:03:09Z</time>
      </trkpt>
      <trkpt lat="45.30841" lon="1.43385">
        <ele>354</ele>
        <time>2017-02-26T11:03:11Z</time>
      </trkpt>
      <trkpt lat="45.30838" lon="1.43386">
        <ele>354</ele>
        <time>2017-02-26T11:03:12Z</time>
      </trkpt>
      <trkpt lat="45.30833" lon="1.43386">
        <ele>355</ele>
        <time>2017-02-26T11:03:14Z</time>
      </trkpt>
      <trkpt lat="45.30828" lon="1.43386">
        <ele>356</ele>
        <time>2017-02-26T11:03:16Z</time>
      </trkpt>
      <trkpt lat="45.30826" lon="1.43387">
        <ele>357</ele>
        <time>2017-02-26T11:03:17Z</time>
      </trkpt>
      <trkpt lat="45.30823" lon="1.43388">
        <ele>358</ele>
        <time>2017-02-26T11:03:19Z</time>
      </trkpt>
      <trkpt lat="45.30821" lon="1.43385">
        <ele>359</ele>
        <time>2017-02-26T11:06:40Z</time>
      </trkpt>
      <trkpt lat="45.3082" lon="1.43383">
        <ele>359</ele>
        <time>2017-02-26T11:06:41Z</time>
      </trkpt>
      <trkpt lat="45.30815" lon="1.43369">
        <ele>359</ele>
        <time>2017-02-26T11:06:45Z</time>
      </trkpt>
      <trkpt lat="45.30811" lon="1.43344">
        <ele>360</ele>
        <time>2017-02-26T11:06:52Z</time>
      </trkpt>
      <trkpt lat="45.3081" lon="1.43338">
        <ele>360</ele>
        <time>2017-02-26T11:06:54Z</time>
      </trkpt>
      <trkpt lat="45.30808" lon="1.43332">
        <ele>361</ele>
        <time>2017-02-26T11:06:56Z</time>
      </trkpt>
      <trkpt lat="45.30803" lon="1.43314">
        <ele>362</ele>
        <time>2017-02-26T11:07:02Z</time>
      </trkpt>
      <trkpt lat="45.30797" lon="1.4329">
        <ele>363</ele>
        <time>2017-02-26T11:07:09Z</time>
      </trkpt>
      <trkpt lat="45.30792" lon="1.43274">
        <ele>362</ele>
        <time>2017-02-26T11:07:15Z</time>
      </trkpt>
      <trkpt lat="45.30786" lon="1.43254">
        <ele>362</ele>
        <time>2017-02-26T11:07:21Z</time>
      </trkpt>
      <trkpt lat="45.30776" lon="1.43231">
        <ele>362</ele>
        <time>2017-02-26T11:07:28Z</time>
      </trkpt>
      <trkpt lat="45.30774" lon="1.43218">
        <ele>363</ele>
        <time>2017-02-26T11:07:32Z</time>
      </trkpt>
      <trkpt lat="45.30775" lon="1.43215">
        <ele>364</ele>
        <time>2017-02-26T11:07:33Z</time>
      </trkpt>
      <trkpt lat="45.30781" lon="1.43212">
        <ele>365</ele>
        <time>2017-02-26T11:07:36Z</time>
      </trkpt>
      <trkpt lat="45.30784" lon="1.43211">
        <ele>365</ele>
        <time>2017-02-26T11:07:37Z</time>
      </trkpt>
      <trkpt lat="45.30787" lon="1.43211">
        <ele>366</ele>
        <time>2017-02-26T11:07:38Z</time>
      </trkpt>
      <trkpt lat="45.30789" lon="1.43211">
        <ele>366</ele>
        <time>2017-02-26T11:07:39Z</time>
      </trkpt>
      <trkpt lat="45.30794" lon="1.4321">
        <ele>367</ele>
        <time>2017-02-26T11:07:41Z</time>
      </trkpt>
      <trkpt lat="45.30796" lon="1.43209">
        <ele>368</ele>
        <time>2017-02-26T11:07:42Z</time>
      </trkpt>
      <trkpt lat="45.30798" lon="1.43208">
        <ele>369</ele>
        <time>2017-02-26T11:07:43Z</time>
      </trkpt>
      <trkpt lat="45.308" lon="1.43207">
        <ele>369</ele>
        <time>2017-02-26T11:07:44Z</time>
      </trkpt>
      <trkpt lat="45.30807" lon="1.43203">
        <ele>370</ele>
        <time>2017-02-26T11:07:47Z</time>
      </trkpt>
      <trkpt lat="45.30814" lon="1.43198">
        <ele>371</ele>
        <time>2017-02-26T11:07:50Z</time>
      </trkpt>
      <trkpt lat="45.30836" lon="1.43184">
        <ele>372</ele>
        <time>2017-02-26T11:07:59Z</time>
      </trkpt>
      <trkpt lat="45.30851" lon="1.4317">
        <ele>372</ele>
        <time>2017-02-26T11:08:06Z</time>
      </trkpt>
      <trkpt lat="45.30855" lon="1.43159">
        <ele>372</ele>
        <time>2017-02-26T11:08:12Z</time>
      </trkpt>
      <trkpt lat="45.3085" lon="1.43146">
        <ele>371</ele>
        <time>2017-02-26T11:08:18Z</time>
      </trkpt>
      <trkpt lat="45.30837" lon="1.43128">
        <ele>371</ele>
        <time>2017-02-26T11:08:26Z</time>
      </trkpt>
      <trkpt lat="45.30823" lon="1.43106">
        <ele>371</ele>
        <time>2017-02-26T11:08:34Z</time>
      </trkpt>
      <trkpt lat="45.30806" lon="1.4308">
        <ele>371</ele>
        <time>2017-02-26T11:08:42Z</time>
      </trkpt>
      <trkpt lat="45.30788" lon="1.43049">
        <ele>370</ele>
        <time>2017-02-26T11:08:51Z</time>
      </trkpt>
      <trkpt lat="45.30767" lon="1.4302">
        <ele>370</ele>
        <time>2017-02-26T11:09:00Z</time>
      </trkpt>
      <trkpt lat="45.30747" lon="1.42989">
        <ele>371</ele>
        <time>2017-02-26T11:09:09Z</time>
      </trkpt>
      <trkpt lat="45.30729" lon="1.42961">
        <ele>372</ele>
        <time>2017-02-26T11:09:18Z</time>
      </trkpt>
      <trkpt lat="45.30717" lon="1.42942">
        <ele>372</ele>
        <time>2017-02-26T11:09:24Z</time>
      </trkpt>
      <trkpt lat="45.3071" lon="1.42932">
        <ele>372</ele>
        <time>2017-02-26T11:09:27Z</time>
      </trkpt>
      <trkpt lat="45.30695" lon="1.42906">
        <ele>372</ele>
        <time>2017-02-26T11:09:33Z</time>
      </trkpt>
      <trkpt lat="45.3069" lon="1.42897">
        <ele>371</ele>
        <time>2017-02-26T11:09:35Z</time>
      </trkpt>
      <trkpt lat="45.30682" lon="1.42881">
        <ele>370</ele>
        <time>2017-02-26T11:09:39Z</time>
      </trkpt>
      <trkpt lat="45.30678" lon="1.42875">
        <ele>369</ele>
        <time>2017-02-26T11:09:41Z</time>
      </trkpt>
      <trkpt lat="45.30678" lon="1.42866">
        <ele>369</ele>
        <time>2017-02-26T11:09:43Z</time>
      </trkpt>
      <trkpt lat="45.30679" lon="1.42857">
        <ele>368</ele>
        <time>2017-02-26T11:09:45Z</time>
      </trkpt>
      <trkpt lat="45.30683" lon="1.42842">
        <ele>367</ele>
        <time>2017-02-26T11:09:49Z</time>
      </trkpt>
      <trkpt lat="45.30688" lon="1.42828">
        <ele>367</ele>
        <time>2017-02-26T11:09:53Z</time>
      </trkpt>
      <trkpt lat="45.30703" lon="1.42798">
        <ele>368</ele>
        <time>2017-02-26T11:10:01Z</time>
      </trkpt>
      <trkpt lat="45.30708" lon="1.42787">
        <ele>369</ele>
        <time>2017-02-26T11:10:04Z</time>
      </trkpt>
      <trkpt lat="45.30711" lon="1.42767">
        <ele>369</ele>
        <time>2017-02-26T11:10:09Z</time>
      </trkpt>
      <trkpt lat="45.30703" lon="1.42754">
        <ele>368</ele>
        <time>2017-02-26T11:10:13Z</time>
      </trkpt>
      <trkpt lat="45.307" lon="1.42755">
        <ele>367</ele>
        <time>2017-02-26T11:10:14Z</time>
      </trkpt>
      <trkpt lat="45.30689" lon="1.42759">
        <ele>367</ele>
        <time>2017-02-26T11:10:17Z</time>
      </trkpt>
      <trkpt lat="45.30685" lon="1.4276">
        <ele>366</ele>
        <time>2017-02-26T11:10:18Z</time>
      </trkpt>
      <trkpt lat="45.30675" lon="1.42761">
        <ele>365</ele>
        <time>2017-02-26T11:10:21Z</time>
      </trkpt>
      <trkpt lat="45.30669" lon="1.4276">
        <ele>364</ele>
        <time>2017-02-26T11:10:22Z</time>
      </trkpt>
      <trkpt lat="45.30662" lon="1.4276">
        <ele>364</ele>
        <time>2017-02-26T11:10:23Z</time>
      </trkpt>
      <trkpt lat="45.30653" lon="1.42759">
        <ele>363</ele>
        <time>2017-02-26T11:10:25Z</time>
      </trkpt>
      <trkpt lat="45.30648" lon="1.42761">
        <ele>363</ele>
        <time>2017-02-26T11:10:26Z</time>
      </trkpt>
      <trkpt lat="45.30644" lon="1.42763">
        <ele>363</ele>
        <time>2017-02-26T11:10:27Z</time>
      </trkpt>
      <trkpt lat="45.30631" lon="1.42776">
        <ele>361</ele>
        <time>2017-02-26T11:10:30Z</time>
      </trkpt>
      <trkpt lat="45.30627" lon="1.42782">
        <ele>361</ele>
        <time>2017-02-26T11:10:31Z</time>
      </trkpt>
      <trkpt lat="45.30622" lon="1.42787">
        <ele>360</ele>
        <time>2017-02-26T11:10:32Z</time>
      </trkpt>
      <trkpt lat="45.3061" lon="1.428">
        <ele>359</ele>
        <time>2017-02-26T11:10:34Z</time>
      </trkpt>
      <trkpt lat="45.30598" lon="1.42811">
        <ele>358</ele>
        <time>2017-02-26T11:10:36Z</time>
      </trkpt>
      <trkpt lat="45.30585" lon="1.42819">
        <ele>357</ele>
        <time>2017-02-26T11:10:38Z</time>
      </trkpt>
      <trkpt lat="45.30579" lon="1.42822">
        <ele>356</ele>
        <time>2017-02-26T11:10:39Z</time>
      </trkpt>
      <trkpt lat="45.30561" lon="1.42831">
        <ele>355</ele>
        <time>2017-02-26T11:10:42Z</time>
      </trkpt>
      <trkpt lat="45.30549" lon="1.42836">
        <ele>354</ele>
        <time>2017-02-26T11:10:44Z</time>
      </trkpt>
      <trkpt lat="45.30543" lon="1.42838">
        <ele>354</ele>
        <time>2017-02-26T11:10:45Z</time>
      </trkpt>
      <trkpt lat="45.3052" lon="1.42849">
        <ele>353</ele>
        <time>2017-02-26T11:10:50Z</time>
      </trkpt>
      <trkpt lat="45.30512" lon="1.42851">
        <ele>351</ele>
        <time>2017-02-26T11:10:53Z</time>
      </trkpt>
      <trkpt lat="45.3051" lon="1.42849">
        <ele>351</ele>
        <time>2017-02-26T11:10:54Z</time>
      </trkpt>
      <trkpt lat="45.30508" lon="1.42839">
        <ele>350</ele>
        <time>2017-02-26T11:10:56Z</time>
      </trkpt>
      <trkpt lat="45.30508" lon="1.42833">
        <ele>350</ele>
        <time>2017-02-26T11:10:57Z</time>
      </trkpt>
      <trkpt lat="45.30508" lon="1.42821">
        <ele>349</ele>
        <time>2017-02-26T11:10:59Z</time>
      </trkpt>
      <trkpt lat="45.30505" lon="1.42801">
        <ele>347</ele>
        <time>2017-02-26T11:11:02Z</time>
      </trkpt>
      <trkpt lat="45.30501" lon="1.42788">
        <ele>346</ele>
        <time>2017-02-26T11:11:04Z</time>
      </trkpt>
      <trkpt lat="45.30499" lon="1.42782">
        <ele>345</ele>
        <time>2017-02-26T11:11:05Z</time>
      </trkpt>
      <trkpt lat="45.30496" lon="1.42775">
        <ele>345</ele>
        <time>2017-02-26T11:11:06Z</time>
      </trkpt>
      <trkpt lat="45.30493" lon="1.4277">
        <ele>344</ele>
        <time>2017-02-26T11:11:07Z</time>
      </trkpt>
      <trkpt lat="45.30492" lon="1.42765">
        <ele>343</ele>
        <time>2017-02-26T11:11:08Z</time>
      </trkpt>
      <trkpt lat="45.30489" lon="1.42759">
        <ele>342</ele>
        <time>2017-02-26T11:11:10Z</time>
      </trkpt>
      <trkpt lat="45.30488" lon="1.42758">
        <ele>342</ele>
        <time>2017-02-26T11:11:11Z</time>
      </trkpt>
      <trkpt lat="45.30487" lon="1.42757">
        <ele>341</ele>
        <time>2017-02-26T11:11:12Z</time>
      </trkpt>
      <trkpt lat="45.30485" lon="1.42754">
        <ele>340</ele>
        <time>2017-02-26T11:11:14Z</time>
      </trkpt>
      <trkpt lat="45.30483" lon="1.4275">
        <ele>338</ele>
        <time>2017-02-26T11:11:16Z</time>
      </trkpt>
      <trkpt lat="45.30482" lon="1.42746">
        <ele>337</ele>
        <time>2017-02-26T11:11:18Z</time>
      </trkpt>
      <trkpt lat="45.30478" lon="1.4274">
        <ele>336</ele>
        <time>2017-02-26T11:11:21Z</time>
      </trkpt>
      <trkpt lat="45.30476" lon="1.42738">
        <ele>336</ele>
        <time>2017-02-26T11:11:22Z</time>
      </trkpt>
      <trkpt lat="45.30465" lon="1.42737">
        <ele>335</ele>
        <time>2017-02-26T11:11:26Z</time>
      </trkpt>
      <trkpt lat="45.3045" lon="1.42736">
        <ele>334</ele>
        <time>2017-02-26T11:11:32Z</time>
      </trkpt>
      <trkpt lat="45.30436" lon="1.42736">
        <ele>333</ele>
        <time>2017-02-26T11:11:38Z</time>
      </trkpt>
      <trkpt lat="45.30432" lon="1.4275">
        <ele>332</ele>
        <time>2017-02-26T11:11:42Z</time>
      </trkpt>
      <trkpt lat="45.3043" lon="1.42756">
        <ele>331</ele>
        <time>2017-02-26T11:11:44Z</time>
      </trkpt>
      <trkpt lat="45.30428" lon="1.42769">
        <ele>330</ele>
        <time>2017-02-26T11:11:47Z</time>
      </trkpt>
      <trkpt lat="45.30424" lon="1.42784">
        <ele>329</ele>
        <time>2017-02-26T11:11:51Z</time>
      </trkpt>
      <trkpt lat="45.30422" lon="1.42788">
        <ele>329</ele>
        <time>2017-02-26T11:11:52Z</time>
      </trkpt>
      <trkpt lat="45.30404" lon="1.42805">
        <ele>328</ele>
        <time>2017-02-26T11:11:57Z</time>
      </trkpt>
      <trkpt lat="45.3039" lon="1.4281">
        <ele>327</ele>
        <time>2017-02-26T11:12:00Z</time>
      </trkpt>
      <trkpt lat="45.30379" lon="1.42815">
        <ele>326</ele>
        <time>2017-02-26T11:12:02Z</time>
      </trkpt>
      <trkpt lat="45.30373" lon="1.42818">
        <ele>326</ele>
        <time>2017-02-26T11:12:03Z</time>
      </trkpt>
      <trkpt lat="45.30362" lon="1.42824">
        <ele>325</ele>
        <time>2017-02-26T11:12:05Z</time>
      </trkpt>
      <trkpt lat="45.30354" lon="1.42828">
        <ele>324</ele>
        <time>2017-02-26T11:12:06Z</time>
      </trkpt>
      <trkpt lat="45.30347" lon="1.42831">
        <ele>323</ele>
        <time>2017-02-26T11:12:07Z</time>
      </trkpt>
      <trkpt lat="45.3033" lon="1.42837">
        <ele>322</ele>
        <time>2017-02-26T11:12:09Z</time>
      </trkpt>
      <trkpt lat="45.30314" lon="1.42843">
        <ele>321</ele>
        <time>2017-02-26T11:12:11Z</time>
      </trkpt>
      <trkpt lat="45.30306" lon="1.42846">
        <ele>321</ele>
        <time>2017-02-26T11:12:12Z</time>
      </trkpt>
      <trkpt lat="45.30278" lon="1.42854">
        <ele>320</ele>
        <time>2017-02-26T11:12:16Z</time>
      </trkpt>
      <trkpt lat="45.30267" lon="1.42856">
        <ele>320</ele>
        <time>2017-02-26T11:12:18Z</time>
      </trkpt>
      <trkpt lat="45.30244" lon="1.42853">
        <ele>319</ele>
        <time>2017-02-26T11:12:22Z</time>
      </trkpt>
      <trkpt lat="45.30232" lon="1.42851">
        <ele>318</ele>
        <time>2017-02-26T11:12:24Z</time>
      </trkpt>
      <trkpt lat="45.30218" lon="1.42848">
        <ele>316</ele>
        <time>2017-02-26T11:12:26Z</time>
      </trkpt>
      <trkpt lat="45.30212" lon="1.42847">
        <ele>316</ele>
        <time>2017-02-26T11:12:27Z</time>
      </trkpt>
      <trkpt lat="45.30206" lon="1.42845">
        <ele>315</ele>
        <time>2017-02-26T11:12:28Z</time>
      </trkpt>
      <trkpt lat="45.30191" lon="1.42842">
        <ele>314</ele>
        <time>2017-02-26T11:12:30Z</time>
      </trkpt>
      <trkpt lat="45.30176" lon="1.4284">
        <ele>312</ele>
        <time>2017-02-26T11:12:32Z</time>
      </trkpt>
      <trkpt lat="45.30169" lon="1.42842">
        <ele>311</ele>
        <time>2017-02-26T11:12:33Z</time>
      </trkpt>
      <trkpt lat="45.30163" lon="1.42845">
        <ele>311</ele>
        <time>2017-02-26T11:12:34Z</time>
      </trkpt>
      <trkpt lat="45.3016" lon="1.4285">
        <ele>310</ele>
        <time>2017-02-26T11:12:35Z</time>
      </trkpt>
      <trkpt lat="45.30157" lon="1.42854">
        <ele>310</ele>
        <time>2017-02-26T11:12:36Z</time>
      </trkpt>
      <trkpt lat="45.30155" lon="1.42858">
        <ele>309</ele>
        <time>2017-02-26T11:12:37Z</time>
      </trkpt>
      <trkpt lat="45.30151" lon="1.42864">
        <ele>308</ele>
        <time>2017-02-26T11:12:39Z</time>
      </trkpt>
      <trkpt lat="45.30138" lon="1.42887">
        <ele>308</ele>
        <time>2017-02-26T11:12:46Z</time>
      </trkpt>
      <trkpt lat="45.30126" lon="1.42907">
        <ele>308</ele>
        <time>2017-02-26T11:12:52Z</time>
      </trkpt>
      <trkpt lat="45.3012" lon="1.42915">
        <ele>309</ele>
        <time>2017-02-26T11:12:55Z</time>
      </trkpt>
      <trkpt lat="45.30117" lon="1.42916">
        <ele>309</ele>
        <time>2017-02-26T11:12:56Z</time>
      </trkpt>
      <trkpt lat="45.30103" lon="1.42917">
        <ele>308</ele>
        <time>2017-02-26T11:13:02Z</time>
      </trkpt>
      <trkpt lat="45.30096" lon="1.42917">
        <ele>307</ele>
        <time>2017-02-26T11:13:04Z</time>
      </trkpt>
      <trkpt lat="45.30087" lon="1.42916">
        <ele>306</ele>
        <time>2017-02-26T11:13:06Z</time>
      </trkpt>
      <trkpt lat="45.30078" lon="1.42914">
        <ele>305</ele>
        <time>2017-02-26T11:13:08Z</time>
      </trkpt>
      <trkpt lat="45.30068" lon="1.42913">
        <ele>304</ele>
        <time>2017-02-26T11:13:10Z</time>
      </trkpt>
      <trkpt lat="45.30064" lon="1.42911">
        <ele>303</ele>
        <time>2017-02-26T11:13:11Z</time>
      </trkpt>
      <trkpt lat="45.30059" lon="1.4291">
        <ele>303</ele>
        <time>2017-02-26T11:13:12Z</time>
      </trkpt>
      <trkpt lat="45.30053" lon="1.42907">
        <ele>302</ele>
        <time>2017-02-26T11:13:13Z</time>
      </trkpt>
      <trkpt lat="45.30048" lon="1.42905">
        <ele>301</ele>
        <time>2017-02-26T11:13:14Z</time>
      </trkpt>
      <trkpt lat="45.30038" lon="1.42902">
        <ele>300</ele>
        <time>2017-02-26T11:13:16Z</time>
      </trkpt>
      <trkpt lat="45.30034" lon="1.42902">
        <ele>299</ele>
        <time>2017-02-26T11:13:17Z</time>
      </trkpt>
      <trkpt lat="45.3003" lon="1.42901">
        <ele>298</ele>
        <time>2017-02-26T11:13:18Z</time>
      </trkpt>
      <trkpt lat="45.30024" lon="1.42904">
        <ele>297</ele>
        <time>2017-02-26T11:13:20Z</time>
      </trkpt>
      <trkpt lat="45.3002" lon="1.42906">
        <ele>296</ele>
        <time>2017-02-26T11:13:21Z</time>
      </trkpt>
      <trkpt lat="45.30016" lon="1.42907">
        <ele>295</ele>
        <time>2017-02-26T11:13:22Z</time>
      </trkpt>
      <trkpt lat="45.30012" lon="1.42908">
        <ele>295</ele>
        <time>2017-02-26T11:13:23Z</time>
      </trkpt>
      <trkpt lat="45.30008" lon="1.4291">
        <ele>294</ele>
        <time>2017-02-26T11:13:24Z</time>
      </trkpt>
      <trkpt lat="45.29999" lon="1.42916">
        <ele>293</ele>
        <time>2017-02-26T11:13:26Z</time>
      </trkpt>
      <trkpt lat="45.2999" lon="1.42924">
        <ele>291</ele>
        <time>2017-02-26T11:13:28Z</time>
      </trkpt>
      <trkpt lat="45.29985" lon="1.42929">
        <ele>290</ele>
        <time>2017-02-26T11:13:29Z</time>
      </trkpt>
      <trkpt lat="45.29981" lon="1.42934">
        <ele>289</ele>
        <time>2017-02-26T11:13:30Z</time>
      </trkpt>
      <trkpt lat="45.29978" lon="1.4294">
        <ele>288</ele>
        <time>2017-02-26T11:13:31Z</time>
      </trkpt>
      <trkpt lat="45.29976" lon="1.42946">
        <ele>287</ele>
        <time>2017-02-26T11:13:32Z</time>
      </trkpt>
      <trkpt lat="45.29977" lon="1.42951">
        <ele>286</ele>
        <time>2017-02-26T11:13:33Z</time>
      </trkpt>
      <trkpt lat="45.29977" lon="1.42957">
        <ele>284</ele>
        <time>2017-02-26T11:13:34Z</time>
      </trkpt>
      <trkpt lat="45.29979" lon="1.42962">
        <ele>283</ele>
        <time>2017-02-26T11:13:35Z</time>
      </trkpt>
      <trkpt lat="45.2998" lon="1.42967">
        <ele>282</ele>
        <time>2017-02-26T11:13:36Z</time>
      </trkpt>
      <trkpt lat="45.29981" lon="1.42971">
        <ele>281</ele>
        <time>2017-02-26T11:13:37Z</time>
      </trkpt>
      <trkpt lat="45.29982" lon="1.42975">
        <ele>280</ele>
        <time>2017-02-26T11:13:38Z</time>
      </trkpt>
      <trkpt lat="45.29982" lon="1.42979">
        <ele>278</ele>
        <time>2017-02-26T11:13:39Z</time>
      </trkpt>
      <trkpt lat="45.2998" lon="1.42982">
        <ele>278</ele>
        <time>2017-02-26T11:13:40Z</time>
      </trkpt>
      <trkpt lat="45.29978" lon="1.42983">
        <ele>277</ele>
        <time>2017-02-26T11:13:41Z</time>
      </trkpt>
      <trkpt lat="45.29977" lon="1.42984">
        <ele>276</ele>
        <time>2017-02-26T11:13:42Z</time>
      </trkpt>
      <trkpt lat="45.29973" lon="1.42984">
        <ele>275</ele>
        <time>2017-02-26T11:13:44Z</time>
      </trkpt>
      <trkpt lat="45.29971" lon="1.42983">
        <ele>274</ele>
        <time>2017-02-26T11:13:45Z</time>
      </trkpt>
      <trkpt lat="45.29966" lon="1.42982">
        <ele>273</ele>
        <time>2017-02-26T11:13:47Z</time>
      </trkpt>
      <trkpt lat="45.29959" lon="1.4298">
        <ele>272</ele>
        <time>2017-02-26T11:13:50Z</time>
      </trkpt>
      <trkpt lat="45.29955" lon="1.4298">
        <ele>270</ele>
        <time>2017-02-26T11:13:52Z</time>
      </trkpt>
      <trkpt lat="45.29951" lon="1.42983">
        <ele>269</ele>
        <time>2017-02-26T11:13:54Z</time>
      </trkpt>
      <trkpt lat="45.2995" lon="1.42985">
        <ele>268</ele>
        <time>2017-02-26T11:13:55Z</time>
      </trkpt>
      <trkpt lat="45.2995" lon="1.4299">
        <ele>266</ele>
        <time>2017-02-26T11:13:57Z</time>
      </trkpt>
      <trkpt lat="45.2995" lon="1.42993">
        <ele>265</ele>
        <time>2017-02-26T11:13:58Z</time>
      </trkpt>
      <trkpt lat="45.29951" lon="1.42996">
        <ele>264</ele>
        <time>2017-02-26T11:13:59Z</time>
      </trkpt>
      <trkpt lat="45.29952" lon="1.42999">
        <ele>264</ele>
        <time>2017-02-26T11:14:00Z</time>
      </trkpt>
      <trkpt lat="45.29953" lon="1.43001">
        <ele>263</ele>
        <time>2017-02-26T11:14:01Z</time>
      </trkpt>
      <trkpt lat="45.29958" lon="1.43007">
        <ele>262</ele>
        <time>2017-02-26T11:14:04Z</time>
      </trkpt>
      <trkpt lat="45.29961" lon="1.43012">
        <ele>261</ele>
        <time>2017-02-26T11:14:06Z</time>
      </trkpt>
      <trkpt lat="45.29964" lon="1.43014">
        <ele>261</ele>
        <time>2017-02-26T11:14:07Z</time>
      </trkpt>
      <trkpt lat="45.29975" lon="1.43022">
        <ele>260</ele>
        <time>2017-02-26T11:14:11Z</time>
      </trkpt>
      <trkpt lat="45.2999" lon="1.4303">
        <ele>260</ele>
        <time>2017-02-26T11:14:14Z</time>
      </trkpt>
      <trkpt lat="45.29996" lon="1.43033">
        <ele>260</ele>
        <time>2017-02-26T11:14:15Z</time>
      </trkpt>
      <trkpt lat="45.30009" lon="1.43036">
        <ele>259</ele>
        <time>2017-02-26T11:14:17Z</time>
      </trkpt>
      <trkpt lat="45.30022" lon="1.43039">
        <ele>259</ele>
        <time>2017-02-26T11:14:19Z</time>
      </trkpt>
      <trkpt lat="45.30051" lon="1.43048">
        <ele>259</ele>
        <time>2017-02-26T11:14:24Z</time>
      </trkpt>
      <trkpt lat="45.30057" lon="1.43051">
        <ele>259</ele>
        <time>2017-02-26T11:14:25Z</time>
      </trkpt>
      <trkpt lat="45.30073" lon="1.43057">
        <ele>259</ele>
        <time>2017-02-26T11:14:28Z</time>
      </trkpt>
      <trkpt lat="45.30089" lon="1.43061">
        <ele>258</ele>
        <time>2017-02-26T11:14:32Z</time>
      </trkpt>
      <trkpt lat="45.30109" lon="1.43068">
        <ele>258</ele>
        <time>2017-02-26T11:14:39Z</time>
      </trkpt>
      <trkpt lat="45.30123" lon="1.43077">
        <ele>260</ele>
        <time>2017-02-26T11:14:46Z</time>
      </trkpt>
      <trkpt lat="45.30135" lon="1.43081">
        <ele>260</ele>
        <time>2017-02-26T11:14:52Z</time>
      </trkpt>
      <trkpt lat="45.30142" lon="1.43084">
        <ele>261</ele>
        <time>2017-02-26T11:14:56Z</time>
      </trkpt>
      <trkpt lat="45.30147" lon="1.43088">
        <ele>261</ele>
        <time>2017-02-26T11:14:59Z</time>
      </trkpt>
      <trkpt lat="45.30154" lon="1.43091">
        <ele>262</ele>
        <time>2017-02-26T11:15:03Z</time>
      </trkpt>
      <trkpt lat="45.30157" lon="1.43092">
        <ele>262</ele>
        <time>2017-02-26T11:15:05Z</time>
      </trkpt>
      <trkpt lat="45.30162" lon="1.43095">
        <ele>263</ele>
        <time>2017-02-26T11:15:09Z</time>
      </trkpt>
      <trkpt lat="45.3017" lon="1.43101">
        <ele>265</ele>
        <time>2017-02-26T11:15:14Z</time>
      </trkpt>
      <trkpt lat="45.30176" lon="1.43109">
        <ele>266</ele>
        <time>2017-02-26T11:15:17Z</time>
      </trkpt>
      <trkpt lat="45.30178" lon="1.43112">
        <ele>266</ele>
        <time>2017-02-26T11:15:18Z</time>
      </trkpt>
      <trkpt lat="45.30182" lon="1.43121">
        <ele>266</ele>
        <time>2017-02-26T11:15:25Z</time>
      </trkpt>
      <trkpt lat="45.30184" lon="1.43123">
        <ele>267</ele>
        <time>2017-02-26T11:15:26Z</time>
      </trkpt>
      <trkpt lat="45.30189" lon="1.43132">
        <ele>268</ele>
        <time>2017-02-26T11:15:30Z</time>
      </trkpt>
      <trkpt lat="45.30191" lon="1.43135">
        <ele>268</ele>
        <time>2017-02-26T11:15:31Z</time>
      </trkpt>
      <trkpt lat="45.30196" lon="1.43142">
        <ele>269</ele>
        <time>2017-02-26T11:15:34Z</time>
      </trkpt>
      <trkpt lat="45.302" lon="1.43148">
        <ele>270</ele>
        <time>2017-02-26T11:15:37Z</time>
      </trkpt>
      <trkpt lat="45.30202" lon="1.43149">
        <ele>270</ele>
        <time>2017-02-26T11:15:38Z</time>
      </trkpt>
      <trkpt lat="45.30207" lon="1.43154">
        <ele>272</ele>
        <time>2017-02-26T11:15:41Z</time>
      </trkpt>
      <trkpt lat="45.30208" lon="1.43157">
        <ele>273</ele>
        <time>2017-02-26T11:15:42Z</time>
      </trkpt>
      <trkpt lat="45.30212" lon="1.43162">
        <ele>275</ele>
        <time>2017-02-26T11:15:44Z</time>
      </trkpt>
      <trkpt lat="45.30215" lon="1.43167">
        <ele>276</ele>
        <time>2017-02-26T11:15:46Z</time>
      </trkpt>
      <trkpt lat="45.30219" lon="1.43173">
        <ele>277</ele>
        <time>2017-02-26T11:15:49Z</time>
      </trkpt>
      <trkpt lat="45.3022" lon="1.43174">
        <ele>278</ele>
        <time>2017-02-26T11:15:50Z</time>
      </trkpt>
      <trkpt lat="45.30221" lon="1.43176">
        <ele>278</ele>
        <time>2017-02-26T11:15:51Z</time>
      </trkpt>
      <trkpt lat="45.30222" lon="1.43177">
        <ele>279</ele>
        <time>2017-02-26T11:15:52Z</time>
      </trkpt>
      <trkpt lat="45.30223" lon="1.43179">
        <ele>279</ele>
        <time>2017-02-26T11:15:53Z</time>
      </trkpt>
      <trkpt lat="45.30225" lon="1.43183">
        <ele>280</ele>
        <time>2017-02-26T11:15:55Z</time>
      </trkpt>
      <trkpt lat="45.30226" lon="1.43184">
        <ele>280</ele>
        <time>2017-02-26T11:15:56Z</time>
      </trkpt>
      <trkpt lat="45.30229" lon="1.43188">
        <ele>281</ele>
        <time>2017-02-26T11:15:58Z</time>
      </trkpt>
      <trkpt lat="45.30238" lon="1.43202">
        <ele>281</ele>
        <time>2017-02-26T11:19:51Z</time>
      </trkpt>
      <trkpt lat="45.30249" lon="1.43218">
        <ele>281</ele>
        <time>2017-02-26T11:19:56Z</time>
      </trkpt>
      <trkpt lat="45.30253" lon="1.43223">
        <ele>280</ele>
        <time>2017-02-26T11:20:00Z</time>
      </trkpt>
      <trkpt lat="45.30257" lon="1.43226">
        <ele>280</ele>
        <time>2017-02-26T11:20:02Z</time>
      </trkpt>
      <trkpt lat="45.30265" lon="1.43234">
        <ele>279</ele>
        <time>2017-02-26T11:20:06Z</time>
      </trkpt>
      <trkpt lat="45.30276" lon="1.43242">
        <ele>280</ele>
        <time>2017-02-26T11:20:11Z</time>
      </trkpt>
      <trkpt lat="45.30283" lon="1.43247">
        <ele>281</ele>
        <time>2017-02-26T11:20:14Z</time>
      </trkpt>
      <trkpt lat="45.30287" lon="1.43251">
        <ele>282</ele>
        <time>2017-02-26T11:20:16Z</time>
      </trkpt>
      <trkpt lat="45.30289" lon="1.43253">
        <ele>282</ele>
        <time>2017-02-26T11:20:17Z</time>
      </trkpt>
      <trkpt lat="45.30295" lon="1.43258">
        <ele>283</ele>
        <time>2017-02-26T11:20:20Z</time>
      </trkpt>
      <trkpt lat="45.30297" lon="1.4326">
        <ele>284</ele>
        <time>2017-02-26T11:20:21Z</time>
      </trkpt>
      <trkpt lat="45.30299" lon="1.43262">
        <ele>284</ele>
        <time>2017-02-26T11:20:22Z</time>
      </trkpt>
      <trkpt lat="45.30301" lon="1.43265">
        <ele>284</ele>
        <time>2017-02-26T11:20:23Z</time>
      </trkpt>
      <trkpt lat="45.30305" lon="1.43267">
        <ele>285</ele>
        <time>2017-02-26T11:20:24Z</time>
      </trkpt>
      <trkpt lat="45.30311" lon="1.43271">
        <ele>285</ele>
        <time>2017-02-26T11:20:26Z</time>
      </trkpt>
      <trkpt lat="45.30323" lon="1.4328">
        <ele>286</ele>
        <time>2017-02-26T11:20:31Z</time>
      </trkpt>
      <trkpt lat="45.30328" lon="1.43285">
        <ele>287</ele>
        <time>2017-02-26T11:20:33Z</time>
      </trkpt>
      <trkpt lat="45.30331" lon="1.43289">
        <ele>289</ele>
        <time>2017-02-26T11:20:35Z</time>
      </trkpt>
      <trkpt lat="45.30334" lon="1.43292">
        <ele>290</ele>
        <time>2017-02-26T11:20:37Z</time>
      </trkpt>
      <trkpt lat="45.30337" lon="1.43295">
        <ele>291</ele>
        <time>2017-02-26T11:20:39Z</time>
      </trkpt>
      <trkpt lat="45.3034" lon="1.43299">
        <ele>292</ele>
        <time>2017-02-26T11:20:41Z</time>
      </trkpt>
      <trkpt lat="45.30346" lon="1.43303">
        <ele>292</ele>
        <time>2017-02-26T11:20:44Z</time>
      </trkpt>
      <trkpt lat="45.30347" lon="1.43306">
        <ele>292</ele>
        <time>2017-02-26T11:20:45Z</time>
      </trkpt>
      <trkpt lat="45.30352" lon="1.43315">
        <ele>292</ele>
        <time>2017-02-26T11:20:48Z</time>
      </trkpt>
      <trkpt lat="45.30353" lon="1.4332">
        <ele>291</ele>
        <time>2017-02-26T11:20:49Z</time>
      </trkpt>
      <trkpt lat="45.30357" lon="1.4333">
        <ele>290</ele>
        <time>2017-02-26T11:20:51Z</time>
      </trkpt>
      <trkpt lat="45.30358" lon="1.4334">
        <ele>290</ele>
        <time>2017-02-26T11:20:54Z</time>
      </trkpt>
      <trkpt lat="45.30353" lon="1.43344">
        <ele>290</ele>
        <time>2017-02-26T11:20:57Z</time>
      </trkpt>
      <trkpt lat="45.30351" lon="1.43345">
        <ele>290</ele>
        <time>2017-02-26T11:20:58Z</time>
      </trkpt>
      <trkpt lat="45.30338" lon="1.43346">
        <ele>289</ele>
        <time>2017-02-26T11:21:04Z</time>
      </trkpt>
      <trkpt lat="45.30336" lon="1.43347">
        <ele>289</ele>
        <time>2017-02-26T11:21:05Z</time>
      </trkpt>
      <trkpt lat="45.30327" lon="1.4335">
        <ele>288</ele>
        <time>2017-02-26T11:21:09Z</time>
      </trkpt>
      <trkpt lat="45.30325" lon="1.4335">
        <ele>288</ele>
        <time>2017-02-26T11:21:10Z</time>
      </trkpt>
      <trkpt lat="45.30317" lon="1.43349">
        <ele>287</ele>
        <time>2017-02-26T11:21:14Z</time>
      </trkpt>
      <trkpt lat="45.30312" lon="1.43348">
        <ele>287</ele>
        <time>2017-02-26T11:21:16Z</time>
      </trkpt>
      <trkpt lat="45.30303" lon="1.43347">
        <ele>288</ele>
        <time>2017-02-26T11:21:20Z</time>
      </trkpt>
      <trkpt lat="45.30298" lon="1.43348">
        <ele>288</ele>
        <time>2017-02-26T11:21:22Z</time>
      </trkpt>
      <trkpt lat="45.30291" lon="1.43348">
        <ele>289</ele>
        <time>2017-02-26T11:21:26Z</time>
      </trkpt>
      <trkpt lat="45.30287" lon="1.43347">
        <ele>289</ele>
        <time>2017-02-26T11:21:28Z</time>
      </trkpt>
      <trkpt lat="45.30279" lon="1.43345">
        <ele>288</ele>
        <time>2017-02-26T11:21:31Z</time>
      </trkpt>
      <trkpt lat="45.30269" lon="1.43342">
        <ele>287</ele>
        <time>2017-02-26T11:21:34Z</time>
      </trkpt>
      <trkpt lat="45.30258" lon="1.43339">
        <ele>285</ele>
        <time>2017-02-26T11:21:38Z</time>
      </trkpt>
      <trkpt lat="45.30249" lon="1.43338">
        <ele>284</ele>
        <time>2017-02-26T11:21:41Z</time>
      </trkpt>
      <trkpt lat="45.30242" lon="1.43336">
        <ele>283</ele>
        <time>2017-02-26T11:21:43Z</time>
      </trkpt>
      <trkpt lat="45.30236" lon="1.43335">
        <ele>282</ele>
        <time>2017-02-26T11:21:45Z</time>
      </trkpt>
      <trkpt lat="45.30228" lon="1.43332">
        <ele>281</ele>
        <time>2017-02-26T11:21:47Z</time>
      </trkpt>
      <trkpt lat="45.30218" lon="1.43329">
        <ele>279</ele>
        <time>2017-02-26T11:21:49Z</time>
      </trkpt>
      <trkpt lat="45.30208" lon="1.43325">
        <ele>278</ele>
        <time>2017-02-26T11:21:51Z</time>
      </trkpt>
      <trkpt lat="45.30198" lon="1.43322">
        <ele>276</ele>
        <time>2017-02-26T11:21:53Z</time>
      </trkpt>
      <trkpt lat="45.30187" lon="1.43319">
        <ele>275</ele>
        <time>2017-02-26T11:21:55Z</time>
      </trkpt>
      <trkpt lat="45.30181" lon="1.43317">
        <ele>274</ele>
        <time>2017-02-26T11:21:56Z</time>
      </trkpt>
      <trkpt lat="45.30176" lon="1.43315">
        <ele>274</ele>
        <time>2017-02-26T11:21:57Z</time>
      </trkpt>
      <trkpt lat="45.30165" lon="1.4331">
        <ele>273</ele>
        <time>2017-02-26T11:21:59Z</time>
      </trkpt>
      <trkpt lat="45.30153" lon="1.43305">
        <ele>272</ele>
        <time>2017-02-26T11:22:01Z</time>
      </trkpt>
      <trkpt lat="45.30148" lon="1.43303">
        <ele>271</ele>
        <time>2017-02-26T11:22:02Z</time>
      </trkpt>
      <trkpt lat="45.30141" lon="1.43302">
        <ele>270</ele>
        <time>2017-02-26T11:22:03Z</time>
      </trkpt>
      <trkpt lat="45.30128" lon="1.43301">
        <ele>269</ele>
        <time>2017-02-26T11:22:05Z</time>
      </trkpt>
      <trkpt lat="45.30113" lon="1.43302">
        <ele>268</ele>
        <time>2017-02-26T11:22:07Z</time>
      </trkpt>
      <trkpt lat="45.30075" lon="1.43314">
        <ele>267</ele>
        <time>2017-02-26T11:22:12Z</time>
      </trkpt>
      <trkpt lat="45.30021" lon="1.43333">
        <ele>267</ele>
        <time>2017-02-26T11:22:19Z</time>
      </trkpt>
      <trkpt lat="45.29997" lon="1.43345">
        <ele>268</ele>
        <time>2017-02-26T11:22:23Z</time>
      </trkpt>
      <trkpt lat="45.29987" lon="1.43353">
        <ele>269</ele>
        <time>2017-02-26T11:22:25Z</time>
      </trkpt>
      <trkpt lat="45.29958" lon="1.43378">
        <ele>269</ele>
        <time>2017-02-26T11:22:32Z</time>
      </trkpt>
      <trkpt lat="45.29954" lon="1.43383">
        <ele>269</ele>
        <time>2017-02-26T11:22:33Z</time>
      </trkpt>
      <trkpt lat="45.29947" lon="1.43393">
        <ele>269</ele>
        <time>2017-02-26T11:22:35Z</time>
      </trkpt>
      <trkpt lat="45.29942" lon="1.43405">
        <ele>268</ele>
        <time>2017-02-26T11:22:37Z</time>
      </trkpt>
      <trkpt lat="45.29939" lon="1.43418">
        <ele>268</ele>
        <time>2017-02-26T11:22:39Z</time>
      </trkpt>
      <trkpt lat="45.29938" lon="1.43424">
        <ele>268</ele>
        <time>2017-02-26T11:22:40Z</time>
      </trkpt>
      <trkpt lat="45.29935" lon="1.43434">
        <ele>268</ele>
        <time>2017-02-26T11:22:42Z</time>
      </trkpt>
      <trkpt lat="45.29922" lon="1.43453">
        <ele>268</ele>
        <time>2017-02-26T11:22:47Z</time>
      </trkpt>
      <trkpt lat="45.29908" lon="1.4346">
        <ele>269</ele>
        <time>2017-02-26T11:22:52Z</time>
      </trkpt>
      <trkpt lat="45.29895" lon="1.43463">
        <ele>269</ele>
        <time>2017-02-26T11:22:57Z</time>
      </trkpt>
      <trkpt lat="45.29886" lon="1.43465">
        <ele>269</ele>
        <time>2017-02-26T11:23:01Z</time>
      </trkpt>
      <trkpt lat="45.29882" lon="1.43464">
        <ele>269</ele>
        <time>2017-02-26T11:23:03Z</time>
      </trkpt>
      <trkpt lat="45.29876" lon="1.43462">
        <ele>270</ele>
        <time>2017-02-26T11:23:07Z</time>
      </trkpt>
      <trkpt lat="45.29872" lon="1.43462">
        <ele>271</ele>
        <time>2017-02-26T11:23:10Z</time>
      </trkpt>
      <trkpt lat="45.29868" lon="1.43462">
        <ele>272</ele>
        <time>2017-02-26T11:23:12Z</time>
      </trkpt>
      <trkpt lat="45.29861" lon="1.43462">
        <ele>273</ele>
        <time>2017-02-26T11:23:16Z</time>
      </trkpt>
      <trkpt lat="45.29857" lon="1.43462">
        <ele>274</ele>
        <time>2017-02-26T11:23:19Z</time>
      </trkpt>
      <trkpt lat="45.29854" lon="1.4346">
        <ele>275</ele>
        <time>2017-02-26T11:23:21Z</time>
      </trkpt>
      <trkpt lat="45.29853" lon="1.43461">
        <ele>275</ele>
        <time>2017-02-26T11:23:22Z</time>
      </trkpt>
      <trkpt lat="45.29849" lon="1.4346">
        <ele>276</ele>
        <time>2017-02-26T11:23:25Z</time>
      </trkpt>
      <trkpt lat="45.29845" lon="1.43459">
        <ele>277</ele>
        <time>2017-02-26T11:23:28Z</time>
      </trkpt>
      <trkpt lat="45.29842" lon="1.43458">
        <ele>279</ele>
        <time>2017-02-26T11:23:31Z</time>
      </trkpt>
      <trkpt lat="45.29836" lon="1.43457">
        <ele>280</ele>
        <time>2017-02-26T11:23:35Z</time>
      </trkpt>
      <trkpt lat="45.29835" lon="1.43457">
        <ele>280</ele>
        <time>2017-02-26T11:23:36Z</time>
      </trkpt>
      <trkpt lat="45.29831" lon="1.43456">
        <ele>281</ele>
        <time>2017-02-26T11:23:39Z</time>
      </trkpt>
      <trkpt lat="45.29829" lon="1.43456">
        <ele>282</ele>
        <time>2017-02-26T11:23:40Z</time>
      </trkpt>
      <trkpt lat="45.29827" lon="1.43456">
        <ele>283</ele>
        <time>2017-02-26T11:23:41Z</time>
      </trkpt>
      <trkpt lat="45.29823" lon="1.43454">
        <ele>284</ele>
        <time>2017-02-26T11:23:44Z</time>
      </trkpt>
      <trkpt lat="45.2982" lon="1.43452">
        <ele>285</ele>
        <time>2017-02-26T11:23:46Z</time>
      </trkpt>
      <trkpt lat="45.29818" lon="1.43451">
        <ele>286</ele>
        <time>2017-02-26T11:23:47Z</time>
      </trkpt>
      <trkpt lat="45.29815" lon="1.43449">
        <ele>287</ele>
        <time>2017-02-26T11:23:49Z</time>
      </trkpt>
      <trkpt lat="45.29813" lon="1.43446">
        <ele>288</ele>
        <time>2017-02-26T11:23:51Z</time>
      </trkpt>
      <trkpt lat="45.29812" lon="1.43445">
        <ele>289</ele>
        <time>2017-02-26T11:23:52Z</time>
      </trkpt>
      <trkpt lat="45.29809" lon="1.43443">
        <ele>290</ele>
        <time>2017-02-26T11:23:54Z</time>
      </trkpt>
      <trkpt lat="45.298" lon="1.43438">
        <ele>291</ele>
        <time>2017-02-26T11:24:00Z</time>
      </trkpt>
      <trkpt lat="45.29797" lon="1.43436">
        <ele>291</ele>
        <time>2017-02-26T11:24:02Z</time>
      </trkpt>
      <trkpt lat="45.29795" lon="1.43436">
        <ele>292</ele>
        <time>2017-02-26T11:24:03Z</time>
      </trkpt>
      <trkpt lat="45.29794" lon="1.43442">
        <ele>293</ele>
        <time>2017-02-26T11:24:08Z</time>
      </trkpt>
      <trkpt lat="45.29797" lon="1.43449">
        <ele>294</ele>
        <time>2017-02-26T11:24:12Z</time>
      </trkpt>
      <trkpt lat="45.29799" lon="1.43453">
        <ele>295</ele>
        <time>2017-02-26T11:24:15Z</time>
      </trkpt>
      <trkpt lat="45.29802" lon="1.4346">
        <ele>296</ele>
        <time>2017-02-26T11:24:19Z</time>
      </trkpt>
      <trkpt lat="45.29804" lon="1.43465">
        <ele>297</ele>
        <time>2017-02-26T11:24:23Z</time>
      </trkpt>
      <trkpt lat="45.29807" lon="1.43469">
        <ele>299</ele>
        <time>2017-02-26T11:24:26Z</time>
      </trkpt>
      <trkpt lat="45.29835" lon="1.43501">
        <ele>305</ele>
        <time>2017-02-26T11:24:49Z</time>
      </trkpt>
      <trkpt lat="45.29841" lon="1.43509">
        <ele>306</ele>
        <time>2017-02-26T11:24:55Z</time>
      </trkpt>
      <trkpt lat="45.2985" lon="1.43519">
        <ele>306</ele>
        <time>2017-02-26T11:25:01Z</time>
      </trkpt>
      <trkpt lat="45.29852" lon="1.43521">
        <ele>307</ele>
        <time>2017-02-26T11:25:03Z</time>
      </trkpt>
      <trkpt lat="45.29858" lon="1.43528">
        <ele>307</ele>
        <time>2017-02-26T11:25:07Z</time>
      </trkpt>
      <trkpt lat="45.2987" lon="1.43539">
        <ele>307</ele>
        <time>2017-02-26T11:25:14Z</time>
      </trkpt>
      <trkpt lat="45.29879" lon="1.43544">
        <ele>307</ele>
        <time>2017-02-26T11:25:20Z</time>
      </trkpt>
      <trkpt lat="45.29884" lon="1.43547">
        <ele>308</ele>
        <time>2017-02-26T11:25:23Z</time>
      </trkpt>
      <trkpt lat="45.29889" lon="1.43549">
        <ele>308</ele>
        <time>2017-02-26T11:25:26Z</time>
      </trkpt>
      <trkpt lat="45.29899" lon="1.43558">
        <ele>309</ele>
        <time>2017-02-26T11:25:32Z</time>
      </trkpt>
      <trkpt lat="45.29901" lon="1.4356">
        <ele>309</ele>
        <time>2017-02-26T11:25:34Z</time>
      </trkpt>
      <trkpt lat="45.29909" lon="1.43569">
        <ele>309</ele>
        <time>2017-02-26T11:25:40Z</time>
      </trkpt>
      <trkpt lat="45.29916" lon="1.43579">
        <ele>309</ele>
        <time>2017-02-26T11:25:45Z</time>
      </trkpt>
      <trkpt lat="45.2992" lon="1.43584">
        <ele>310</ele>
        <time>2017-02-26T11:25:49Z</time>
      </trkpt>
      <trkpt lat="45.29925" lon="1.43588">
        <ele>311</ele>
        <time>2017-02-26T11:25:52Z</time>
      </trkpt>
      <trkpt lat="45.29931" lon="1.43594">
        <ele>313</ele>
        <time>2017-02-26T11:25:56Z</time>
      </trkpt>
      <trkpt lat="45.29934" lon="1.43597">
        <ele>313</ele>
        <time>2017-02-26T11:25:58Z</time>
      </trkpt>
      <trkpt lat="45.2994" lon="1.43602">
        <ele>314</ele>
        <time>2017-02-26T11:26:02Z</time>
      </trkpt>
      <trkpt lat="45.29944" lon="1.43604">
        <ele>315</ele>
        <time>2017-02-26T11:26:04Z</time>
      </trkpt>
      <trkpt lat="45.29945" lon="1.43605">
        <ele>315</ele>
        <time>2017-02-26T11:26:05Z</time>
      </trkpt>
      <trkpt lat="45.29949" lon="1.43608">
        <ele>316</ele>
        <time>2017-02-26T11:26:08Z</time>
      </trkpt>
      <trkpt lat="45.29953" lon="1.43609">
        <ele>317</ele>
        <time>2017-02-26T11:26:11Z</time>
      </trkpt>
      <trkpt lat="45.29955" lon="1.43611">
        <ele>318</ele>
        <time>2017-02-26T11:26:13Z</time>
      </trkpt>
      <trkpt lat="45.29961" lon="1.43615">
        <ele>319</ele>
        <time>2017-02-26T11:26:17Z</time>
      </trkpt>
      <trkpt lat="45.29963" lon="1.43616">
        <ele>319</ele>
        <time>2017-02-26T11:26:18Z</time>
      </trkpt>
      <trkpt lat="45.29967" lon="1.43618">
        <ele>320</ele>
        <time>2017-02-26T11:26:22Z</time>
      </trkpt>
      <trkpt lat="45.29969" lon="1.43619">
        <ele>320</ele>
        <time>2017-02-26T11:26:23Z</time>
      </trkpt>
      <trkpt lat="45.29994" lon="1.43647">
        <ele>329</ele>
        <time>2017-02-26T11:26:51Z</time>
      </trkpt>
      <trkpt lat="45.29998" lon="1.43645">
        <ele>330</ele>
        <time>2017-02-26T11:26:54Z</time>
      </trkpt>
      <trkpt lat="45.30002" lon="1.43639">
        <ele>330</ele>
        <time>2017-02-26T11:26:58Z</time>
      </trkpt>
      <trkpt lat="45.30007" lon="1.43626">
        <ele>330</ele>
        <time>2017-02-26T11:27:03Z</time>
      </trkpt>
      <trkpt lat="45.30008" lon="1.43625">
        <ele>331</ele>
        <time>2017-02-26T11:27:04Z</time>
      </trkpt>
      <trkpt lat="45.30012" lon="1.43617">
        <ele>330</ele>
        <time>2017-02-26T11:27:07Z</time>
      </trkpt>
      <trkpt lat="45.30014" lon="1.43614">
        <ele>329</ele>
        <time>2017-02-26T11:27:08Z</time>
      </trkpt>
      <trkpt lat="45.30018" lon="1.43604">
        <ele>328</ele>
        <time>2017-02-26T11:27:13Z</time>
      </trkpt>
      <trkpt lat="45.30019" lon="1.43602">
        <ele>328</ele>
        <time>2017-02-26T11:27:14Z</time>
      </trkpt>
      <trkpt lat="45.30022" lon="1.43587">
        <ele>327</ele>
        <time>2017-02-26T11:27:20Z</time>
      </trkpt>
      <trkpt lat="45.30024" lon="1.43582">
        <ele>327</ele>
        <time>2017-02-26T11:27:22Z</time>
      </trkpt>
      <trkpt lat="45.30025" lon="1.43578">
        <ele>326</ele>
        <time>2017-02-26T11:27:24Z</time>
      </trkpt>
      <trkpt lat="45.30026" lon="1.43574">
        <ele>325</ele>
        <time>2017-02-26T11:27:26Z</time>
      </trkpt>
      <trkpt lat="45.30027" lon="1.43568">
        <ele>324</ele>
        <time>2017-02-26T11:27:29Z</time>
      </trkpt>
      <trkpt lat="45.30028" lon="1.43564">
        <ele>324</ele>
        <time>2017-02-26T11:27:31Z</time>
      </trkpt>
      <trkpt lat="45.3003" lon="1.43556">
        <ele>323</ele>
        <time>2017-02-26T11:27:35Z</time>
      </trkpt>
      <trkpt lat="45.30031" lon="1.43553">
        <ele>323</ele>
        <time>2017-02-26T11:27:37Z</time>
      </trkpt>
      <trkpt lat="45.30049" lon="1.43518">
        <ele>326</ele>
        <time>2017-02-26T11:27:57Z</time>
      </trkpt>
      <trkpt lat="45.30052" lon="1.43514">
        <ele>327</ele>
        <time>2017-02-26T11:27:59Z</time>
      </trkpt>
      <trkpt lat="45.30056" lon="1.43508">
        <ele>328</ele>
        <time>2017-02-26T11:28:02Z</time>
      </trkpt>
      <trkpt lat="45.3006" lon="1.43503">
        <ele>328</ele>
        <time>2017-02-26T11:28:05Z</time>
      </trkpt>
      <trkpt lat="45.30064" lon="1.43498">
        <ele>329</ele>
        <time>2017-02-26T11:28:08Z</time>
      </trkpt>
      <trkpt lat="45.30067" lon="1.43492">
        <ele>330</ele>
        <time>2017-02-26T11:28:11Z</time>
      </trkpt>
      <trkpt lat="45.30072" lon="1.43487">
        <ele>331</ele>
        <time>2017-02-26T11:28:14Z</time>
      </trkpt>
      <trkpt lat="45.30079" lon="1.43482">
        <ele>332</ele>
        <time>2017-02-26T11:28:18Z</time>
      </trkpt>
      <trkpt lat="45.30087" lon="1.43477">
        <ele>333</ele>
        <time>2017-02-26T11:28:23Z</time>
      </trkpt>
      <trkpt lat="45.30092" lon="1.43474">
        <ele>334</ele>
        <time>2017-02-26T11:28:26Z</time>
      </trkpt>
      <trkpt lat="45.30098" lon="1.43473">
        <ele>334</ele>
        <time>2017-02-26T11:28:29Z</time>
      </trkpt>
      <trkpt lat="45.301" lon="1.43472">
        <ele>335</ele>
        <time>2017-02-26T11:28:30Z</time>
      </trkpt>
      <trkpt lat="45.3011" lon="1.43472">
        <ele>336</ele>
        <time>2017-02-26T11:28:34Z</time>
      </trkpt>
      <trkpt lat="45.30113" lon="1.43472">
        <ele>336</ele>
        <time>2017-02-26T11:28:35Z</time>
      </trkpt>
      <trkpt lat="45.30129" lon="1.4347">
        <ele>336</ele>
        <time>2017-02-26T11:28:43Z</time>
      </trkpt>
      <trkpt lat="45.30141" lon="1.43471">
        <ele>337</ele>
        <time>2017-02-26T11:28:49Z</time>
      </trkpt>
      <trkpt lat="45.30141" lon="1.43475">
        <ele>337</ele>
        <time>2017-02-26T11:28:51Z</time>
      </trkpt>
      <trkpt lat="45.30143" lon="1.43479">
        <ele>338</ele>
        <time>2017-02-26T11:28:53Z</time>
      </trkpt>
      <trkpt lat="45.30142" lon="1.43486">
        <ele>340</ele>
        <time>2017-02-26T11:28:56Z</time>
      </trkpt>
      <trkpt lat="45.30142" lon="1.43488">
        <ele>340</ele>
        <time>2017-02-26T11:28:57Z</time>
      </trkpt>
      <trkpt lat="45.30142" lon="1.4349">
        <ele>341</ele>
        <time>2017-02-26T11:28:58Z</time>
      </trkpt>
      <trkpt lat="45.30142" lon="1.43493">
        <ele>341</ele>
        <time>2017-02-26T11:28:59Z</time>
      </trkpt>
      <trkpt lat="45.30141" lon="1.43502">
        <ele>342</ele>
        <time>2017-02-26T11:29:02Z</time>
      </trkpt>
      <trkpt lat="45.3014" lon="1.43508">
        <ele>343</ele>
        <time>2017-02-26T11:29:04Z</time>
      </trkpt>
      <trkpt lat="45.3014" lon="1.43513">
        <ele>344</ele>
        <time>2017-02-26T11:29:06Z</time>
      </trkpt>
      <trkpt lat="45.3014" lon="1.43516">
        <ele>345</ele>
        <time>2017-02-26T11:29:07Z</time>
      </trkpt>
      <trkpt lat="45.3014" lon="1.43531">
        <ele>346</ele>
        <time>2017-02-26T11:29:13Z</time>
      </trkpt>
      <trkpt lat="45.30139" lon="1.43534">
        <ele>346</ele>
        <time>2017-02-26T11:29:14Z</time>
      </trkpt>
      <trkpt lat="45.30139" lon="1.43539">
        <ele>347</ele>
        <time>2017-02-26T11:29:16Z</time>
      </trkpt>
      <trkpt lat="45.30138" lon="1.43549">
        <ele>348</ele>
        <time>2017-02-26T11:29:20Z</time>
      </trkpt>
      <trkpt lat="45.30138" lon="1.43556">
        <ele>349</ele>
        <time>2017-02-26T11:29:23Z</time>
      </trkpt>
      <trkpt lat="45.30138" lon="1.43559">
        <ele>349</ele>
        <time>2017-02-26T11:29:24Z</time>
      </trkpt>
      <trkpt lat="45.30138" lon="1.43566">
        <ele>350</ele>
        <time>2017-02-26T11:29:27Z</time>
      </trkpt>
      <trkpt lat="45.30138" lon="1.43573">
        <ele>351</ele>
        <time>2017-02-26T11:29:30Z</time>
      </trkpt>
      <trkpt lat="45.30138" lon="1.43578">
        <ele>352</ele>
        <time>2017-02-26T11:29:32Z</time>
      </trkpt>
      <trkpt lat="45.30136" lon="1.43591">
        <ele>353</ele>
        <time>2017-02-26T11:29:38Z</time>
      </trkpt>
      <trkpt lat="45.30136" lon="1.43594">
        <ele>353</ele>
        <time>2017-02-26T11:29:39Z</time>
      </trkpt>
      <trkpt lat="45.30135" lon="1.43612">
        <ele>354</ele>
        <time>2017-02-26T11:29:47Z</time>
      </trkpt>
      <trkpt lat="45.30135" lon="1.43616">
        <ele>354</ele>
        <time>2017-02-26T11:29:49Z</time>
      </trkpt>
      <trkpt lat="45.30134" lon="1.43627">
        <ele>355</ele>
        <time>2017-02-26T11:29:55Z</time>
      </trkpt>
      <trkpt lat="45.30134" lon="1.43633">
        <ele>355</ele>
        <time>2017-02-26T11:29:58Z</time>
      </trkpt>
      <trkpt lat="45.30134" lon="1.43641">
        <ele>356</ele>
        <time>2017-02-26T11:30:02Z</time>
      </trkpt>
      <trkpt lat="45.30134" lon="1.43643">
        <ele>356</ele>
        <time>2017-02-26T11:30:03Z</time>
      </trkpt>
      <trkpt lat="45.30133" lon="1.43657">
        <ele>357</ele>
        <time>2017-02-26T11:30:10Z</time>
      </trkpt>
      <trkpt lat="45.30133" lon="1.43659">
        <ele>357</ele>
        <time>2017-02-26T11:30:11Z</time>
      </trkpt>
      <trkpt lat="45.30132" lon="1.43669">
        <ele>358</ele>
        <time>2017-02-26T11:30:16Z</time>
      </trkpt>
      <trkpt lat="45.30132" lon="1.43679">
        <ele>359</ele>
        <time>2017-02-26T11:30:21Z</time>
      </trkpt>
      <trkpt lat="45.30131" lon="1.43685">
        <ele>359</ele>
        <time>2017-02-26T11:30:24Z</time>
      </trkpt>
      <trkpt lat="45.30129" lon="1.43695">
        <ele>360</ele>
        <time>2017-02-26T11:30:29Z</time>
      </trkpt>
      <trkpt lat="45.30129" lon="1.43704">
        <ele>360</ele>
        <time>2017-02-26T11:30:33Z</time>
      </trkpt>
      <trkpt lat="45.30129" lon="1.43709">
        <ele>361</ele>
        <time>2017-02-26T11:30:35Z</time>
      </trkpt>
      <trkpt lat="45.30129" lon="1.4372">
        <ele>362</ele>
        <time>2017-02-26T11:30:40Z</time>
      </trkpt>
      <trkpt lat="45.30132" lon="1.43725">
        <ele>362</ele>
        <time>2017-02-26T11:34:12Z</time>
      </trkpt>
      <trkpt lat="45.30136" lon="1.43724">
        <ele>363</ele>
        <time>2017-02-26T11:34:14Z</time>
      </trkpt>
      <trkpt lat="45.30138" lon="1.43723">
        <ele>363</ele>
        <time>2017-02-26T11:34:15Z</time>
      </trkpt>
      <trkpt lat="45.30144" lon="1.43722">
        <ele>364</ele>
        <time>2017-02-26T11:34:19Z</time>
      </trkpt>
      <trkpt lat="45.30147" lon="1.43722">
        <ele>364</ele>
        <time>2017-02-26T11:34:21Z</time>
      </trkpt>
      <trkpt lat="45.3015" lon="1.43721">
        <ele>365</ele>
        <time>2017-02-26T11:34:23Z</time>
      </trkpt>
      <trkpt lat="45.30156" lon="1.43718">
        <ele>365</ele>
        <time>2017-02-26T11:36:14Z</time>
      </trkpt>
      <trkpt lat="45.30165" lon="1.4372">
        <ele>365</ele>
        <time>2017-02-26T11:36:19Z</time>
      </trkpt>
      <trkpt lat="45.30167" lon="1.43719">
        <ele>365</ele>
        <time>2017-02-26T11:36:20Z</time>
      </trkpt>
      <trkpt lat="45.30183" lon="1.43721">
        <ele>366</ele>
        <time>2017-02-26T11:36:27Z</time>
      </trkpt>
      <trkpt lat="45.30198" lon="1.43728">
        <ele>366</ele>
        <time>2017-02-26T11:36:33Z</time>
      </trkpt>
      <trkpt lat="45.30216" lon="1.43737">
        <ele>366</ele>
        <time>2017-02-26T11:36:39Z</time>
      </trkpt>
      <trkpt lat="45.30226" lon="1.43745">
        <ele>365</ele>
        <time>2017-02-26T11:36:42Z</time>
      </trkpt>
      <trkpt lat="45.30234" lon="1.43754">
        <ele>364</ele>
        <time>2017-02-26T11:36:44Z</time>
      </trkpt>
      <trkpt lat="45.30239" lon="1.43759">
        <ele>363</ele>
        <time>2017-02-26T11:36:45Z</time>
      </trkpt>
      <trkpt lat="45.30243" lon="1.43765">
        <ele>362</ele>
        <time>2017-02-26T11:36:46Z</time>
      </trkpt>
      <trkpt lat="45.30253" lon="1.43779">
        <ele>361</ele>
        <time>2017-02-26T11:36:48Z</time>
      </trkpt>
      <trkpt lat="45.30257" lon="1.43785">
        <ele>361</ele>
        <time>2017-02-26T11:36:49Z</time>
      </trkpt>
      <trkpt lat="45.30262" lon="1.43791">
        <ele>360</ele>
        <time>2017-02-26T11:36:50Z</time>
      </trkpt>
      <trkpt lat="45.30268" lon="1.43794">
        <ele>360</ele>
        <time>2017-02-26T11:36:51Z</time>
      </trkpt>
      <trkpt lat="45.30281" lon="1.43796">
        <ele>358</ele>
        <time>2017-02-26T11:36:53Z</time>
      </trkpt>
      <trkpt lat="45.30292" lon="1.43794">
        <ele>357</ele>
        <time>2017-02-26T11:36:55Z</time>
      </trkpt>
      <trkpt lat="45.303" lon="1.43791">
        <ele>356</ele>
        <time>2017-02-26T11:36:57Z</time>
      </trkpt>
      <trkpt lat="45.30308" lon="1.43788">
        <ele>355</ele>
        <time>2017-02-26T11:36:59Z</time>
      </trkpt>
      <trkpt lat="45.30314" lon="1.43786">
        <ele>353</ele>
        <time>2017-02-26T11:37:01Z</time>
      </trkpt>
      <trkpt lat="45.3032" lon="1.43784">
        <ele>352</ele>
        <time>2017-02-26T11:37:03Z</time>
      </trkpt>
      <trkpt lat="45.3033" lon="1.4378">
        <ele>351</ele>
        <time>2017-02-26T11:37:06Z</time>
      </trkpt>
      <trkpt lat="45.30342" lon="1.4377">
        <ele>350</ele>
        <time>2017-02-26T11:37:10Z</time>
      </trkpt>
      <trkpt lat="45.30349" lon="1.43765">
        <ele>349</ele>
        <time>2017-02-26T11:37:12Z</time>
      </trkpt>
      <trkpt lat="45.30352" lon="1.43762">
        <ele>348</ele>
        <time>2017-02-26T11:37:13Z</time>
      </trkpt>
      <trkpt lat="45.30364" lon="1.43753">
        <ele>347</ele>
        <time>2017-02-26T11:37:16Z</time>
      </trkpt>
      <trkpt lat="45.30368" lon="1.4375">
        <ele>346</ele>
        <time>2017-02-26T11:37:17Z</time>
      </trkpt>
      <trkpt lat="45.30377" lon="1.43745">
        <ele>346</ele>
        <time>2017-02-26T11:37:19Z</time>
      </trkpt>
      <trkpt lat="45.30394" lon="1.4374">
        <ele>345</ele>
        <time>2017-02-26T11:37:22Z</time>
      </trkpt>
      <trkpt lat="45.30399" lon="1.43739">
        <ele>344</ele>
        <time>2017-02-26T11:37:23Z</time>
      </trkpt>
      <trkpt lat="45.30411" lon="1.43739">
        <ele>344</ele>
        <time>2017-02-26T11:37:25Z</time>
      </trkpt>
      <trkpt lat="45.30422" lon="1.4374">
        <ele>343</ele>
        <time>2017-02-26T11:37:27Z</time>
      </trkpt>
      <trkpt lat="45.30427" lon="1.43742">
        <ele>342</ele>
        <time>2017-02-26T11:37:28Z</time>
      </trkpt>
      <trkpt lat="45.30437" lon="1.43749">
        <ele>341</ele>
        <time>2017-02-26T11:37:30Z</time>
      </trkpt>
      <trkpt lat="45.3045" lon="1.43759">
        <ele>340</ele>
        <time>2017-02-26T11:37:33Z</time>
      </trkpt>
      <trkpt lat="45.30455" lon="1.43762">
        <ele>339</ele>
        <time>2017-02-26T11:37:34Z</time>
      </trkpt>
      <trkpt lat="45.30465" lon="1.43767">
        <ele>339</ele>
        <time>2017-02-26T11:37:37Z</time>
      </trkpt>
      <trkpt lat="45.30478" lon="1.43769">
        <ele>340</ele>
        <time>2017-02-26T11:37:42Z</time>
      </trkpt>
      <trkpt lat="45.30483" lon="1.43767">
        <ele>341</ele>
        <time>2017-02-26T11:37:45Z</time>
      </trkpt>
      <trkpt lat="45.30487" lon="1.43765">
        <ele>342</ele>
        <time>2017-02-26T11:37:47Z</time>
      </trkpt>
      <trkpt lat="45.30489" lon="1.43764">
        <ele>342</ele>
        <time>2017-02-26T11:37:48Z</time>
      </trkpt>
      <trkpt lat="45.30493" lon="1.43763">
        <ele>344</ele>
        <time>2017-02-26T11:37:50Z</time>
      </trkpt>
      <trkpt lat="45.30497" lon="1.43761">
        <ele>345</ele>
        <time>2017-02-26T11:37:52Z</time>
      </trkpt>
      <trkpt lat="45.30501" lon="1.4376">
        <ele>346</ele>
        <time>2017-02-26T11:37:54Z</time>
      </trkpt>
      <trkpt lat="45.30503" lon="1.43759">
        <ele>347</ele>
        <time>2017-02-26T11:37:55Z</time>
      </trkpt>
      <trkpt lat="45.30505" lon="1.43758">
        <ele>347</ele>
        <time>2017-02-26T11:37:56Z</time>
      </trkpt>
      <trkpt lat="45.3051" lon="1.43756">
        <ele>349</ele>
        <time>2017-02-26T11:37:58Z</time>
      </trkpt>
      <trkpt lat="45.30516" lon="1.43757">
        <ele>350</ele>
        <time>2017-02-26T11:38:01Z</time>
      </trkpt>
      <trkpt lat="45.30519" lon="1.4376">
        <ele>351</ele>
        <time>2017-02-26T11:38:03Z</time>
      </trkpt>
      <trkpt lat="45.3052" lon="1.43761">
        <ele>351</ele>
        <time>2017-02-26T11:38:04Z</time>
      </trkpt>
      <trkpt lat="45.30522" lon="1.43762">
        <ele>352</ele>
        <time>2017-02-26T11:38:05Z</time>
      </trkpt>
      <trkpt lat="45.30523" lon="1.43763">
        <ele>352</ele>
        <time>2017-02-26T11:38:06Z</time>
      </trkpt>
      <trkpt lat="45.30526" lon="1.43765">
        <ele>353</ele>
        <time>2017-02-26T11:38:08Z</time>
      </trkpt>
      <trkpt lat="45.30527" lon="1.43765">
        <ele>353</ele>
        <time>2017-02-26T11:38:09Z</time>
      </trkpt>
      <trkpt lat="45.30531" lon="1.43768">
        <ele>354</ele>
        <time>2017-02-26T11:38:11Z</time>
      </trkpt>
      <trkpt lat="45.30535" lon="1.43771">
        <ele>355</ele>
        <time>2017-02-26T11:38:15Z</time>
      </trkpt>
      <trkpt lat="45.3054" lon="1.43775">
        <ele>356</ele>
        <time>2017-02-26T11:38:17Z</time>
      </trkpt>
      <trkpt lat="45.30542" lon="1.43777">
        <ele>356</ele>
        <time>2017-02-26T11:38:18Z</time>
      </trkpt>
      <trkpt lat="45.30549" lon="1.43782">
        <ele>357</ele>
        <time>2017-02-26T11:38:21Z</time>
      </trkpt>
      <trkpt lat="45.30554" lon="1.43785">
        <ele>357</ele>
        <time>2017-02-26T11:38:23Z</time>
      </trkpt>
      <trkpt lat="45.30556" lon="1.43787">
        <ele>358</ele>
        <time>2017-02-26T11:38:24Z</time>
      </trkpt>
      <trkpt lat="45.3056" lon="1.43792">
        <ele>357</ele>
        <time>2017-02-26T11:38:28Z</time>
      </trkpt>
      <trkpt lat="45.30569" lon="1.43803">
        <ele>356</ele>
        <time>2017-02-26T11:38:33Z</time>
      </trkpt>
      <trkpt lat="45.30572" lon="1.43805">
        <ele>356</ele>
        <time>2017-02-26T11:38:34Z</time>
      </trkpt>
      <trkpt lat="45.30583" lon="1.43818">
        <ele>355</ele>
        <time>2017-02-26T11:38:37Z</time>
      </trkpt>
      <trkpt lat="45.30587" lon="1.43824">
        <ele>354</ele>
        <time>2017-02-26T11:38:38Z</time>
      </trkpt>
      <trkpt lat="45.30594" lon="1.43834">
        <ele>354</ele>
        <time>2017-02-26T11:38:40Z</time>
      </trkpt>
      <trkpt lat="45.30603" lon="1.43843">
        <ele>353</ele>
        <time>2017-02-26T11:38:43Z</time>
      </trkpt>
      <trkpt lat="45.30605" lon="1.43845">
        <ele>352</ele>
        <time>2017-02-26T11:38:44Z</time>
      </trkpt>
      <trkpt lat="45.30615" lon="1.43846">
        <ele>352</ele>
        <time>2017-02-26T11:38:47Z</time>
      </trkpt>
      <trkpt lat="45.30627" lon="1.43848">
        <ele>353</ele>
        <time>2017-02-26T11:38:49Z</time>
      </trkpt>
      <trkpt lat="45.30632" lon="1.43849">
        <ele>354</ele>
        <time>2017-02-26T11:38:50Z</time>
      </trkpt>
      <trkpt lat="45.30637" lon="1.4385">
        <ele>354</ele>
        <time>2017-02-26T11:38:52Z</time>
      </trkpt>
      <trkpt lat="45.30641" lon="1.43851">
        <ele>355</ele>
        <time>2017-02-26T11:38:54Z</time>
      </trkpt>
      <trkpt lat="45.30649" lon="1.43852">
        <ele>356</ele>
        <time>2017-02-26T11:38:58Z</time>
      </trkpt>
      <trkpt lat="45.30651" lon="1.43851">
        <ele>356</ele>
        <time>2017-02-26T11:38:59Z</time>
      </trkpt>
      <trkpt lat="45.30655" lon="1.43851">
        <ele>357</ele>
        <time>2017-02-26T11:39:01Z</time>
      </trkpt>
      <trkpt lat="45.30661" lon="1.43854">
        <ele>358</ele>
        <time>2017-02-26T11:39:04Z</time>
      </trkpt>
      <trkpt lat="45.30665" lon="1.43854">
        <ele>359</ele>
        <time>2017-02-26T11:39:06Z</time>
      </trkpt>
      <trkpt lat="45.30675" lon="1.43858">
        <ele>360</ele>
        <time>2017-02-26T11:39:11Z</time>
      </trkpt>
      <trkpt lat="45.30691" lon="1.43871">
        <ele>363</ele>
        <time>2017-02-26T11:39:25Z</time>
      </trkpt>
      <trkpt lat="45.30692" lon="1.43875">
        <ele>363</ele>
        <time>2017-02-26T11:39:27Z</time>
      </trkpt>
      <trkpt lat="45.30691" lon="1.43877">
        <ele>364</ele>
        <time>2017-02-26T11:39:28Z</time>
      </trkpt>
      <trkpt lat="45.30691" lon="1.43879">
        <ele>364</ele>
        <time>2017-02-26T11:39:29Z</time>
      </trkpt>
      <trkpt lat="45.3069" lon="1.43887">
        <ele>365</ele>
        <time>2017-02-26T11:39:33Z</time>
      </trkpt>
      <trkpt lat="45.30689" lon="1.43889">
        <ele>365</ele>
        <time>2017-02-26T11:39:34Z</time>
      </trkpt>
      <trkpt lat="45.30689" lon="1.43891">
        <ele>366</ele>
        <time>2017-02-26T11:39:35Z</time>
      </trkpt>
      <trkpt lat="45.30689" lon="1.43893">
        <ele>366</ele>
        <time>2017-02-26T11:39:36Z</time>
      </trkpt>
      <trkpt lat="45.30687" lon="1.439">
        <ele>367</ele>
        <time>2017-02-26T11:39:40Z</time>
      </trkpt>
      <trkpt lat="45.30687" lon="1.43902">
        <ele>367</ele>
        <time>2017-02-26T11:39:41Z</time>
      </trkpt>
      <trkpt lat="45.30686" lon="1.43906">
        <ele>368</ele>
        <time>2017-02-26T11:39:43Z</time>
      </trkpt>
      <trkpt lat="45.30685" lon="1.43911">
        <ele>369</ele>
        <time>2017-02-26T11:39:45Z</time>
      </trkpt>
      <trkpt lat="45.30684" lon="1.43916">
        <ele>370</ele>
        <time>2017-02-26T11:39:47Z</time>
      </trkpt>
      <trkpt lat="45.30684" lon="1.43918">
        <ele>371</ele>
        <time>2017-02-26T11:39:48Z</time>
      </trkpt>
      <trkpt lat="45.30682" lon="1.43924">
        <ele>372</ele>
        <time>2017-02-26T11:39:51Z</time>
      </trkpt>
      <trkpt lat="45.30678" lon="1.43929">
        <ele>373</ele>
        <time>2017-02-26T11:39:54Z</time>
      </trkpt>
      <trkpt lat="45.30676" lon="1.43936">
        <ele>375</ele>
        <time>2017-02-26T11:39:57Z</time>
      </trkpt>
      <trkpt lat="45.30674" lon="1.4394">
        <ele>375</ele>
        <time>2017-02-26T11:39:59Z</time>
      </trkpt>
      <trkpt lat="45.30674" lon="1.43942">
        <ele>376</ele>
        <time>2017-02-26T11:40:00Z</time>
      </trkpt>
      <trkpt lat="45.30673" lon="1.43944">
        <ele>376</ele>
        <time>2017-02-26T11:40:01Z</time>
      </trkpt>
      <trkpt lat="45.3067" lon="1.43951">
        <ele>377</ele>
        <time>2017-02-26T11:40:04Z</time>
      </trkpt>
      <trkpt lat="45.30669" lon="1.43953">
        <ele>377</ele>
        <time>2017-02-26T11:40:05Z</time>
      </trkpt>
      <trkpt lat="45.30669" lon="1.43955">
        <ele>377</ele>
        <time>2017-02-26T11:40:06Z</time>
      </trkpt>
      <trkpt lat="45.30664" lon="1.43968">
        <ele>378</ele>
        <time>2017-02-26T11:40:12Z</time>
      </trkpt>
      <trkpt lat="45.30663" lon="1.43972">
        <ele>377</ele>
        <time>2017-02-26T11:40:13Z</time>
      </trkpt>
      <trkpt lat="45.30661" lon="1.43978">
        <ele>376</ele>
        <time>2017-02-26T11:40:15Z</time>
      </trkpt>
      <trkpt lat="45.30659" lon="1.43988">
        <ele>375</ele>
        <time>2017-02-26T11:40:18Z</time>
      </trkpt>
      <trkpt lat="45.30659" lon="1.43992">
        <ele>375</ele>
        <time>2017-02-26T11:40:19Z</time>
      </trkpt>
      <trkpt lat="45.3066" lon="1.44011">
        <ele>374</ele>
        <time>2017-02-26T11:40:24Z</time>
      </trkpt>
      <trkpt lat="45.3066" lon="1.44014">
        <ele>373</ele>
        <time>2017-02-26T11:40:25Z</time>
      </trkpt>
      <trkpt lat="45.30658" lon="1.44022">
        <ele>373</ele>
        <time>2017-02-26T11:40:27Z</time>
      </trkpt>
      <trkpt lat="45.30654" lon="1.44031">
        <ele>373</ele>
        <time>2017-02-26T11:40:30Z</time>
      </trkpt>
      <trkpt lat="45.30648" lon="1.44046">
        <ele>374</ele>
        <time>2017-02-26T11:40:35Z</time>
      </trkpt>
      <trkpt lat="45.30642" lon="1.44058">
        <ele>374</ele>
        <time>2017-02-26T11:40:40Z</time>
      </trkpt>
      <trkpt lat="45.30636" lon="1.44069">
        <ele>374</ele>
        <time>2017-02-26T11:40:46Z</time>
      </trkpt>
      <trkpt lat="45.30629" lon="1.44083">
        <ele>375</ele>
        <time>2017-02-26T11:40:52Z</time>
      </trkpt>
      <trkpt lat="45.30624" lon="1.44093">
        <ele>375</ele>
        <time>2017-02-26T11:40:56Z</time>
      </trkpt>
      <trkpt lat="45.30612" lon="1.44117">
        <ele>375</ele>
        <time>2017-02-26T11:41:05Z</time>
      </trkpt>
      <trkpt lat="45.30602" lon="1.44137">
        <ele>376</ele>
        <time>2017-02-26T11:41:13Z</time>
      </trkpt>
      <trkpt lat="45.306" lon="1.4414">
        <ele>376</ele>
        <time>2017-02-26T11:41:14Z</time>
      </trkpt>
      <trkpt lat="45.3059" lon="1.4416">
        <ele>377</ele>
        <time>2017-02-26T11:41:22Z</time>
      </trkpt>
      <trkpt lat="45.30586" lon="1.44169">
        <ele>377</ele>
        <time>2017-02-26T11:41:25Z</time>
      </trkpt>
      <trkpt lat="45.30582" lon="1.4418">
        <ele>377</ele>
        <time>2017-02-26T11:41:29Z</time>
      </trkpt>
      <trkpt lat="45.3058" lon="1.44192">
        <ele>378</ele>
        <time>2017-02-26T11:41:33Z</time>
      </trkpt>
      <trkpt lat="45.30576" lon="1.44203">
        <ele>379</ele>
        <time>2017-02-26T11:41:37Z</time>
      </trkpt>
      <trkpt lat="45.30575" lon="1.44205">
        <ele>379</ele>
        <time>2017-02-26T11:41:38Z</time>
      </trkpt>
      <trkpt lat="45.30569" lon="1.44203">
        <ele>379</ele>
        <time>2017-02-26T11:41:41Z</time>
      </trkpt>
      <trkpt lat="45.30566" lon="1.44197">
        <ele>379</ele>
        <time>2017-02-26T11:41:44Z</time>
      </trkpt>
      <trkpt lat="45.30563" lon="1.44193">
        <ele>379</ele>
        <time>2017-02-26T11:41:47Z</time>
      </trkpt>
      <trkpt lat="45.30553" lon="1.44185">
        <ele>379</ele>
        <time>2017-02-26T11:41:54Z</time>
      </trkpt>
      <trkpt lat="45.30552" lon="1.44185">
        <ele>380</ele>
        <time>2017-02-26T11:41:55Z</time>
      </trkpt>
      <trkpt lat="45.30549" lon="1.44183">
        <ele>380</ele>
        <time>2017-02-26T11:41:58Z</time>
      </trkpt>
      <trkpt lat="45.30547" lon="1.44183">
        <ele>380</ele>
        <time>2017-02-26T11:41:59Z</time>
      </trkpt>
      <trkpt lat="45.30546" lon="1.44183">
        <ele>380</ele>
        <time>2017-02-26T11:42:00Z</time>
      </trkpt>
      <trkpt lat="45.3054" lon="1.44179">
        <ele>381</ele>
        <time>2017-02-26T11:42:05Z</time>
      </trkpt>
      <trkpt lat="45.30537" lon="1.44176">
        <ele>382</ele>
        <time>2017-02-26T11:42:07Z</time>
      </trkpt>
      <trkpt lat="45.30535" lon="1.44175">
        <ele>382</ele>
        <time>2017-02-26T11:42:09Z</time>
      </trkpt>
      <trkpt lat="45.30525" lon="1.4417">
        <ele>383</ele>
        <time>2017-02-26T11:45:17Z</time>
      </trkpt>
      <trkpt lat="45.30519" lon="1.44165">
        <ele>382</ele>
        <time>2017-02-26T11:45:20Z</time>
      </trkpt>
      <trkpt lat="45.30504" lon="1.44149">
        <ele>382</ele>
        <time>2017-02-26T11:45:25Z</time>
      </trkpt>
      <trkpt lat="45.30495" lon="1.44141">
        <ele>381</ele>
        <time>2017-02-26T11:45:27Z</time>
      </trkpt>
      <trkpt lat="45.3049" lon="1.44138">
        <ele>381</ele>
        <time>2017-02-26T11:45:28Z</time>
      </trkpt>
      <trkpt lat="45.30485" lon="1.44137">
        <ele>381</ele>
        <time>2017-02-26T11:45:29Z</time>
      </trkpt>
      <trkpt lat="45.30473" lon="1.44141">
        <ele>381</ele>
        <time>2017-02-26T11:45:32Z</time>
      </trkpt>
      <trkpt lat="45.30459" lon="1.44153">
        <ele>382</ele>
        <time>2017-02-26T11:45:36Z</time>
      </trkpt>
      <trkpt lat="45.30452" lon="1.4416">
        <ele>384</ele>
        <time>2017-02-26T11:45:38Z</time>
      </trkpt>
      <trkpt lat="45.30448" lon="1.44164">
        <ele>384</ele>
        <time>2017-02-26T11:45:39Z</time>
      </trkpt>
      <trkpt lat="45.30437" lon="1.44176">
        <ele>385</ele>
        <time>2017-02-26T11:45:42Z</time>
      </trkpt>
      <trkpt lat="45.30426" lon="1.44188">
        <ele>386</ele>
        <time>2017-02-26T11:45:45Z</time>
      </trkpt>
      <trkpt lat="45.30423" lon="1.44193">
        <ele>387</ele>
        <time>2017-02-26T11:45:46Z</time>
      </trkpt>
      <trkpt lat="45.30419" lon="1.44198">
        <ele>387</ele>
        <time>2017-02-26T11:45:47Z</time>
      </trkpt>
      <trkpt lat="45.30414" lon="1.44202">
        <ele>387</ele>
        <time>2017-02-26T11:45:48Z</time>
      </trkpt>
      <trkpt lat="45.30405" lon="1.4421">
        <ele>388</ele>
        <time>2017-02-26T11:45:51Z</time>
      </trkpt>
      <trkpt lat="45.30403" lon="1.44212">
        <ele>388</ele>
        <time>2017-02-26T11:45:52Z</time>
      </trkpt>
      <trkpt lat="45.30394" lon="1.44222">
        <ele>389</ele>
        <time>2017-02-26T11:45:57Z</time>
      </trkpt>
      <trkpt lat="45.30387" lon="1.44239">
        <ele>389</ele>
        <time>2017-02-26T11:46:03Z</time>
      </trkpt>
      <trkpt lat="45.3038" lon="1.44265">
        <ele>389</ele>
        <time>2017-02-26T11:46:09Z</time>
      </trkpt>
      <trkpt lat="45.30375" lon="1.44287">
        <ele>388</ele>
        <time>2017-02-26T11:46:14Z</time>
      </trkpt>
      <trkpt lat="45.30371" lon="1.443">
        <ele>388</ele>
        <time>2017-02-26T11:46:21Z</time>
      </trkpt>
      <trkpt lat="45.3037" lon="1.44302">
        <ele>388</ele>
        <time>2017-02-26T11:46:23Z</time>
      </trkpt>
      <trkpt lat="45.30368" lon="1.44303">
        <ele>387</ele>
        <time>2017-02-26T11:46:24Z</time>
      </trkpt>
      <trkpt lat="45.30367" lon="1.44302">
        <ele>387</ele>
        <time>2017-02-26T11:46:26Z</time>
      </trkpt>
      <trkpt lat="45.30364" lon="1.44298">
        <ele>387</ele>
        <time>2017-02-26T11:46:29Z</time>
      </trkpt>
      <trkpt lat="45.30362" lon="1.44301">
        <ele>387</ele>
        <time>2017-02-26T11:46:31Z</time>
      </trkpt>
      <trkpt lat="45.30368" lon="1.44305">
        <ele>387</ele>
        <time>2017-02-26T11:46:35Z</time>
      </trkpt>
      <trkpt lat="45.30372" lon="1.44297">
        <ele>387</ele>
        <time>2017-02-26T11:46:38Z</time>
      </trkpt>
      <trkpt lat="45.30373" lon="1.44288">
        <ele>387</ele>
        <time>2017-02-26T11:46:40Z</time>
      </trkpt>
      <trkpt lat="45.30375" lon="1.44273">
        <ele>388</ele>
        <time>2017-02-26T11:46:43Z</time>
      </trkpt>
      <trkpt lat="45.30376" lon="1.44268">
        <ele>388</ele>
        <time>2017-02-26T11:46:44Z</time>
      </trkpt>
      <trkpt lat="45.30384" lon="1.44245">
        <ele>389</ele>
        <time>2017-02-26T11:46:49Z</time>
      </trkpt>
      <trkpt lat="45.30389" lon="1.44239">
        <ele>390</ele>
        <time>2017-02-26T11:46:51Z</time>
      </trkpt>
      <trkpt lat="45.30393" lon="1.44239">
        <ele>390</ele>
        <time>2017-02-26T11:46:52Z</time>
      </trkpt>
      <trkpt lat="45.30396" lon="1.44242">
        <ele>390</ele>
        <time>2017-02-26T11:46:53Z</time>
      </trkpt>
      <trkpt lat="45.30404" lon="1.44257">
        <ele>391</ele>
        <time>2017-02-26T11:46:56Z</time>
      </trkpt>
      <trkpt lat="45.30406" lon="1.44262">
        <ele>390</ele>
        <time>2017-02-26T11:46:57Z</time>
      </trkpt>
      <trkpt lat="45.3042" lon="1.44291">
        <ele>390</ele>
        <time>2017-02-26T11:47:01Z</time>
      </trkpt>
      <trkpt lat="45.30435" lon="1.44322">
        <ele>391</ele>
        <time>2017-02-26T11:47:05Z</time>
      </trkpt>
      <trkpt lat="45.30453" lon="1.4436">
        <ele>391</ele>
        <time>2017-02-26T11:47:10Z</time>
      </trkpt>
      <trkpt lat="45.30467" lon="1.44388">
        <ele>391</ele>
        <time>2017-02-26T11:47:14Z</time>
      </trkpt>
      <trkpt lat="45.30476" lon="1.444">
        <ele>392</ele>
        <time>2017-02-26T11:47:16Z</time>
      </trkpt>
      <trkpt lat="45.30513" lon="1.44442">
        <ele>390</ele>
        <time>2017-02-26T11:47:23Z</time>
      </trkpt>
      <trkpt lat="45.30518" lon="1.44448">
        <ele>390</ele>
        <time>2017-02-26T11:47:24Z</time>
      </trkpt>
      <trkpt lat="45.30523" lon="1.44455">
        <ele>389</ele>
        <time>2017-02-26T11:47:25Z</time>
      </trkpt>
      <trkpt lat="45.30528" lon="1.44472">
        <ele>389</ele>
        <time>2017-02-26T11:47:27Z</time>
      </trkpt>
      <trkpt lat="45.30526" lon="1.44489">
        <ele>389</ele>
        <time>2017-02-26T11:47:29Z</time>
      </trkpt>
      <trkpt lat="45.30523" lon="1.44497">
        <ele>388</ele>
        <time>2017-02-26T11:47:30Z</time>
      </trkpt>
      <trkpt lat="45.30521" lon="1.44505">
        <ele>388</ele>
        <time>2017-02-26T11:47:31Z</time>
      </trkpt>
      <trkpt lat="45.30505" lon="1.44564">
        <ele>388</ele>
        <time>2017-02-26T11:47:38Z</time>
      </trkpt>
      <trkpt lat="45.30492" lon="1.44617">
        <ele>388</ele>
        <time>2017-02-26T11:47:44Z</time>
      </trkpt>
      <trkpt lat="45.30487" lon="1.44634">
        <ele>388</ele>
        <time>2017-02-26T11:47:46Z</time>
      </trkpt>
      <trkpt lat="45.30472" lon="1.44692">
        <ele>386</ele>
        <time>2017-02-26T11:47:52Z</time>
      </trkpt>
      <trkpt lat="45.3047" lon="1.44702">
        <ele>386</ele>
        <time>2017-02-26T11:47:53Z</time>
      </trkpt>
      <trkpt lat="45.30461" lon="1.44734">
        <ele>385</ele>
        <time>2017-02-26T11:47:56Z</time>
      </trkpt>
      <trkpt lat="45.3045" lon="1.44777">
        <ele>384</ele>
        <time>2017-02-26T11:48:00Z</time>
      </trkpt>
      <trkpt lat="45.30448" lon="1.44788">
        <ele>384</ele>
        <time>2017-02-26T11:48:01Z</time>
      </trkpt>
      <trkpt lat="45.30438" lon="1.44829">
        <ele>383</ele>
        <time>2017-02-26T11:48:05Z</time>
      </trkpt>
      <trkpt lat="45.30433" lon="1.44844">
        <ele>383</ele>
        <time>2017-02-26T11:48:07Z</time>
      </trkpt>
      <trkpt lat="45.30426" lon="1.44863">
        <ele>383</ele>
        <time>2017-02-26T11:48:11Z</time>
      </trkpt>
      <trkpt lat="45.30427" lon="1.4488">
        <ele>382</ele>
        <time>2017-02-26T11:48:15Z</time>
      </trkpt>
      <trkpt lat="45.30436" lon="1.44885">
        <ele>384</ele>
        <time>2017-02-26T11:48:21Z</time>
      </trkpt>
      <trkpt lat="45.30437" lon="1.44884">
        <ele>384</ele>
        <time>2017-02-26T11:48:22Z</time>
      </trkpt>
    </trkseg>
  </trk>
</gpx>